<?xml version="1.0" encoding="UTF-8" standalone="no" ?>
<gpx xmlns="http://www.topografix.com/GPX/1/1" xmlns:xsi="http://www.w3.org/2001/XMLSchema-instance" xsi:schemaLocation="http://www.topografix.com/GPX/1/1 http://www.topografix.com/GPX/1/1/gpx.xsd" version="1.1" creator="VisuGPX - https://www.visugpx.com">
  <metadata>
    <name>64 - PESESTRE - GR 108 de Gabas à Laruns - Entretien balisage</name>
    <desc><![CDATA[Fait avec Didier dans le sens de la descente fini sous orage]]></desc>
  </metadata>
  <wpt lat="42.89416" lon="-0.42969">
    <ele>1013.828369</ele>
    <name><![CDATA[001]]></name>
    <desc><![CDATA[04-JUN-13 21:26:49]]></desc>
    <cmt><![CDATA[04-JUN-13 21:26:49]]></cmt>
  </wpt>
  <wpt lat="42.90497" lon="-0.42868">
    <ele>987.392334</ele>
    <name><![CDATA[002]]></name>
    <desc><![CDATA[04-JUN-13 22:29:30]]></desc>
    <cmt><![CDATA[04-JUN-13 22:29:30]]></cmt>
  </wpt>
  <wpt lat="42.90934" lon="-0.43015">
    <ele>943.892822</ele>
    <name><![CDATA[003]]></name>
    <desc><![CDATA[04-JUN-13 23:02:56]]></desc>
    <cmt><![CDATA[04-JUN-13 23:02:56]]></cmt>
  </wpt>
  <wpt lat="42.90925" lon="-0.43067">
    <ele>932.357178</ele>
    <name><![CDATA[004]]></name>
    <desc><![CDATA[04-JUN-13 23:10:00]]></desc>
    <cmt><![CDATA[04-JUN-13 23:10:00]]></cmt>
  </wpt>
  <wpt lat="42.91357" lon="-0.43491">
    <ele>857.375</ele>
    <name><![CDATA[005]]></name>
    <desc><![CDATA[04-JUN-13 23:37:03]]></desc>
    <cmt><![CDATA[04-JUN-13 23:37:03]]></cmt>
  </wpt>
  <wpt lat="42.92559" lon="-0.44635">
    <ele>798.494629</ele>
    <name><![CDATA[006]]></name>
    <desc><![CDATA[05-JUN-13 0:36:01]]></desc>
    <cmt><![CDATA[05-JUN-13 0:36:01]]></cmt>
  </wpt>
  <wpt lat="42.96838" lon="-0.43799">
    <ele>650.452881</ele>
    <name><![CDATA[007]]></name>
    <desc><![CDATA[05-JUN-13 3:44:54]]></desc>
    <cmt><![CDATA[05-JUN-13 3:44:54]]></cmt>
  </wpt>
  <wpt lat="42.97016" lon="-0.43832">
    <ele>614.16333</ele>
    <name><![CDATA[008]]></name>
    <desc><![CDATA[05-JUN-13 4:03:05]]></desc>
    <cmt><![CDATA[05-JUN-13 4:03:05]]></cmt>
  </wpt>
  <trk>
    <name><![CDATA[ACTIVE LOG 002]]></name>
    <trkseg>
      <trkpt lat="42.88752" lon="-0.42718">
        <ele>1032.593262</ele>
        <time>2013-06-05T08:12:15Z</time>
      </trkpt>
      <trkpt lat="42.88752" lon="-0.42717">
        <ele>1032.593262</ele>
        <time>2013-06-05T08:12:16Z</time>
      </trkpt>
      <trkpt lat="42.88752" lon="-0.42717">
        <ele>1031.151367</ele>
        <time>2013-06-05T08:12:17Z</time>
      </trkpt>
      <trkpt lat="42.88751" lon="-0.42724">
        <ele>1030.670654</ele>
        <time>2013-06-05T08:12:37Z</time>
      </trkpt>
      <trkpt lat="42.88762" lon="-0.42735">
        <ele>1029.709229</ele>
        <time>2013-06-05T08:12:52Z</time>
      </trkpt>
      <trkpt lat="42.88773" lon="-0.42738">
        <ele>1028.748047</ele>
        <time>2013-06-05T08:13:04Z</time>
      </trkpt>
      <trkpt lat="42.88776" lon="-0.4274">
        <ele>1027.786621</ele>
        <time>2013-06-05T08:13:08Z</time>
      </trkpt>
      <trkpt lat="42.8879" lon="-0.42739">
        <ele>1027.306152</ele>
        <time>2013-06-05T08:13:22Z</time>
      </trkpt>
      <trkpt lat="42.8881" lon="-0.42738">
        <ele>1027.306152</ele>
        <time>2013-06-05T08:13:38Z</time>
      </trkpt>
      <trkpt lat="42.88833" lon="-0.42737">
        <ele>1025.864014</ele>
        <time>2013-06-05T08:13:58Z</time>
      </trkpt>
      <trkpt lat="42.88854" lon="-0.42741">
        <ele>1025.864014</ele>
        <time>2013-06-05T08:14:15Z</time>
      </trkpt>
      <trkpt lat="42.88877" lon="-0.42751">
        <ele>1024.902832</ele>
        <time>2013-06-05T08:14:35Z</time>
      </trkpt>
      <trkpt lat="42.88907" lon="-0.42765">
        <ele>1026.344727</ele>
        <time>2013-06-05T08:15:01Z</time>
      </trkpt>
      <trkpt lat="42.88936" lon="-0.42777">
        <ele>1026.344727</ele>
        <time>2013-06-05T08:15:25Z</time>
      </trkpt>
      <trkpt lat="42.88967" lon="-0.42784">
        <ele>1026.825439</ele>
        <time>2013-06-05T08:15:50Z</time>
      </trkpt>
      <trkpt lat="42.88997" lon="-0.42792">
        <ele>1027.786621</ele>
        <time>2013-06-05T08:16:13Z</time>
      </trkpt>
      <trkpt lat="42.89025" lon="-0.42804">
        <ele>1028.267334</ele>
        <time>2013-06-05T08:16:37Z</time>
      </trkpt>
      <trkpt lat="42.89051" lon="-0.42821">
        <ele>1028.267334</ele>
        <time>2013-06-05T08:17:00Z</time>
      </trkpt>
      <trkpt lat="42.89074" lon="-0.42834">
        <ele>1028.267334</ele>
        <time>2013-06-05T08:17:19Z</time>
      </trkpt>
      <trkpt lat="42.89102" lon="-0.42849">
        <ele>1025.383301</ele>
        <time>2013-06-05T08:17:43Z</time>
      </trkpt>
      <trkpt lat="42.8913" lon="-0.42863">
        <ele>1023.941406</ele>
        <time>2013-06-05T08:18:06Z</time>
      </trkpt>
      <trkpt lat="42.89161" lon="-0.42879">
        <ele>1022.980225</ele>
        <time>2013-06-05T08:18:32Z</time>
      </trkpt>
      <trkpt lat="42.89185" lon="-0.42894">
        <ele>1021.057617</ele>
        <time>2013-06-05T08:18:57Z</time>
      </trkpt>
      <trkpt lat="42.89184" lon="-0.42894">
        <ele>1021.057617</ele>
        <time>2013-06-05T08:19:18Z</time>
      </trkpt>
      <trkpt lat="42.89184" lon="-0.42893">
        <ele>1021.057617</ele>
        <time>2013-06-05T08:19:55Z</time>
      </trkpt>
      <trkpt lat="42.89185" lon="-0.42895">
        <ele>1021.538086</ele>
        <time>2013-06-05T08:20:31Z</time>
      </trkpt>
      <trkpt lat="42.89186" lon="-0.42893">
        <ele>1021.057617</ele>
        <time>2013-06-05T08:20:44Z</time>
      </trkpt>
      <trkpt lat="42.89184" lon="-0.42894">
        <ele>1021.538086</ele>
        <time>2013-06-05T08:21:30Z</time>
      </trkpt>
      <trkpt lat="42.89184" lon="-0.42895">
        <ele>1021.057617</ele>
        <time>2013-06-05T08:22:02Z</time>
      </trkpt>
      <trkpt lat="42.8919" lon="-0.42901">
        <ele>1021.057617</ele>
        <time>2013-06-05T08:22:38Z</time>
      </trkpt>
      <trkpt lat="42.89201" lon="-0.42912">
        <ele>1021.538086</ele>
        <time>2013-06-05T08:22:50Z</time>
      </trkpt>
      <trkpt lat="42.89214" lon="-0.42934">
        <ele>1020.576904</ele>
        <time>2013-06-05T08:23:06Z</time>
      </trkpt>
      <trkpt lat="42.89235" lon="-0.42958">
        <ele>1019.134766</ele>
        <time>2013-06-05T08:23:28Z</time>
      </trkpt>
      <trkpt lat="42.89249" lon="-0.42963">
        <ele>1018.654053</ele>
        <time>2013-06-05T08:23:42Z</time>
      </trkpt>
      <trkpt lat="42.8927" lon="-0.4297">
        <ele>1018.17334</ele>
        <time>2013-06-05T08:23:59Z</time>
      </trkpt>
      <trkpt lat="42.89294" lon="-0.42973">
        <ele>1016.731445</ele>
        <time>2013-06-05T08:24:17Z</time>
      </trkpt>
      <trkpt lat="42.89299" lon="-0.42973">
        <ele>1016.731445</ele>
        <time>2013-06-05T08:24:21Z</time>
      </trkpt>
      <trkpt lat="42.89314" lon="-0.4297">
        <ele>1016.731445</ele>
        <time>2013-06-05T08:24:34Z</time>
      </trkpt>
      <trkpt lat="42.8932" lon="-0.42969">
        <ele>1016.250732</ele>
        <time>2013-06-05T08:24:39Z</time>
      </trkpt>
      <trkpt lat="42.89331" lon="-0.42967">
        <ele>1016.250732</ele>
        <time>2013-06-05T08:24:48Z</time>
      </trkpt>
      <trkpt lat="42.89358" lon="-0.42968">
        <ele>1016.250732</ele>
        <time>2013-06-05T08:25:07Z</time>
      </trkpt>
      <trkpt lat="42.8938" lon="-0.42972">
        <ele>1014.808838</ele>
        <time>2013-06-05T08:25:24Z</time>
      </trkpt>
      <trkpt lat="42.89386" lon="-0.42973">
        <ele>1015.289551</ele>
        <time>2013-06-05T08:25:29Z</time>
      </trkpt>
      <trkpt lat="42.89393" lon="-0.42968">
        <ele>1014.328125</ele>
        <time>2013-06-05T08:25:44Z</time>
      </trkpt>
      <trkpt lat="42.89405" lon="-0.4297">
        <ele>1013.847412</ele>
        <time>2013-06-05T08:25:56Z</time>
      </trkpt>
      <trkpt lat="42.89414" lon="-0.4297">
        <ele>1013.366943</ele>
        <time>2013-06-05T08:26:15Z</time>
      </trkpt>
      <trkpt lat="42.89415" lon="-0.42969">
        <ele>1013.366943</ele>
        <time>2013-06-05T08:26:30Z</time>
      </trkpt>
      <trkpt lat="42.89416" lon="-0.4297">
        <ele>1014.328125</ele>
        <time>2013-06-05T08:26:47Z</time>
      </trkpt>
      <trkpt lat="42.89415" lon="-0.42973">
        <ele>1013.366943</ele>
        <time>2013-06-05T08:27:07Z</time>
      </trkpt>
      <trkpt lat="42.89426" lon="-0.42974">
        <ele>1012.88623</ele>
        <time>2013-06-05T08:27:22Z</time>
      </trkpt>
      <trkpt lat="42.89433" lon="-0.42973">
        <ele>1012.88623</ele>
        <time>2013-06-05T08:27:35Z</time>
      </trkpt>
      <trkpt lat="42.89441" lon="-0.42975">
        <ele>1012.405518</ele>
        <time>2013-06-05T08:27:48Z</time>
      </trkpt>
      <trkpt lat="42.89429" lon="-0.42982">
        <ele>1013.847412</ele>
        <time>2013-06-05T08:28:03Z</time>
      </trkpt>
      <trkpt lat="42.89439" lon="-0.42985">
        <ele>1014.808838</ele>
        <time>2013-06-05T08:28:18Z</time>
      </trkpt>
      <trkpt lat="42.89463" lon="-0.42991">
        <ele>1015.289551</ele>
        <time>2013-06-05T08:28:38Z</time>
      </trkpt>
      <trkpt lat="42.89492" lon="-0.42996">
        <ele>1014.808838</ele>
        <time>2013-06-05T08:29:01Z</time>
      </trkpt>
      <trkpt lat="42.89522" lon="-0.43002">
        <ele>1015.289551</ele>
        <time>2013-06-05T08:29:26Z</time>
      </trkpt>
      <trkpt lat="42.89532" lon="-0.43009">
        <ele>1014.328125</ele>
        <time>2013-06-05T08:29:38Z</time>
      </trkpt>
      <trkpt lat="42.89544" lon="-0.43027">
        <ele>1012.88623</ele>
        <time>2013-06-05T08:29:54Z</time>
      </trkpt>
      <trkpt lat="42.89553" lon="-0.43046">
        <ele>1010.48291</ele>
        <time>2013-06-05T08:30:11Z</time>
      </trkpt>
      <trkpt lat="42.89564" lon="-0.43071">
        <ele>1008.560303</ele>
        <time>2013-06-05T08:30:30Z</time>
      </trkpt>
      <trkpt lat="42.89573" lon="-0.4309">
        <ele>1006.637695</ele>
        <time>2013-06-05T08:30:47Z</time>
      </trkpt>
      <trkpt lat="42.89574" lon="-0.43094">
        <ele>1006.156982</ele>
        <time>2013-06-05T08:30:57Z</time>
      </trkpt>
      <trkpt lat="42.8958" lon="-0.431">
        <ele>1006.156982</ele>
        <time>2013-06-05T08:31:10Z</time>
      </trkpt>
      <trkpt lat="42.89591" lon="-0.43108">
        <ele>1005.195801</ele>
        <time>2013-06-05T08:31:22Z</time>
      </trkpt>
      <trkpt lat="42.89608" lon="-0.43113">
        <ele>1002.792236</ele>
        <time>2013-06-05T08:31:40Z</time>
      </trkpt>
      <trkpt lat="42.89623" lon="-0.43123">
        <ele>1001.350342</ele>
        <time>2013-06-05T08:31:54Z</time>
      </trkpt>
      <trkpt lat="42.89636" lon="-0.43129">
        <ele>999.908447</ele>
        <time>2013-06-05T08:32:07Z</time>
      </trkpt>
      <trkpt lat="42.89653" lon="-0.43143">
        <ele>998.947021</ele>
        <time>2013-06-05T08:32:24Z</time>
      </trkpt>
      <trkpt lat="42.8966" lon="-0.43147">
        <ele>997.98584</ele>
        <time>2013-06-05T08:32:30Z</time>
      </trkpt>
      <trkpt lat="42.89663" lon="-0.43151">
        <ele>997.505127</ele>
        <time>2013-06-05T08:32:34Z</time>
      </trkpt>
      <trkpt lat="42.8968" lon="-0.43159">
        <ele>995.58252</ele>
        <time>2013-06-05T08:32:52Z</time>
      </trkpt>
      <trkpt lat="42.89689" lon="-0.43164">
        <ele>992.218018</ele>
        <time>2013-06-05T08:33:05Z</time>
      </trkpt>
      <trkpt lat="42.8969" lon="-0.43165">
        <ele>991.737305</ele>
        <time>2013-06-05T08:33:07Z</time>
      </trkpt>
      <trkpt lat="42.89696" lon="-0.43165">
        <ele>990.775879</ele>
        <time>2013-06-05T08:33:20Z</time>
      </trkpt>
      <trkpt lat="42.89694" lon="-0.43163">
        <ele>990.775879</ele>
        <time>2013-06-05T08:33:23Z</time>
      </trkpt>
      <trkpt lat="42.89692" lon="-0.43162">
        <ele>989.814697</ele>
        <time>2013-06-05T08:33:41Z</time>
      </trkpt>
      <trkpt lat="42.89693" lon="-0.43162">
        <ele>992.69873</ele>
        <time>2013-06-05T08:35:04Z</time>
      </trkpt>
      <trkpt lat="42.89692" lon="-0.43163">
        <ele>992.69873</ele>
        <time>2013-06-05T08:36:32Z</time>
      </trkpt>
      <trkpt lat="42.89691" lon="-0.43165">
        <ele>991.256592</ele>
        <time>2013-06-05T08:39:02Z</time>
      </trkpt>
      <trkpt lat="42.89694" lon="-0.43166">
        <ele>991.256592</ele>
        <time>2013-06-05T08:39:07Z</time>
      </trkpt>
      <trkpt lat="42.89709" lon="-0.43176">
        <ele>990.29541</ele>
        <time>2013-06-05T08:39:24Z</time>
      </trkpt>
      <trkpt lat="42.89709" lon="-0.43177">
        <ele>991.737305</ele>
        <time>2013-06-05T08:39:43Z</time>
      </trkpt>
      <trkpt lat="42.8971" lon="-0.43176">
        <ele>990.29541</ele>
        <time>2013-06-05T08:40:04Z</time>
      </trkpt>
      <trkpt lat="42.89711" lon="-0.43176">
        <ele>990.775879</ele>
        <time>2013-06-05T08:40:17Z</time>
      </trkpt>
      <trkpt lat="42.89714" lon="-0.43178">
        <ele>991.256592</ele>
        <time>2013-06-05T08:40:22Z</time>
      </trkpt>
      <trkpt lat="42.89721" lon="-0.43183">
        <ele>990.775879</ele>
        <time>2013-06-05T08:40:34Z</time>
      </trkpt>
      <trkpt lat="42.89722" lon="-0.43184">
        <ele>989.814697</ele>
        <time>2013-06-05T08:40:47Z</time>
      </trkpt>
      <trkpt lat="42.89733" lon="-0.43194">
        <ele>988.372803</ele>
        <time>2013-06-05T08:41:01Z</time>
      </trkpt>
      <trkpt lat="42.89754" lon="-0.43212">
        <ele>986.93042</ele>
        <time>2013-06-05T08:41:22Z</time>
      </trkpt>
      <trkpt lat="42.89774" lon="-0.43232">
        <ele>985.969238</ele>
        <time>2013-06-05T08:41:42Z</time>
      </trkpt>
      <trkpt lat="42.89801" lon="-0.43261">
        <ele>982.604736</ele>
        <time>2013-06-05T08:42:10Z</time>
      </trkpt>
      <trkpt lat="42.89815" lon="-0.43279">
        <ele>981.643311</ele>
        <time>2013-06-05T08:42:33Z</time>
      </trkpt>
      <trkpt lat="42.89814" lon="-0.43281">
        <ele>981.643311</ele>
        <time>2013-06-05T08:43:01Z</time>
      </trkpt>
      <trkpt lat="42.89814" lon="-0.43281">
        <ele>981.162842</ele>
        <time>2013-06-05T08:44:08Z</time>
      </trkpt>
      <trkpt lat="42.8982" lon="-0.43284">
        <ele>980.682129</ele>
        <time>2013-06-05T08:44:25Z</time>
      </trkpt>
      <trkpt lat="42.89842" lon="-0.43299">
        <ele>979.23999</ele>
        <time>2013-06-05T08:44:46Z</time>
      </trkpt>
      <trkpt lat="42.89853" lon="-0.43305">
        <ele>979.23999</ele>
        <time>2013-06-05T08:44:57Z</time>
      </trkpt>
      <trkpt lat="42.89879" lon="-0.43315">
        <ele>978.759521</ele>
        <time>2013-06-05T08:45:20Z</time>
      </trkpt>
      <trkpt lat="42.89887" lon="-0.43317">
        <ele>977.798096</ele>
        <time>2013-06-05T08:45:33Z</time>
      </trkpt>
      <trkpt lat="42.899" lon="-0.4332">
        <ele>977.317627</ele>
        <time>2013-06-05T08:45:49Z</time>
      </trkpt>
      <trkpt lat="42.8991" lon="-0.43315">
        <ele>976.356201</ele>
        <time>2013-06-05T08:46:00Z</time>
      </trkpt>
      <trkpt lat="42.89903" lon="-0.433">
        <ele>976.836914</ele>
        <time>2013-06-05T08:46:16Z</time>
      </trkpt>
      <trkpt lat="42.89902" lon="-0.43299">
        <ele>976.356201</ele>
        <time>2013-06-05T08:46:29Z</time>
      </trkpt>
      <trkpt lat="42.89901" lon="-0.43297">
        <ele>976.836914</ele>
        <time>2013-06-05T08:46:43Z</time>
      </trkpt>
      <trkpt lat="42.89899" lon="-0.43298">
        <ele>976.836914</ele>
        <time>2013-06-05T08:47:21Z</time>
      </trkpt>
      <trkpt lat="42.89899" lon="-0.43298">
        <ele>975.875488</ele>
        <time>2013-06-05T08:47:32Z</time>
      </trkpt>
      <trkpt lat="42.89899" lon="-0.43296">
        <ele>977.798096</ele>
        <time>2013-06-05T08:50:14Z</time>
      </trkpt>
      <trkpt lat="42.89898" lon="-0.43297">
        <ele>977.798096</ele>
        <time>2013-06-05T08:50:38Z</time>
      </trkpt>
      <trkpt lat="42.89897" lon="-0.43294">
        <ele>976.836914</ele>
        <time>2013-06-05T08:50:52Z</time>
      </trkpt>
      <trkpt lat="42.89889" lon="-0.43287">
        <ele>973.472412</ele>
        <time>2013-06-05T08:51:04Z</time>
      </trkpt>
      <trkpt lat="42.89885" lon="-0.43276">
        <ele>970.588135</ele>
        <time>2013-06-05T08:51:17Z</time>
      </trkpt>
      <trkpt lat="42.89888" lon="-0.43271">
        <ele>969.626953</ele>
        <time>2013-06-05T08:51:23Z</time>
      </trkpt>
      <trkpt lat="42.899" lon="-0.43265">
        <ele>967.704102</ele>
        <time>2013-06-05T08:51:38Z</time>
      </trkpt>
      <trkpt lat="42.89906" lon="-0.43262">
        <ele>964.820313</ele>
        <time>2013-06-05T08:51:46Z</time>
      </trkpt>
      <trkpt lat="42.89907" lon="-0.43262">
        <ele>964.820313</ele>
        <time>2013-06-05T08:51:47Z</time>
      </trkpt>
      <trkpt lat="42.89912" lon="-0.43261">
        <ele>961.455811</ele>
        <time>2013-06-05T08:51:59Z</time>
      </trkpt>
      <trkpt lat="42.89922" lon="-0.43261">
        <ele>959.533203</ele>
        <time>2013-06-05T08:52:11Z</time>
      </trkpt>
      <trkpt lat="42.89932" lon="-0.4326">
        <ele>957.610596</ele>
        <time>2013-06-05T08:52:21Z</time>
      </trkpt>
      <trkpt lat="42.8994" lon="-0.43263">
        <ele>955.687744</ele>
        <time>2013-06-05T08:52:31Z</time>
      </trkpt>
      <trkpt lat="42.89949" lon="-0.43271">
        <ele>954.24585</ele>
        <time>2013-06-05T08:52:46Z</time>
      </trkpt>
      <trkpt lat="42.89956" lon="-0.43279">
        <ele>952.803711</ele>
        <time>2013-06-05T08:52:57Z</time>
      </trkpt>
      <trkpt lat="42.89958" lon="-0.43282">
        <ele>951.361816</ele>
        <time>2013-06-05T08:53:01Z</time>
      </trkpt>
      <trkpt lat="42.89964" lon="-0.43284">
        <ele>951.361816</ele>
        <time>2013-06-05T08:53:16Z</time>
      </trkpt>
      <trkpt lat="42.89964" lon="-0.43286">
        <ele>950.881104</ele>
        <time>2013-06-05T08:53:21Z</time>
      </trkpt>
      <trkpt lat="42.89973" lon="-0.4329">
        <ele>951.842529</ele>
        <time>2013-06-05T08:53:33Z</time>
      </trkpt>
      <trkpt lat="42.89975" lon="-0.43291">
        <ele>951.842529</ele>
        <time>2013-06-05T08:53:48Z</time>
      </trkpt>
      <trkpt lat="42.89976" lon="-0.43295">
        <ele>952.322998</ele>
        <time>2013-06-05T08:54:10Z</time>
      </trkpt>
      <trkpt lat="42.8998" lon="-0.43291">
        <ele>952.322998</ele>
        <time>2013-06-05T08:55:06Z</time>
      </trkpt>
      <trkpt lat="42.89977" lon="-0.43295">
        <ele>951.842529</ele>
        <time>2013-06-05T08:55:23Z</time>
      </trkpt>
      <trkpt lat="42.89976" lon="-0.43298">
        <ele>952.803711</ele>
        <time>2013-06-05T08:55:45Z</time>
      </trkpt>
      <trkpt lat="42.89975" lon="-0.43295">
        <ele>951.842529</ele>
        <time>2013-06-05T08:56:25Z</time>
      </trkpt>
      <trkpt lat="42.89973" lon="-0.4329">
        <ele>951.842529</ele>
        <time>2013-06-05T08:57:18Z</time>
      </trkpt>
      <trkpt lat="42.89976" lon="-0.43288">
        <ele>950.881104</ele>
        <time>2013-06-05T08:57:31Z</time>
      </trkpt>
      <trkpt lat="42.89985" lon="-0.43289">
        <ele>949.439209</ele>
        <time>2013-06-05T08:57:46Z</time>
      </trkpt>
      <trkpt lat="42.89994" lon="-0.4329">
        <ele>947.997314</ele>
        <time>2013-06-05T08:58:01Z</time>
      </trkpt>
      <trkpt lat="42.90003" lon="-0.43288">
        <ele>945.113281</ele>
        <time>2013-06-05T08:58:13Z</time>
      </trkpt>
      <trkpt lat="42.90013" lon="-0.43287">
        <ele>945.593994</ele>
        <time>2013-06-05T08:58:26Z</time>
      </trkpt>
      <trkpt lat="42.90031" lon="-0.43285">
        <ele>945.593994</ele>
        <time>2013-06-05T08:58:42Z</time>
      </trkpt>
      <trkpt lat="42.90032" lon="-0.43285">
        <ele>945.113281</ele>
        <time>2013-06-05T08:58:43Z</time>
      </trkpt>
      <trkpt lat="42.90042" lon="-0.43275">
        <ele>944.1521</ele>
        <time>2013-06-05T08:58:56Z</time>
      </trkpt>
      <trkpt lat="42.90056" lon="-0.43258">
        <ele>942.229492</ele>
        <time>2013-06-05T08:59:14Z</time>
      </trkpt>
      <trkpt lat="42.90064" lon="-0.43251">
        <ele>941.268066</ele>
        <time>2013-06-05T08:59:25Z</time>
      </trkpt>
      <trkpt lat="42.90071" lon="-0.43233">
        <ele>940.306885</ele>
        <time>2013-06-05T08:59:38Z</time>
      </trkpt>
      <trkpt lat="42.9008" lon="-0.43209">
        <ele>938.864746</ele>
        <time>2013-06-05T08:59:54Z</time>
      </trkpt>
      <trkpt lat="42.90086" lon="-0.43203">
        <ele>938.384033</ele>
        <time>2013-06-05T09:00:05Z</time>
      </trkpt>
      <trkpt lat="42.90092" lon="-0.43192">
        <ele>937.422607</ele>
        <time>2013-06-05T09:00:15Z</time>
      </trkpt>
      <trkpt lat="42.901" lon="-0.43187">
        <ele>936.461426</ele>
        <time>2013-06-05T09:00:25Z</time>
      </trkpt>
      <trkpt lat="42.9011" lon="-0.43172">
        <ele>935.5</ele>
        <time>2013-06-05T09:00:46Z</time>
      </trkpt>
      <trkpt lat="42.90116" lon="-0.43182">
        <ele>937.90332</ele>
        <time>2013-06-05T09:01:31Z</time>
      </trkpt>
      <trkpt lat="42.90117" lon="-0.43184">
        <ele>938.864746</ele>
        <time>2013-06-05T09:01:41Z</time>
      </trkpt>
      <trkpt lat="42.90115" lon="-0.43187">
        <ele>939.345215</ele>
        <time>2013-06-05T09:01:44Z</time>
      </trkpt>
      <trkpt lat="42.90097" lon="-0.43206">
        <ele>941.748779</ele>
        <time>2013-06-05T09:02:02Z</time>
      </trkpt>
      <trkpt lat="42.90091" lon="-0.43216">
        <ele>942.229492</ele>
        <time>2013-06-05T09:02:11Z</time>
      </trkpt>
      <trkpt lat="42.90087" lon="-0.43222">
        <ele>943.190674</ele>
        <time>2013-06-05T09:02:36Z</time>
      </trkpt>
      <trkpt lat="42.90087" lon="-0.43225">
        <ele>942.710205</ele>
        <time>2013-06-05T09:03:30Z</time>
      </trkpt>
      <trkpt lat="42.9008" lon="-0.43214">
        <ele>943.671387</ele>
        <time>2013-06-05T09:04:25Z</time>
      </trkpt>
      <trkpt lat="42.90083" lon="-0.43209">
        <ele>942.229492</ele>
        <time>2013-06-05T09:04:46Z</time>
      </trkpt>
      <trkpt lat="42.90084" lon="-0.43206">
        <ele>942.710205</ele>
        <time>2013-06-05T09:04:49Z</time>
      </trkpt>
      <trkpt lat="42.90093" lon="-0.43195">
        <ele>941.748779</ele>
        <time>2013-06-05T09:05:01Z</time>
      </trkpt>
      <trkpt lat="42.90101" lon="-0.43192">
        <ele>940.787354</ele>
        <time>2013-06-05T09:05:10Z</time>
      </trkpt>
      <trkpt lat="42.90108" lon="-0.43185">
        <ele>939.345215</ele>
        <time>2013-06-05T09:05:19Z</time>
      </trkpt>
      <trkpt lat="42.90113" lon="-0.43181">
        <ele>941.748779</ele>
        <time>2013-06-05T09:05:49Z</time>
      </trkpt>
      <trkpt lat="42.90114" lon="-0.43174">
        <ele>945.113281</ele>
        <time>2013-06-05T09:06:00Z</time>
      </trkpt>
      <trkpt lat="42.90109" lon="-0.43169">
        <ele>947.035889</ele>
        <time>2013-06-05T09:06:15Z</time>
      </trkpt>
      <trkpt lat="42.90119" lon="-0.4317">
        <ele>948.477783</ele>
        <time>2013-06-05T09:06:39Z</time>
      </trkpt>
      <trkpt lat="42.90126" lon="-0.43171">
        <ele>950.400635</ele>
        <time>2013-06-05T09:06:55Z</time>
      </trkpt>
      <trkpt lat="42.9013" lon="-0.43157">
        <ele>950.881104</ele>
        <time>2013-06-05T09:07:10Z</time>
      </trkpt>
      <trkpt lat="42.90133" lon="-0.4314">
        <ele>951.842529</ele>
        <time>2013-06-05T09:07:25Z</time>
      </trkpt>
      <trkpt lat="42.9014" lon="-0.43129">
        <ele>953.765137</ele>
        <time>2013-06-05T09:07:38Z</time>
      </trkpt>
      <trkpt lat="42.90146" lon="-0.43117">
        <ele>954.24585</ele>
        <time>2013-06-05T09:07:51Z</time>
      </trkpt>
      <trkpt lat="42.90149" lon="-0.43111">
        <ele>954.24585</ele>
        <time>2013-06-05T09:08:05Z</time>
      </trkpt>
      <trkpt lat="42.90148" lon="-0.43109">
        <ele>955.687744</ele>
        <time>2013-06-05T09:08:19Z</time>
      </trkpt>
      <trkpt lat="42.90144" lon="-0.43113">
        <ele>958.571777</ele>
        <time>2013-06-05T09:08:29Z</time>
      </trkpt>
      <trkpt lat="42.90143" lon="-0.43111">
        <ele>960.013672</ele>
        <time>2013-06-05T09:08:45Z</time>
      </trkpt>
      <trkpt lat="42.90147" lon="-0.4311">
        <ele>961.936523</ele>
        <time>2013-06-05T09:08:58Z</time>
      </trkpt>
      <trkpt lat="42.90155" lon="-0.43105">
        <ele>964.820313</ele>
        <time>2013-06-05T09:09:12Z</time>
      </trkpt>
      <trkpt lat="42.90159" lon="-0.43092">
        <ele>967.704102</ele>
        <time>2013-06-05T09:09:27Z</time>
      </trkpt>
      <trkpt lat="42.90163" lon="-0.4308">
        <ele>969.14624</ele>
        <time>2013-06-05T09:09:40Z</time>
      </trkpt>
      <trkpt lat="42.90169" lon="-0.43068">
        <ele>970.588135</ele>
        <time>2013-06-05T09:09:55Z</time>
      </trkpt>
      <trkpt lat="42.90174" lon="-0.43061">
        <ele>971.068848</ele>
        <time>2013-06-05T09:10:08Z</time>
      </trkpt>
      <trkpt lat="42.90174" lon="-0.43056">
        <ele>971.549316</ele>
        <time>2013-06-05T09:10:26Z</time>
      </trkpt>
      <trkpt lat="42.90169" lon="-0.43054">
        <ele>971.068848</ele>
        <time>2013-06-05T09:10:45Z</time>
      </trkpt>
      <trkpt lat="42.9017" lon="-0.43055">
        <ele>971.549316</ele>
        <time>2013-06-05T09:11:09Z</time>
      </trkpt>
      <trkpt lat="42.90174" lon="-0.43058">
        <ele>970.107422</ele>
        <time>2013-06-05T09:11:32Z</time>
      </trkpt>
      <trkpt lat="42.90167" lon="-0.43051">
        <ele>971.549316</ele>
        <time>2013-06-05T09:12:12Z</time>
      </trkpt>
      <trkpt lat="42.90167" lon="-0.4306">
        <ele>972.510986</ele>
        <time>2013-06-05T09:12:28Z</time>
      </trkpt>
      <trkpt lat="42.90165" lon="-0.43063">
        <ele>971.549316</ele>
        <time>2013-06-05T09:12:46Z</time>
      </trkpt>
      <trkpt lat="42.90167" lon="-0.43065">
        <ele>972.030273</ele>
        <time>2013-06-05T09:12:56Z</time>
      </trkpt>
      <trkpt lat="42.90171" lon="-0.4305">
        <ele>972.510986</ele>
        <time>2013-06-05T09:13:13Z</time>
      </trkpt>
      <trkpt lat="42.90173" lon="-0.43049">
        <ele>972.510986</ele>
        <time>2013-06-05T09:13:17Z</time>
      </trkpt>
      <trkpt lat="42.90186" lon="-0.43036">
        <ele>972.510986</ele>
        <time>2013-06-05T09:13:30Z</time>
      </trkpt>
      <trkpt lat="42.90197" lon="-0.43029">
        <ele>972.510986</ele>
        <time>2013-06-05T09:13:43Z</time>
      </trkpt>
      <trkpt lat="42.90206" lon="-0.43025">
        <ele>972.030273</ele>
        <time>2013-06-05T09:13:56Z</time>
      </trkpt>
      <trkpt lat="42.90214" lon="-0.43019">
        <ele>971.549316</ele>
        <time>2013-06-05T09:14:09Z</time>
      </trkpt>
      <trkpt lat="42.90222" lon="-0.43013">
        <ele>971.549316</ele>
        <time>2013-06-05T09:14:22Z</time>
      </trkpt>
      <trkpt lat="42.9023" lon="-0.43006">
        <ele>971.549316</ele>
        <time>2013-06-05T09:14:36Z</time>
      </trkpt>
      <trkpt lat="42.90233" lon="-0.43001">
        <ele>972.991699</ele>
        <time>2013-06-05T09:14:42Z</time>
      </trkpt>
      <trkpt lat="42.90238" lon="-0.42994">
        <ele>975.875488</ele>
        <time>2013-06-05T09:14:56Z</time>
      </trkpt>
      <trkpt lat="42.90244" lon="-0.42989">
        <ele>976.356201</ele>
        <time>2013-06-05T09:15:09Z</time>
      </trkpt>
      <trkpt lat="42.90245" lon="-0.4298">
        <ele>978.278809</ele>
        <time>2013-06-05T09:15:22Z</time>
      </trkpt>
      <trkpt lat="42.90247" lon="-0.42968">
        <ele>979.23999</ele>
        <time>2013-06-05T09:16:08Z</time>
      </trkpt>
      <trkpt lat="42.90252" lon="-0.42961">
        <ele>978.759521</ele>
        <time>2013-06-05T09:16:21Z</time>
      </trkpt>
      <trkpt lat="42.90263" lon="-0.42959">
        <ele>979.720703</ele>
        <time>2013-06-05T09:16:37Z</time>
      </trkpt>
      <trkpt lat="42.90265" lon="-0.42951">
        <ele>983.085205</ele>
        <time>2013-06-05T09:16:50Z</time>
      </trkpt>
      <trkpt lat="42.90269" lon="-0.42939">
        <ele>985.488525</ele>
        <time>2013-06-05T09:17:03Z</time>
      </trkpt>
      <trkpt lat="42.90275" lon="-0.42932">
        <ele>985.969238</ele>
        <time>2013-06-05T09:17:14Z</time>
      </trkpt>
      <trkpt lat="42.90283" lon="-0.42924">
        <ele>986.449951</ele>
        <time>2013-06-05T09:17:27Z</time>
      </trkpt>
      <trkpt lat="42.90289" lon="-0.42918">
        <ele>988.372803</ele>
        <time>2013-06-05T09:17:40Z</time>
      </trkpt>
      <trkpt lat="42.90292" lon="-0.42907">
        <ele>988.853516</ele>
        <time>2013-06-05T09:17:57Z</time>
      </trkpt>
      <trkpt lat="42.90293" lon="-0.42905">
        <ele>988.372803</ele>
        <time>2013-06-05T09:18:19Z</time>
      </trkpt>
      <trkpt lat="42.90295" lon="-0.42906">
        <ele>989.333984</ele>
        <time>2013-06-05T09:19:30Z</time>
      </trkpt>
      <trkpt lat="42.90296" lon="-0.42905">
        <ele>989.814697</ele>
        <time>2013-06-05T09:20:10Z</time>
      </trkpt>
      <trkpt lat="42.90305" lon="-0.42899">
        <ele>991.737305</ele>
        <time>2013-06-05T09:20:25Z</time>
      </trkpt>
      <trkpt lat="42.90317" lon="-0.42907">
        <ele>993.179199</ele>
        <time>2013-06-05T09:20:41Z</time>
      </trkpt>
      <trkpt lat="42.90326" lon="-0.42909">
        <ele>994.621094</ele>
        <time>2013-06-05T09:20:52Z</time>
      </trkpt>
      <trkpt lat="42.90329" lon="-0.42906">
        <ele>996.063232</ele>
        <time>2013-06-05T09:20:57Z</time>
      </trkpt>
      <trkpt lat="42.90344" lon="-0.42906">
        <ele>997.505127</ele>
        <time>2013-06-05T09:21:13Z</time>
      </trkpt>
      <trkpt lat="42.90353" lon="-0.42907">
        <ele>996.543945</ele>
        <time>2013-06-05T09:21:25Z</time>
      </trkpt>
      <trkpt lat="42.90365" lon="-0.42908">
        <ele>994.621094</ele>
        <time>2013-06-05T09:21:40Z</time>
      </trkpt>
      <trkpt lat="42.90374" lon="-0.42909">
        <ele>992.69873</ele>
        <time>2013-06-05T09:21:52Z</time>
      </trkpt>
      <trkpt lat="42.90376" lon="-0.42909">
        <ele>991.737305</ele>
        <time>2013-06-05T09:21:55Z</time>
      </trkpt>
      <trkpt lat="42.90387" lon="-0.42907">
        <ele>990.29541</ele>
        <time>2013-06-05T09:22:08Z</time>
      </trkpt>
      <trkpt lat="42.90398" lon="-0.42907">
        <ele>989.333984</ele>
        <time>2013-06-05T09:22:23Z</time>
      </trkpt>
      <trkpt lat="42.90405" lon="-0.42908">
        <ele>987.411133</ele>
        <time>2013-06-05T09:22:37Z</time>
      </trkpt>
      <trkpt lat="42.90406" lon="-0.42904">
        <ele>986.449951</ele>
        <time>2013-06-05T09:22:49Z</time>
      </trkpt>
      <trkpt lat="42.90406" lon="-0.42903">
        <ele>985.488525</ele>
        <time>2013-06-05T09:23:04Z</time>
      </trkpt>
      <trkpt lat="42.90411" lon="-0.42904">
        <ele>984.527344</ele>
        <time>2013-06-05T09:23:18Z</time>
      </trkpt>
      <trkpt lat="42.90414" lon="-0.42906">
        <ele>983.085205</ele>
        <time>2013-06-05T09:23:28Z</time>
      </trkpt>
      <trkpt lat="42.90416" lon="-0.42905">
        <ele>981.643311</ele>
        <time>2013-06-05T09:23:37Z</time>
      </trkpt>
      <trkpt lat="42.9042" lon="-0.42906">
        <ele>980.201416</ele>
        <time>2013-06-05T09:23:51Z</time>
      </trkpt>
      <trkpt lat="42.90424" lon="-0.42907">
        <ele>979.23999</ele>
        <time>2013-06-05T09:24:03Z</time>
      </trkpt>
      <trkpt lat="42.90427" lon="-0.42904">
        <ele>978.278809</ele>
        <time>2013-06-05T09:24:15Z</time>
      </trkpt>
      <trkpt lat="42.9043" lon="-0.42901">
        <ele>978.759521</ele>
        <time>2013-06-05T09:24:28Z</time>
      </trkpt>
      <trkpt lat="42.90429" lon="-0.42902">
        <ele>979.23999</ele>
        <time>2013-06-05T09:25:10Z</time>
      </trkpt>
      <trkpt lat="42.90429" lon="-0.4291">
        <ele>979.720703</ele>
        <time>2013-06-05T09:25:49Z</time>
      </trkpt>
      <trkpt lat="42.9043" lon="-0.42912">
        <ele>979.720703</ele>
        <time>2013-06-05T09:26:58Z</time>
      </trkpt>
      <trkpt lat="42.9043" lon="-0.42913">
        <ele>980.201416</ele>
        <time>2013-06-05T09:27:33Z</time>
      </trkpt>
      <trkpt lat="42.90434" lon="-0.42913">
        <ele>979.720703</ele>
        <time>2013-06-05T09:28:02Z</time>
      </trkpt>
      <trkpt lat="42.90444" lon="-0.42904">
        <ele>981.643311</ele>
        <time>2013-06-05T09:28:14Z</time>
      </trkpt>
      <trkpt lat="42.90453" lon="-0.42895">
        <ele>983.085205</ele>
        <time>2013-06-05T09:28:27Z</time>
      </trkpt>
      <trkpt lat="42.90463" lon="-0.42887">
        <ele>984.527344</ele>
        <time>2013-06-05T09:28:38Z</time>
      </trkpt>
      <trkpt lat="42.90475" lon="-0.42882">
        <ele>987.411133</ele>
        <time>2013-06-05T09:28:53Z</time>
      </trkpt>
      <trkpt lat="42.90486" lon="-0.42874">
        <ele>986.93042</ele>
        <time>2013-06-05T09:29:06Z</time>
      </trkpt>
      <trkpt lat="42.90491" lon="-0.42873">
        <ele>987.411133</ele>
        <time>2013-06-05T09:29:17Z</time>
      </trkpt>
      <trkpt lat="42.90497" lon="-0.42872">
        <ele>987.411133</ele>
        <time>2013-06-05T09:29:39Z</time>
      </trkpt>
      <trkpt lat="42.90501" lon="-0.42863">
        <ele>987.891846</ele>
        <time>2013-06-05T09:30:01Z</time>
      </trkpt>
      <trkpt lat="42.9051" lon="-0.42864">
        <ele>988.372803</ele>
        <time>2013-06-05T09:30:14Z</time>
      </trkpt>
      <trkpt lat="42.90519" lon="-0.42862">
        <ele>986.93042</ele>
        <time>2013-06-05T09:30:24Z</time>
      </trkpt>
      <trkpt lat="42.90528" lon="-0.42861">
        <ele>989.333984</ele>
        <time>2013-06-05T09:30:39Z</time>
      </trkpt>
      <trkpt lat="42.90531" lon="-0.42863">
        <ele>988.853516</ele>
        <time>2013-06-05T09:30:45Z</time>
      </trkpt>
      <trkpt lat="42.90538" lon="-0.42865">
        <ele>987.411133</ele>
        <time>2013-06-05T09:30:54Z</time>
      </trkpt>
      <trkpt lat="42.90546" lon="-0.42864">
        <ele>985.008057</ele>
        <time>2013-06-05T09:31:04Z</time>
      </trkpt>
      <trkpt lat="42.90557" lon="-0.42868">
        <ele>985.488525</ele>
        <time>2013-06-05T09:31:14Z</time>
      </trkpt>
      <trkpt lat="42.90565" lon="-0.4287">
        <ele>987.891846</ele>
        <time>2013-06-05T09:31:24Z</time>
      </trkpt>
      <trkpt lat="42.90581" lon="-0.4287">
        <ele>987.891846</ele>
        <time>2013-06-05T09:31:48Z</time>
      </trkpt>
      <trkpt lat="42.90594" lon="-0.42868">
        <ele>989.333984</ele>
        <time>2013-06-05T09:32:02Z</time>
      </trkpt>
      <trkpt lat="42.90598" lon="-0.42869">
        <ele>988.372803</ele>
        <time>2013-06-05T09:32:07Z</time>
      </trkpt>
      <trkpt lat="42.90604" lon="-0.42873">
        <ele>987.411133</ele>
        <time>2013-06-05T09:34:09Z</time>
      </trkpt>
      <trkpt lat="42.90606" lon="-0.42877">
        <ele>985.488525</ele>
        <time>2013-06-05T09:34:23Z</time>
      </trkpt>
      <trkpt lat="42.90614" lon="-0.42883">
        <ele>984.046631</ele>
        <time>2013-06-05T09:34:36Z</time>
      </trkpt>
      <trkpt lat="42.9063" lon="-0.42871">
        <ele>985.488525</ele>
        <time>2013-06-05T09:34:50Z</time>
      </trkpt>
      <trkpt lat="42.9064" lon="-0.42868">
        <ele>985.008057</ele>
        <time>2013-06-05T09:35:02Z</time>
      </trkpt>
      <trkpt lat="42.90648" lon="-0.42871">
        <ele>986.449951</ele>
        <time>2013-06-05T09:35:12Z</time>
      </trkpt>
      <trkpt lat="42.90657" lon="-0.42871">
        <ele>988.372803</ele>
        <time>2013-06-05T09:35:22Z</time>
      </trkpt>
      <trkpt lat="42.90667" lon="-0.42866">
        <ele>988.853516</ele>
        <time>2013-06-05T09:35:32Z</time>
      </trkpt>
      <trkpt lat="42.90678" lon="-0.42867">
        <ele>987.891846</ele>
        <time>2013-06-05T09:35:44Z</time>
      </trkpt>
      <trkpt lat="42.90686" lon="-0.42869">
        <ele>985.488525</ele>
        <time>2013-06-05T09:35:54Z</time>
      </trkpt>
      <trkpt lat="42.9069" lon="-0.42868">
        <ele>986.449951</ele>
        <time>2013-06-05T09:35:58Z</time>
      </trkpt>
      <trkpt lat="42.90703" lon="-0.42861">
        <ele>986.449951</ele>
        <time>2013-06-05T09:36:13Z</time>
      </trkpt>
      <trkpt lat="42.90708" lon="-0.42858">
        <ele>985.488525</ele>
        <time>2013-06-05T09:36:18Z</time>
      </trkpt>
      <trkpt lat="42.90719" lon="-0.42851">
        <ele>984.527344</ele>
        <time>2013-06-05T09:36:32Z</time>
      </trkpt>
      <trkpt lat="42.90728" lon="-0.42854">
        <ele>981.162842</ele>
        <time>2013-06-05T09:36:45Z</time>
      </trkpt>
      <trkpt lat="42.90738" lon="-0.42853">
        <ele>980.201416</ele>
        <time>2013-06-05T09:36:56Z</time>
      </trkpt>
      <trkpt lat="42.90749" lon="-0.4285">
        <ele>977.317627</ele>
        <time>2013-06-05T09:37:10Z</time>
      </trkpt>
      <trkpt lat="42.90757" lon="-0.42848">
        <ele>976.356201</ele>
        <time>2013-06-05T09:37:21Z</time>
      </trkpt>
      <trkpt lat="42.90766" lon="-0.42846">
        <ele>972.991699</ele>
        <time>2013-06-05T09:37:32Z</time>
      </trkpt>
      <trkpt lat="42.90774" lon="-0.42844">
        <ele>971.549316</ele>
        <time>2013-06-05T09:37:43Z</time>
      </trkpt>
      <trkpt lat="42.90779" lon="-0.42843">
        <ele>971.068848</ele>
        <time>2013-06-05T09:37:56Z</time>
      </trkpt>
      <trkpt lat="42.90784" lon="-0.42835">
        <ele>969.626953</ele>
        <time>2013-06-05T09:38:18Z</time>
      </trkpt>
      <trkpt lat="42.90793" lon="-0.42834">
        <ele>968.665527</ele>
        <time>2013-06-05T09:38:28Z</time>
      </trkpt>
      <trkpt lat="42.90807" lon="-0.42833">
        <ele>971.068848</ele>
        <time>2013-06-05T09:38:44Z</time>
      </trkpt>
      <trkpt lat="42.90813" lon="-0.42832">
        <ele>970.107422</ele>
        <time>2013-06-05T09:38:56Z</time>
      </trkpt>
      <trkpt lat="42.90824" lon="-0.42831">
        <ele>970.107422</ele>
        <time>2013-06-05T09:39:07Z</time>
      </trkpt>
      <trkpt lat="42.90834" lon="-0.42831">
        <ele>970.588135</ele>
        <time>2013-06-05T09:39:18Z</time>
      </trkpt>
      <trkpt lat="42.90848" lon="-0.42828">
        <ele>971.068848</ele>
        <time>2013-06-05T09:39:34Z</time>
      </trkpt>
      <trkpt lat="42.90857" lon="-0.42835">
        <ele>971.549316</ele>
        <time>2013-06-05T09:39:46Z</time>
      </trkpt>
      <trkpt lat="42.90869" lon="-0.42843">
        <ele>970.107422</ele>
        <time>2013-06-05T09:39:58Z</time>
      </trkpt>
      <trkpt lat="42.9088" lon="-0.42848">
        <ele>970.107422</ele>
        <time>2013-06-05T09:40:08Z</time>
      </trkpt>
      <trkpt lat="42.90893" lon="-0.42853">
        <ele>969.626953</ele>
        <time>2013-06-05T09:40:20Z</time>
      </trkpt>
      <trkpt lat="42.90903" lon="-0.42862">
        <ele>970.107422</ele>
        <time>2013-06-05T09:40:33Z</time>
      </trkpt>
      <trkpt lat="42.90916" lon="-0.42874">
        <ele>971.549316</ele>
        <time>2013-06-05T09:40:46Z</time>
      </trkpt>
      <trkpt lat="42.90927" lon="-0.42889">
        <ele>972.030273</ele>
        <time>2013-06-05T09:40:58Z</time>
      </trkpt>
      <trkpt lat="42.90933" lon="-0.42896">
        <ele>971.068848</ele>
        <time>2013-06-05T09:41:08Z</time>
      </trkpt>
      <trkpt lat="42.90938" lon="-0.429">
        <ele>970.107422</ele>
        <time>2013-06-05T09:41:21Z</time>
      </trkpt>
      <trkpt lat="42.90938" lon="-0.42897">
        <ele>971.549316</ele>
        <time>2013-06-05T09:41:25Z</time>
      </trkpt>
      <trkpt lat="42.90935" lon="-0.429">
        <ele>971.549316</ele>
        <time>2013-06-05T09:41:45Z</time>
      </trkpt>
      <trkpt lat="42.90935" lon="-0.42901">
        <ele>971.068848</ele>
        <time>2013-06-05T09:42:17Z</time>
      </trkpt>
      <trkpt lat="42.90938" lon="-0.42897">
        <ele>972.030273</ele>
        <time>2013-06-05T09:43:40Z</time>
      </trkpt>
      <trkpt lat="42.90943" lon="-0.42892">
        <ele>971.068848</ele>
        <time>2013-06-05T09:44:11Z</time>
      </trkpt>
      <trkpt lat="42.90936" lon="-0.42904">
        <ele>970.588135</ele>
        <time>2013-06-05T09:45:02Z</time>
      </trkpt>
      <trkpt lat="42.90943" lon="-0.42897">
        <ele>971.068848</ele>
        <time>2013-06-05T09:45:27Z</time>
      </trkpt>
      <trkpt lat="42.90946" lon="-0.42895">
        <ele>971.068848</ele>
        <time>2013-06-05T09:45:56Z</time>
      </trkpt>
      <trkpt lat="42.90936" lon="-0.429">
        <ele>970.107422</ele>
        <time>2013-06-05T09:46:17Z</time>
      </trkpt>
      <trkpt lat="42.90936" lon="-0.42901">
        <ele>970.107422</ele>
        <time>2013-06-05T09:46:32Z</time>
      </trkpt>
      <trkpt lat="42.90943" lon="-0.42902">
        <ele>969.626953</ele>
        <time>2013-06-05T09:46:43Z</time>
      </trkpt>
      <trkpt lat="42.90945" lon="-0.42905">
        <ele>966.262207</ele>
        <time>2013-06-05T09:46:55Z</time>
      </trkpt>
      <trkpt lat="42.90944" lon="-0.42912">
        <ele>964.820313</ele>
        <time>2013-06-05T09:47:08Z</time>
      </trkpt>
      <trkpt lat="42.9094" lon="-0.4292">
        <ele>961.936523</ele>
        <time>2013-06-05T09:47:23Z</time>
      </trkpt>
      <trkpt lat="42.90939" lon="-0.42928">
        <ele>960.013672</ele>
        <time>2013-06-05T09:47:39Z</time>
      </trkpt>
      <trkpt lat="42.90934" lon="-0.42934">
        <ele>958.571777</ele>
        <time>2013-06-05T09:47:52Z</time>
      </trkpt>
      <trkpt lat="42.90932" lon="-0.42935">
        <ele>957.129883</ele>
        <time>2013-06-05T09:47:58Z</time>
      </trkpt>
      <trkpt lat="42.90932" lon="-0.42938">
        <ele>957.129883</ele>
        <time>2013-06-05T09:48:02Z</time>
      </trkpt>
      <trkpt lat="42.90929" lon="-0.42949">
        <ele>954.24585</ele>
        <time>2013-06-05T09:48:16Z</time>
      </trkpt>
      <trkpt lat="42.9093" lon="-0.42947">
        <ele>954.24585</ele>
        <time>2013-06-05T09:48:34Z</time>
      </trkpt>
      <trkpt lat="42.9093" lon="-0.42948">
        <ele>954.726318</ele>
        <time>2013-06-05T09:48:55Z</time>
      </trkpt>
      <trkpt lat="42.9093" lon="-0.42958">
        <ele>954.726318</ele>
        <time>2013-06-05T09:49:31Z</time>
      </trkpt>
      <trkpt lat="42.90929" lon="-0.42951">
        <ele>954.24585</ele>
        <time>2013-06-05T09:50:13Z</time>
      </trkpt>
      <trkpt lat="42.90926" lon="-0.42952">
        <ele>953.284424</ele>
        <time>2013-06-05T09:51:12Z</time>
      </trkpt>
      <trkpt lat="42.90925" lon="-0.4297">
        <ele>951.842529</ele>
        <time>2013-06-05T09:51:32Z</time>
      </trkpt>
      <trkpt lat="42.90922" lon="-0.42989">
        <ele>950.881104</ele>
        <time>2013-06-05T09:51:49Z</time>
      </trkpt>
      <trkpt lat="42.90929" lon="-0.42982">
        <ele>951.842529</ele>
        <time>2013-06-05T09:52:03Z</time>
      </trkpt>
      <trkpt lat="42.90929" lon="-0.42982">
        <ele>950.400635</ele>
        <time>2013-06-05T09:52:20Z</time>
      </trkpt>
      <trkpt lat="42.9093" lon="-0.42977">
        <ele>950.400635</ele>
        <time>2013-06-05T09:52:37Z</time>
      </trkpt>
      <trkpt lat="42.9093" lon="-0.42979">
        <ele>949.919922</ele>
        <time>2013-06-05T09:53:11Z</time>
      </trkpt>
      <trkpt lat="42.90923" lon="-0.42983">
        <ele>949.919922</ele>
        <time>2013-06-05T09:54:45Z</time>
      </trkpt>
      <trkpt lat="42.90923" lon="-0.42984">
        <ele>949.439209</ele>
        <time>2013-06-05T09:54:47Z</time>
      </trkpt>
      <trkpt lat="42.90921" lon="-0.4299">
        <ele>949.919922</ele>
        <time>2013-06-05T09:55:00Z</time>
      </trkpt>
      <trkpt lat="42.90928" lon="-0.42996">
        <ele>948.958496</ele>
        <time>2013-06-05T09:55:20Z</time>
      </trkpt>
      <trkpt lat="42.90932" lon="-0.43006">
        <ele>947.997314</ele>
        <time>2013-06-05T09:55:38Z</time>
      </trkpt>
      <trkpt lat="42.90936" lon="-0.43011">
        <ele>946.074707</ele>
        <time>2013-06-05T09:55:52Z</time>
      </trkpt>
      <trkpt lat="42.90934" lon="-0.43008">
        <ele>946.074707</ele>
        <time>2013-06-05T09:56:22Z</time>
      </trkpt>
      <trkpt lat="42.90935" lon="-0.4301">
        <ele>946.074707</ele>
        <time>2013-06-05T09:57:09Z</time>
      </trkpt>
      <trkpt lat="42.90937" lon="-0.4301">
        <ele>945.593994</ele>
        <time>2013-06-05T09:58:03Z</time>
      </trkpt>
      <trkpt lat="42.90934" lon="-0.43016">
        <ele>944.1521</ele>
        <time>2013-06-05T09:58:19Z</time>
      </trkpt>
      <trkpt lat="42.90935" lon="-0.43019">
        <ele>943.671387</ele>
        <time>2013-06-05T09:58:33Z</time>
      </trkpt>
      <trkpt lat="42.90935" lon="-0.43022">
        <ele>943.190674</ele>
        <time>2013-06-05T09:58:52Z</time>
      </trkpt>
      <trkpt lat="42.90932" lon="-0.43027">
        <ele>943.190674</ele>
        <time>2013-06-05T09:59:12Z</time>
      </trkpt>
      <trkpt lat="42.9093" lon="-0.43029">
        <ele>943.190674</ele>
        <time>2013-06-05T09:59:23Z</time>
      </trkpt>
      <trkpt lat="42.90931" lon="-0.43024">
        <ele>943.190674</ele>
        <time>2013-06-05T09:59:41Z</time>
      </trkpt>
      <trkpt lat="42.90932" lon="-0.43021">
        <ele>943.671387</ele>
        <time>2013-06-05T10:00:06Z</time>
      </trkpt>
      <trkpt lat="42.9093" lon="-0.43024">
        <ele>943.671387</ele>
        <time>2013-06-05T10:00:23Z</time>
      </trkpt>
      <trkpt lat="42.90925" lon="-0.43031">
        <ele>944.1521</ele>
        <time>2013-06-05T10:00:53Z</time>
      </trkpt>
      <trkpt lat="42.90924" lon="-0.4303">
        <ele>944.1521</ele>
        <time>2013-06-05T10:01:37Z</time>
      </trkpt>
      <trkpt lat="42.90931" lon="-0.43025">
        <ele>944.632568</ele>
        <time>2013-06-05T10:02:18Z</time>
      </trkpt>
      <trkpt lat="42.90932" lon="-0.4302">
        <ele>944.632568</ele>
        <time>2013-06-05T10:02:47Z</time>
      </trkpt>
      <trkpt lat="42.90934" lon="-0.43013">
        <ele>944.1521</ele>
        <time>2013-06-05T10:03:03Z</time>
      </trkpt>
      <trkpt lat="42.90937" lon="-0.43018">
        <ele>944.1521</ele>
        <time>2013-06-05T10:03:19Z</time>
      </trkpt>
      <trkpt lat="42.9094" lon="-0.43017">
        <ele>943.671387</ele>
        <time>2013-06-05T10:03:33Z</time>
      </trkpt>
      <trkpt lat="42.90938" lon="-0.43023">
        <ele>942.229492</ele>
        <time>2013-06-05T10:03:45Z</time>
      </trkpt>
      <trkpt lat="42.90936" lon="-0.43031">
        <ele>940.787354</ele>
        <time>2013-06-05T10:03:59Z</time>
      </trkpt>
      <trkpt lat="42.90939" lon="-0.43036">
        <ele>939.825928</ele>
        <time>2013-06-05T10:04:17Z</time>
      </trkpt>
      <trkpt lat="42.90941" lon="-0.43031">
        <ele>938.864746</ele>
        <time>2013-06-05T10:07:25Z</time>
      </trkpt>
      <trkpt lat="42.90927" lon="-0.43021">
        <ele>939.345215</ele>
        <time>2013-06-05T10:08:46Z</time>
      </trkpt>
      <trkpt lat="42.90931" lon="-0.43032">
        <ele>939.345215</ele>
        <time>2013-06-05T10:08:58Z</time>
      </trkpt>
      <trkpt lat="42.9093" lon="-0.43043">
        <ele>936.941895</ele>
        <time>2013-06-05T10:09:10Z</time>
      </trkpt>
      <trkpt lat="42.90928" lon="-0.43054">
        <ele>935.5</ele>
        <time>2013-06-05T10:09:23Z</time>
      </trkpt>
      <trkpt lat="42.90927" lon="-0.4306">
        <ele>933.09668</ele>
        <time>2013-06-05T10:09:32Z</time>
      </trkpt>
      <trkpt lat="42.90926" lon="-0.43067">
        <ele>932.135498</ele>
        <time>2013-06-05T10:09:48Z</time>
      </trkpt>
      <trkpt lat="42.90926" lon="-0.43069">
        <ele>932.135498</ele>
        <time>2013-06-05T10:10:04Z</time>
      </trkpt>
      <trkpt lat="42.90928" lon="-0.43071">
        <ele>932.135498</ele>
        <time>2013-06-05T10:10:22Z</time>
      </trkpt>
      <trkpt lat="42.90927" lon="-0.43073">
        <ele>932.135498</ele>
        <time>2013-06-05T10:10:39Z</time>
      </trkpt>
      <trkpt lat="42.90924" lon="-0.43081">
        <ele>930.693604</ele>
        <time>2013-06-05T10:10:52Z</time>
      </trkpt>
      <trkpt lat="42.90924" lon="-0.43082">
        <ele>930.693604</ele>
        <time>2013-06-05T10:10:53Z</time>
      </trkpt>
      <trkpt lat="42.90922" lon="-0.43098">
        <ele>927.80957</ele>
        <time>2013-06-05T10:11:10Z</time>
      </trkpt>
      <trkpt lat="42.90923" lon="-0.43115">
        <ele>925.40625</ele>
        <time>2013-06-05T10:11:26Z</time>
      </trkpt>
      <trkpt lat="42.90927" lon="-0.43121">
        <ele>923.964111</ele>
        <time>2013-06-05T10:11:37Z</time>
      </trkpt>
      <trkpt lat="42.9093" lon="-0.43127">
        <ele>923.00293</ele>
        <time>2013-06-05T10:11:51Z</time>
      </trkpt>
      <trkpt lat="42.90933" lon="-0.43138">
        <ele>920.118896</ele>
        <time>2013-06-05T10:12:03Z</time>
      </trkpt>
      <trkpt lat="42.90936" lon="-0.43148">
        <ele>918.677002</ele>
        <time>2013-06-05T10:12:13Z</time>
      </trkpt>
      <trkpt lat="42.90939" lon="-0.43163">
        <ele>916.273682</ele>
        <time>2013-06-05T10:12:29Z</time>
      </trkpt>
      <trkpt lat="42.90942" lon="-0.43178">
        <ele>914.351074</ele>
        <time>2013-06-05T10:12:40Z</time>
      </trkpt>
      <trkpt lat="42.90941" lon="-0.43197">
        <ele>911.467285</ele>
        <time>2013-06-05T10:12:57Z</time>
      </trkpt>
      <trkpt lat="42.90941" lon="-0.4321">
        <ele>910.025146</ele>
        <time>2013-06-05T10:13:08Z</time>
      </trkpt>
      <trkpt lat="42.90942" lon="-0.43226">
        <ele>908.583252</ele>
        <time>2013-06-05T10:13:23Z</time>
      </trkpt>
      <trkpt lat="42.90941" lon="-0.43245">
        <ele>905.218506</ele>
        <time>2013-06-05T10:13:40Z</time>
      </trkpt>
      <trkpt lat="42.90939" lon="-0.43255">
        <ele>904.737793</ele>
        <time>2013-06-05T10:13:54Z</time>
      </trkpt>
      <trkpt lat="42.90941" lon="-0.43269">
        <ele>903.295898</ele>
        <time>2013-06-05T10:14:10Z</time>
      </trkpt>
      <trkpt lat="42.9094" lon="-0.43279">
        <ele>901.854004</ele>
        <time>2013-06-05T10:14:30Z</time>
      </trkpt>
      <trkpt lat="42.90941" lon="-0.43285">
        <ele>900.412109</ele>
        <time>2013-06-05T10:14:42Z</time>
      </trkpt>
      <trkpt lat="42.90941" lon="-0.43291">
        <ele>899.931396</ele>
        <time>2013-06-05T10:14:53Z</time>
      </trkpt>
      <trkpt lat="42.9094" lon="-0.43307">
        <ele>898.008789</ele>
        <time>2013-06-05T10:15:10Z</time>
      </trkpt>
      <trkpt lat="42.90942" lon="-0.43319">
        <ele>896.086182</ele>
        <time>2013-06-05T10:15:27Z</time>
      </trkpt>
      <trkpt lat="42.90945" lon="-0.43334">
        <ele>893.202148</ele>
        <time>2013-06-05T10:15:44Z</time>
      </trkpt>
      <trkpt lat="42.9095" lon="-0.43345">
        <ele>889.837402</ele>
        <time>2013-06-05T10:15:59Z</time>
      </trkpt>
      <trkpt lat="42.90954" lon="-0.43357">
        <ele>886.953369</ele>
        <time>2013-06-05T10:16:11Z</time>
      </trkpt>
      <trkpt lat="42.90962" lon="-0.43371">
        <ele>883.108154</ele>
        <time>2013-06-05T10:16:27Z</time>
      </trkpt>
      <trkpt lat="42.90967" lon="-0.4338">
        <ele>881.185791</ele>
        <time>2013-06-05T10:16:39Z</time>
      </trkpt>
      <trkpt lat="42.90972" lon="-0.43391">
        <ele>879.262939</ele>
        <time>2013-06-05T10:16:51Z</time>
      </trkpt>
      <trkpt lat="42.90973" lon="-0.43393">
        <ele>879.262939</ele>
        <time>2013-06-05T10:16:53Z</time>
      </trkpt>
      <trkpt lat="42.90974" lon="-0.43409">
        <ele>876.859863</ele>
        <time>2013-06-05T10:17:06Z</time>
      </trkpt>
      <trkpt lat="42.9098" lon="-0.43427">
        <ele>875.41748</ele>
        <time>2013-06-05T10:17:20Z</time>
      </trkpt>
      <trkpt lat="42.90988" lon="-0.43442">
        <ele>872.052979</ele>
        <time>2013-06-05T10:17:33Z</time>
      </trkpt>
      <trkpt lat="42.90993" lon="-0.43452">
        <ele>872.533691</ele>
        <time>2013-06-05T10:17:40Z</time>
      </trkpt>
      <trkpt lat="42.9101" lon="-0.43467">
        <ele>870.611084</ele>
        <time>2013-06-05T10:18:01Z</time>
      </trkpt>
      <trkpt lat="42.91015" lon="-0.43477">
        <ele>869.649902</ele>
        <time>2013-06-05T10:18:16Z</time>
      </trkpt>
      <trkpt lat="42.91024" lon="-0.43493">
        <ele>866.285156</ele>
        <time>2013-06-05T10:18:33Z</time>
      </trkpt>
      <trkpt lat="42.91026" lon="-0.43497">
        <ele>864.843262</ele>
        <time>2013-06-05T10:18:37Z</time>
      </trkpt>
      <trkpt lat="42.91035" lon="-0.4351">
        <ele>861.47876</ele>
        <time>2013-06-05T10:18:54Z</time>
      </trkpt>
      <trkpt lat="42.9104" lon="-0.43521">
        <ele>859.075195</ele>
        <time>2013-06-05T10:19:07Z</time>
      </trkpt>
      <trkpt lat="42.91048" lon="-0.4353">
        <ele>857.152588</ele>
        <time>2013-06-05T10:19:20Z</time>
      </trkpt>
      <trkpt lat="42.91054" lon="-0.43536">
        <ele>855.22998</ele>
        <time>2013-06-05T10:19:31Z</time>
      </trkpt>
      <trkpt lat="42.91055" lon="-0.43538">
        <ele>854.268799</ele>
        <time>2013-06-05T10:19:35Z</time>
      </trkpt>
      <trkpt lat="42.91064" lon="-0.43544">
        <ele>853.788086</ele>
        <time>2013-06-05T10:19:54Z</time>
      </trkpt>
      <trkpt lat="42.91068" lon="-0.43548">
        <ele>853.307373</ele>
        <time>2013-06-05T10:20:05Z</time>
      </trkpt>
      <trkpt lat="42.91065" lon="-0.43552">
        <ele>851.865479</ele>
        <time>2013-06-05T10:22:30Z</time>
      </trkpt>
      <trkpt lat="42.91073" lon="-0.43559">
        <ele>850.423584</ele>
        <time>2013-06-05T10:22:44Z</time>
      </trkpt>
      <trkpt lat="42.91083" lon="-0.43563">
        <ele>849.942871</ele>
        <time>2013-06-05T10:22:56Z</time>
      </trkpt>
      <trkpt lat="42.91088" lon="-0.43571">
        <ele>848.500732</ele>
        <time>2013-06-05T10:23:04Z</time>
      </trkpt>
      <trkpt lat="42.91092" lon="-0.43579">
        <ele>847.539551</ele>
        <time>2013-06-05T10:23:12Z</time>
      </trkpt>
      <trkpt lat="42.91116" lon="-0.43585">
        <ele>845.616943</ele>
        <time>2013-06-05T10:23:29Z</time>
      </trkpt>
      <trkpt lat="42.9113" lon="-0.43593">
        <ele>845.13623</ele>
        <time>2013-06-05T10:23:42Z</time>
      </trkpt>
      <trkpt lat="42.91144" lon="-0.43599">
        <ele>844.655518</ele>
        <time>2013-06-05T10:23:55Z</time>
      </trkpt>
      <trkpt lat="42.9116" lon="-0.43606">
        <ele>842.73291</ele>
        <time>2013-06-05T10:24:10Z</time>
      </trkpt>
      <trkpt lat="42.91162" lon="-0.43608">
        <ele>843.213379</ele>
        <time>2013-06-05T10:24:21Z</time>
      </trkpt>
      <trkpt lat="42.91163" lon="-0.43608">
        <ele>843.213379</ele>
        <time>2013-06-05T10:24:40Z</time>
      </trkpt>
      <trkpt lat="42.91166" lon="-0.43607">
        <ele>842.252197</ele>
        <time>2013-06-05T10:24:59Z</time>
      </trkpt>
      <trkpt lat="42.91167" lon="-0.43605">
        <ele>841.290771</ele>
        <time>2013-06-05T10:25:17Z</time>
      </trkpt>
      <trkpt lat="42.91167" lon="-0.43604">
        <ele>841.290771</ele>
        <time>2013-06-05T10:25:29Z</time>
      </trkpt>
      <trkpt lat="42.91173" lon="-0.43598">
        <ele>844.175049</ele>
        <time>2013-06-05T10:25:40Z</time>
      </trkpt>
      <trkpt lat="42.91175" lon="-0.43587">
        <ele>845.13623</ele>
        <time>2013-06-05T10:25:52Z</time>
      </trkpt>
      <trkpt lat="42.91178" lon="-0.43577">
        <ele>846.578369</ele>
        <time>2013-06-05T10:26:01Z</time>
      </trkpt>
      <trkpt lat="42.91178" lon="-0.43566">
        <ele>847.539551</ele>
        <time>2013-06-05T10:26:10Z</time>
      </trkpt>
      <trkpt lat="42.91185" lon="-0.43541">
        <ele>850.423584</ele>
        <time>2013-06-05T10:26:30Z</time>
      </trkpt>
      <trkpt lat="42.91193" lon="-0.43531">
        <ele>849.942871</ele>
        <time>2013-06-05T10:26:40Z</time>
      </trkpt>
      <trkpt lat="42.91197" lon="-0.43527">
        <ele>850.423584</ele>
        <time>2013-06-05T10:26:44Z</time>
      </trkpt>
      <trkpt lat="42.91205" lon="-0.43494">
        <ele>851.384766</ele>
        <time>2013-06-05T10:27:05Z</time>
      </trkpt>
      <trkpt lat="42.91207" lon="-0.43466">
        <ele>852.345947</ele>
        <time>2013-06-05T10:27:23Z</time>
      </trkpt>
      <trkpt lat="42.9122" lon="-0.43444">
        <ele>852.82666</ele>
        <time>2013-06-05T10:27:41Z</time>
      </trkpt>
      <trkpt lat="42.91223" lon="-0.43437">
        <ele>854.749268</ele>
        <time>2013-06-05T10:27:54Z</time>
      </trkpt>
      <trkpt lat="42.91235" lon="-0.43428">
        <ele>856.191162</ele>
        <time>2013-06-05T10:28:06Z</time>
      </trkpt>
      <trkpt lat="42.91249" lon="-0.4343">
        <ele>857.633301</ele>
        <time>2013-06-05T10:28:20Z</time>
      </trkpt>
      <trkpt lat="42.9125" lon="-0.43432">
        <ele>857.633301</ele>
        <time>2013-06-05T10:28:23Z</time>
      </trkpt>
      <trkpt lat="42.9126" lon="-0.43437">
        <ele>858.114014</ele>
        <time>2013-06-05T10:28:36Z</time>
      </trkpt>
      <trkpt lat="42.9127" lon="-0.4344">
        <ele>857.633301</ele>
        <time>2013-06-05T10:28:51Z</time>
      </trkpt>
      <trkpt lat="42.9127" lon="-0.43439">
        <ele>857.152588</ele>
        <time>2013-06-05T10:28:55Z</time>
      </trkpt>
      <trkpt lat="42.91258" lon="-0.43429">
        <ele>857.633301</ele>
        <time>2013-06-05T10:29:10Z</time>
      </trkpt>
      <trkpt lat="42.91248" lon="-0.43423">
        <ele>857.152588</ele>
        <time>2013-06-05T10:29:25Z</time>
      </trkpt>
      <trkpt lat="42.91248" lon="-0.43425">
        <ele>856.671875</ele>
        <time>2013-06-05T10:29:47Z</time>
      </trkpt>
      <trkpt lat="42.91249" lon="-0.43426">
        <ele>856.671875</ele>
        <time>2013-06-05T10:29:48Z</time>
      </trkpt>
      <trkpt lat="42.91251" lon="-0.43427">
        <ele>857.152588</ele>
        <time>2013-06-05T10:29:59Z</time>
      </trkpt>
      <trkpt lat="42.91248" lon="-0.43424">
        <ele>856.671875</ele>
        <time>2013-06-05T10:30:16Z</time>
      </trkpt>
      <trkpt lat="42.91248" lon="-0.43422">
        <ele>856.191162</ele>
        <time>2013-06-05T10:30:33Z</time>
      </trkpt>
      <trkpt lat="42.91248" lon="-0.43422">
        <ele>856.191162</ele>
        <time>2013-06-05T10:31:16Z</time>
      </trkpt>
      <trkpt lat="42.91249" lon="-0.43424">
        <ele>856.191162</ele>
        <time>2013-06-05T10:31:27Z</time>
      </trkpt>
      <trkpt lat="42.91259" lon="-0.43426">
        <ele>857.152588</ele>
        <time>2013-06-05T10:31:42Z</time>
      </trkpt>
      <trkpt lat="42.91253" lon="-0.43426">
        <ele>856.671875</ele>
        <time>2013-06-05T10:32:02Z</time>
      </trkpt>
      <trkpt lat="42.91252" lon="-0.43428">
        <ele>856.671875</ele>
        <time>2013-06-05T10:32:21Z</time>
      </trkpt>
      <trkpt lat="42.91247" lon="-0.43437">
        <ele>857.152588</ele>
        <time>2013-06-05T10:32:45Z</time>
      </trkpt>
      <trkpt lat="42.91248" lon="-0.43441">
        <ele>856.671875</ele>
        <time>2013-06-05T10:33:01Z</time>
      </trkpt>
      <trkpt lat="42.91259" lon="-0.43443">
        <ele>857.152588</ele>
        <time>2013-06-05T10:33:14Z</time>
      </trkpt>
      <trkpt lat="42.91275" lon="-0.43444">
        <ele>856.671875</ele>
        <time>2013-06-05T10:33:29Z</time>
      </trkpt>
      <trkpt lat="42.91289" lon="-0.4345">
        <ele>856.671875</ele>
        <time>2013-06-05T10:33:45Z</time>
      </trkpt>
      <trkpt lat="42.91291" lon="-0.43452">
        <ele>855.710693</ele>
        <time>2013-06-05T10:33:55Z</time>
      </trkpt>
      <trkpt lat="42.9129" lon="-0.43454">
        <ele>856.191162</ele>
        <time>2013-06-05T10:34:07Z</time>
      </trkpt>
      <trkpt lat="42.91292" lon="-0.43455">
        <ele>855.710693</ele>
        <time>2013-06-05T10:34:19Z</time>
      </trkpt>
      <trkpt lat="42.91297" lon="-0.43457">
        <ele>855.710693</ele>
        <time>2013-06-05T10:34:32Z</time>
      </trkpt>
      <trkpt lat="42.91304" lon="-0.43462">
        <ele>856.191162</ele>
        <time>2013-06-05T10:34:46Z</time>
      </trkpt>
      <trkpt lat="42.91314" lon="-0.43471">
        <ele>857.152588</ele>
        <time>2013-06-05T10:34:59Z</time>
      </trkpt>
      <trkpt lat="42.91326" lon="-0.43479">
        <ele>857.633301</ele>
        <time>2013-06-05T10:35:13Z</time>
      </trkpt>
      <trkpt lat="42.91334" lon="-0.43484">
        <ele>856.671875</ele>
        <time>2013-06-05T10:35:24Z</time>
      </trkpt>
      <trkpt lat="42.91346" lon="-0.43484">
        <ele>857.152588</ele>
        <time>2013-06-05T10:35:38Z</time>
      </trkpt>
      <trkpt lat="42.91353" lon="-0.43487">
        <ele>857.633301</ele>
        <time>2013-06-05T10:35:52Z</time>
      </trkpt>
      <trkpt lat="42.91356" lon="-0.43491">
        <ele>858.114014</ele>
        <time>2013-06-05T10:36:04Z</time>
      </trkpt>
      <trkpt lat="42.91361" lon="-0.4349">
        <ele>856.671875</ele>
        <time>2013-06-05T10:36:16Z</time>
      </trkpt>
      <trkpt lat="42.91361" lon="-0.43491">
        <ele>858.594482</ele>
        <time>2013-06-05T10:36:40Z</time>
      </trkpt>
      <trkpt lat="42.91358" lon="-0.43486">
        <ele>859.075195</ele>
        <time>2013-06-05T10:36:52Z</time>
      </trkpt>
      <trkpt lat="42.91357" lon="-0.43492">
        <ele>858.114014</ele>
        <time>2013-06-05T10:37:06Z</time>
      </trkpt>
      <trkpt lat="42.91361" lon="-0.43489">
        <ele>858.594482</ele>
        <time>2013-06-05T10:38:49Z</time>
      </trkpt>
      <trkpt lat="42.91362" lon="-0.43493">
        <ele>858.594482</ele>
        <time>2013-06-05T10:39:04Z</time>
      </trkpt>
      <trkpt lat="42.91364" lon="-0.43494">
        <ele>857.152588</ele>
        <time>2013-06-05T10:39:17Z</time>
      </trkpt>
      <trkpt lat="42.91368" lon="-0.43489">
        <ele>854.749268</ele>
        <time>2013-06-05T10:41:27Z</time>
      </trkpt>
      <trkpt lat="42.91366" lon="-0.4349">
        <ele>854.749268</ele>
        <time>2013-06-05T10:41:56Z</time>
      </trkpt>
      <trkpt lat="42.91365" lon="-0.4349">
        <ele>855.710693</ele>
        <time>2013-06-05T10:41:58Z</time>
      </trkpt>
      <trkpt lat="42.91369" lon="-0.43489">
        <ele>854.268799</ele>
        <time>2013-06-05T10:42:11Z</time>
      </trkpt>
      <trkpt lat="42.91383" lon="-0.435">
        <ele>854.268799</ele>
        <time>2013-06-05T10:42:27Z</time>
      </trkpt>
      <trkpt lat="42.91389" lon="-0.43505">
        <ele>853.788086</ele>
        <time>2013-06-05T10:42:46Z</time>
      </trkpt>
      <trkpt lat="42.9139" lon="-0.43509">
        <ele>853.307373</ele>
        <time>2013-06-05T10:43:02Z</time>
      </trkpt>
      <trkpt lat="42.91394" lon="-0.43513">
        <ele>852.82666</ele>
        <time>2013-06-05T10:43:30Z</time>
      </trkpt>
      <trkpt lat="42.91398" lon="-0.43518">
        <ele>852.345947</ele>
        <time>2013-06-05T10:43:45Z</time>
      </trkpt>
      <trkpt lat="42.914" lon="-0.43522">
        <ele>851.865479</ele>
        <time>2013-06-05T10:44:00Z</time>
      </trkpt>
      <trkpt lat="42.91401" lon="-0.43522">
        <ele>851.865479</ele>
        <time>2013-06-05T10:44:17Z</time>
      </trkpt>
      <trkpt lat="42.91405" lon="-0.43529">
        <ele>854.268799</ele>
        <time>2013-06-05T10:44:44Z</time>
      </trkpt>
      <trkpt lat="42.91413" lon="-0.43529">
        <ele>853.788086</ele>
        <time>2013-06-05T10:44:56Z</time>
      </trkpt>
      <trkpt lat="42.91423" lon="-0.43529">
        <ele>853.788086</ele>
        <time>2013-06-05T10:45:14Z</time>
      </trkpt>
      <trkpt lat="42.91429" lon="-0.43534">
        <ele>853.307373</ele>
        <time>2013-06-05T10:45:33Z</time>
      </trkpt>
      <trkpt lat="42.91434" lon="-0.43542">
        <ele>853.307373</ele>
        <time>2013-06-05T10:45:44Z</time>
      </trkpt>
      <trkpt lat="42.91445" lon="-0.43551">
        <ele>850.423584</ele>
        <time>2013-06-05T10:45:59Z</time>
      </trkpt>
      <trkpt lat="42.91449" lon="-0.43554">
        <ele>848.981445</ele>
        <time>2013-06-05T10:46:19Z</time>
      </trkpt>
      <trkpt lat="42.91455" lon="-0.43563">
        <ele>848.500732</ele>
        <time>2013-06-05T10:46:32Z</time>
      </trkpt>
      <trkpt lat="42.91457" lon="-0.43566">
        <ele>847.058838</ele>
        <time>2013-06-05T10:46:43Z</time>
      </trkpt>
      <trkpt lat="42.91455" lon="-0.4356">
        <ele>848.020264</ele>
        <time>2013-06-05T10:46:57Z</time>
      </trkpt>
      <trkpt lat="42.91453" lon="-0.43558">
        <ele>848.500732</ele>
        <time>2013-06-05T10:47:13Z</time>
      </trkpt>
      <trkpt lat="42.91449" lon="-0.43561">
        <ele>848.500732</ele>
        <time>2013-06-05T10:47:37Z</time>
      </trkpt>
      <trkpt lat="42.91451" lon="-0.43559">
        <ele>847.539551</ele>
        <time>2013-06-05T10:48:03Z</time>
      </trkpt>
      <trkpt lat="42.91452" lon="-0.43564">
        <ele>847.058838</ele>
        <time>2013-06-05T10:49:37Z</time>
      </trkpt>
      <trkpt lat="42.91462" lon="-0.43575">
        <ele>847.058838</ele>
        <time>2013-06-05T10:49:50Z</time>
      </trkpt>
      <trkpt lat="42.91464" lon="-0.43575">
        <ele>847.058838</ele>
        <time>2013-06-05T10:50:00Z</time>
      </trkpt>
      <trkpt lat="42.91473" lon="-0.43585">
        <ele>846.097656</ele>
        <time>2013-06-05T10:50:13Z</time>
      </trkpt>
      <trkpt lat="42.9148" lon="-0.43594">
        <ele>844.655518</ele>
        <time>2013-06-05T10:50:23Z</time>
      </trkpt>
      <trkpt lat="42.91492" lon="-0.43604">
        <ele>844.655518</ele>
        <time>2013-06-05T10:50:35Z</time>
      </trkpt>
      <trkpt lat="42.91497" lon="-0.43611">
        <ele>844.655518</ele>
        <time>2013-06-05T10:50:45Z</time>
      </trkpt>
      <trkpt lat="42.91506" lon="-0.43618">
        <ele>844.655518</ele>
        <time>2013-06-05T10:50:57Z</time>
      </trkpt>
      <trkpt lat="42.9151" lon="-0.4362">
        <ele>845.616943</ele>
        <time>2013-06-05T10:51:01Z</time>
      </trkpt>
      <trkpt lat="42.91528" lon="-0.43621">
        <ele>844.655518</ele>
        <time>2013-06-05T10:51:16Z</time>
      </trkpt>
      <trkpt lat="42.91539" lon="-0.43621">
        <ele>844.175049</ele>
        <time>2013-06-05T10:51:26Z</time>
      </trkpt>
      <trkpt lat="42.91548" lon="-0.43626">
        <ele>844.655518</ele>
        <time>2013-06-05T10:51:36Z</time>
      </trkpt>
      <trkpt lat="42.91557" lon="-0.43634">
        <ele>844.655518</ele>
        <time>2013-06-05T10:51:46Z</time>
      </trkpt>
      <trkpt lat="42.91566" lon="-0.4364">
        <ele>845.616943</ele>
        <time>2013-06-05T10:51:55Z</time>
      </trkpt>
      <trkpt lat="42.91576" lon="-0.43651">
        <ele>844.655518</ele>
        <time>2013-06-05T10:52:06Z</time>
      </trkpt>
      <trkpt lat="42.91588" lon="-0.43662">
        <ele>842.73291</ele>
        <time>2013-06-05T10:52:22Z</time>
      </trkpt>
      <trkpt lat="42.91596" lon="-0.43669">
        <ele>840.810059</ele>
        <time>2013-06-05T10:52:30Z</time>
      </trkpt>
      <trkpt lat="42.91605" lon="-0.43676">
        <ele>839.848877</ele>
        <time>2013-06-05T10:52:39Z</time>
      </trkpt>
      <trkpt lat="42.91615" lon="-0.4369">
        <ele>839.848877</ele>
        <time>2013-06-05T10:52:53Z</time>
      </trkpt>
      <trkpt lat="42.91636" lon="-0.43692">
        <ele>838.406982</ele>
        <time>2013-06-05T10:53:05Z</time>
      </trkpt>
      <trkpt lat="42.91637" lon="-0.43709">
        <ele>837.92627</ele>
        <time>2013-06-05T10:53:16Z</time>
      </trkpt>
      <trkpt lat="42.91666" lon="-0.43692">
        <ele>837.92627</ele>
        <time>2013-06-05T10:54:29Z</time>
      </trkpt>
      <trkpt lat="42.91645" lon="-0.43718">
        <ele>836.484375</ele>
        <time>2013-06-05T10:54:44Z</time>
      </trkpt>
      <trkpt lat="42.91653" lon="-0.43729">
        <ele>833.119629</ele>
        <time>2013-06-05T10:54:55Z</time>
      </trkpt>
      <trkpt lat="42.91656" lon="-0.43738">
        <ele>833.600342</ele>
        <time>2013-06-05T10:55:03Z</time>
      </trkpt>
      <trkpt lat="42.9166" lon="-0.43745">
        <ele>832.63916</ele>
        <time>2013-06-05T10:55:11Z</time>
      </trkpt>
      <trkpt lat="42.91675" lon="-0.43751">
        <ele>832.63916</ele>
        <time>2013-06-05T10:55:20Z</time>
      </trkpt>
      <trkpt lat="42.91688" lon="-0.43757">
        <ele>832.63916</ele>
        <time>2013-06-05T10:55:29Z</time>
      </trkpt>
      <trkpt lat="42.91695" lon="-0.43765">
        <ele>832.158447</ele>
        <time>2013-06-05T10:55:42Z</time>
      </trkpt>
      <trkpt lat="42.91705" lon="-0.43768">
        <ele>830.716553</ele>
        <time>2013-06-05T10:55:51Z</time>
      </trkpt>
      <trkpt lat="42.91715" lon="-0.43766">
        <ele>830.716553</ele>
        <time>2013-06-05T10:55:55Z</time>
      </trkpt>
      <trkpt lat="42.91729" lon="-0.43764">
        <ele>831.677734</ele>
        <time>2013-06-05T10:56:03Z</time>
      </trkpt>
      <trkpt lat="42.91729" lon="-0.4377">
        <ele>832.158447</ele>
        <time>2013-06-05T10:56:14Z</time>
      </trkpt>
      <trkpt lat="42.91727" lon="-0.43777">
        <ele>828.793945</ele>
        <time>2013-06-05T10:56:24Z</time>
      </trkpt>
      <trkpt lat="42.91728" lon="-0.43776">
        <ele>828.793945</ele>
        <time>2013-06-05T10:56:25Z</time>
      </trkpt>
      <trkpt lat="42.91729" lon="-0.43794">
        <ele>826.871094</ele>
        <time>2013-06-05T10:56:46Z</time>
      </trkpt>
      <trkpt lat="42.91741" lon="-0.43793">
        <ele>826.390381</ele>
        <time>2013-06-05T10:56:58Z</time>
      </trkpt>
      <trkpt lat="42.91741" lon="-0.43803">
        <ele>826.871094</ele>
        <time>2013-06-05T10:58:30Z</time>
      </trkpt>
      <trkpt lat="42.91751" lon="-0.43802">
        <ele>825.909668</ele>
        <time>2013-06-05T10:59:12Z</time>
      </trkpt>
      <trkpt lat="42.91748" lon="-0.43814">
        <ele>823.987061</ele>
        <time>2013-06-05T10:59:20Z</time>
      </trkpt>
      <trkpt lat="42.91748" lon="-0.43817">
        <ele>823.987061</ele>
        <time>2013-06-05T10:59:22Z</time>
      </trkpt>
      <trkpt lat="42.91762" lon="-0.43828">
        <ele>827.351807</ele>
        <time>2013-06-05T10:59:39Z</time>
      </trkpt>
      <trkpt lat="42.9178" lon="-0.43826">
        <ele>825.909668</ele>
        <time>2013-06-05T10:59:50Z</time>
      </trkpt>
      <trkpt lat="42.91779" lon="-0.43846">
        <ele>823.025879</ele>
        <time>2013-06-05T11:00:07Z</time>
      </trkpt>
      <trkpt lat="42.9179" lon="-0.43844">
        <ele>823.025879</ele>
        <time>2013-06-05T11:00:15Z</time>
      </trkpt>
      <trkpt lat="42.9178" lon="-0.43855">
        <ele>819.180664</ele>
        <time>2013-06-05T11:00:34Z</time>
      </trkpt>
      <trkpt lat="42.91779" lon="-0.43866">
        <ele>815.816162</ele>
        <time>2013-06-05T11:00:49Z</time>
      </trkpt>
      <trkpt lat="42.91788" lon="-0.43874">
        <ele>814.374023</ele>
        <time>2013-06-05T11:01:06Z</time>
      </trkpt>
      <trkpt lat="42.91776" lon="-0.43895">
        <ele>814.854736</ele>
        <time>2013-06-05T11:01:15Z</time>
      </trkpt>
      <trkpt lat="42.91781" lon="-0.43904">
        <ele>814.854736</ele>
        <time>2013-06-05T11:01:25Z</time>
      </trkpt>
      <trkpt lat="42.9178" lon="-0.43915">
        <ele>813.893311</ele>
        <time>2013-06-05T11:01:35Z</time>
      </trkpt>
      <trkpt lat="42.91782" lon="-0.43919">
        <ele>815.335449</ele>
        <time>2013-06-05T11:01:39Z</time>
      </trkpt>
      <trkpt lat="42.91784" lon="-0.4393">
        <ele>813.893311</ele>
        <time>2013-06-05T11:01:49Z</time>
      </trkpt>
      <trkpt lat="42.91796" lon="-0.43936">
        <ele>813.412842</ele>
        <time>2013-06-05T11:01:59Z</time>
      </trkpt>
      <trkpt lat="42.91794" lon="-0.43955">
        <ele>812.451416</ele>
        <time>2013-06-05T11:02:13Z</time>
      </trkpt>
      <trkpt lat="42.91802" lon="-0.43965">
        <ele>812.451416</ele>
        <time>2013-06-05T11:02:25Z</time>
      </trkpt>
      <trkpt lat="42.91792" lon="-0.43989">
        <ele>813.412842</ele>
        <time>2013-06-05T11:04:38Z</time>
      </trkpt>
      <trkpt lat="42.91797" lon="-0.43985">
        <ele>812.932129</ele>
        <time>2013-06-05T11:04:41Z</time>
      </trkpt>
      <trkpt lat="42.91812" lon="-0.43985">
        <ele>813.412842</ele>
        <time>2013-06-05T11:04:51Z</time>
      </trkpt>
      <trkpt lat="42.91821" lon="-0.43992">
        <ele>813.412842</ele>
        <time>2013-06-05T11:05:01Z</time>
      </trkpt>
      <trkpt lat="42.91818" lon="-0.44007">
        <ele>813.412842</ele>
        <time>2013-06-05T11:05:12Z</time>
      </trkpt>
      <trkpt lat="42.91826" lon="-0.44013">
        <ele>813.893311</ele>
        <time>2013-06-05T11:05:30Z</time>
      </trkpt>
      <trkpt lat="42.91828" lon="-0.44021">
        <ele>813.412842</ele>
        <time>2013-06-05T11:05:40Z</time>
      </trkpt>
      <trkpt lat="42.9183" lon="-0.44032">
        <ele>813.412842</ele>
        <time>2013-06-05T11:05:49Z</time>
      </trkpt>
      <trkpt lat="42.91833" lon="-0.44043">
        <ele>813.893311</ele>
        <time>2013-06-05T11:06:01Z</time>
      </trkpt>
      <trkpt lat="42.91839" lon="-0.44056">
        <ele>813.412842</ele>
        <time>2013-06-05T11:06:13Z</time>
      </trkpt>
      <trkpt lat="42.9186" lon="-0.44073">
        <ele>812.932129</ele>
        <time>2013-06-05T11:07:30Z</time>
      </trkpt>
      <trkpt lat="42.91865" lon="-0.44083">
        <ele>812.932129</ele>
        <time>2013-06-05T11:08:13Z</time>
      </trkpt>
      <trkpt lat="42.91865" lon="-0.44089">
        <ele>812.451416</ele>
        <time>2013-06-05T11:08:21Z</time>
      </trkpt>
      <trkpt lat="42.91859" lon="-0.44106">
        <ele>811.970703</ele>
        <time>2013-06-05T11:08:32Z</time>
      </trkpt>
      <trkpt lat="42.91849" lon="-0.44135">
        <ele>811.009277</ele>
        <time>2013-06-05T11:08:51Z</time>
      </trkpt>
      <trkpt lat="42.91854" lon="-0.4415">
        <ele>811.009277</ele>
        <time>2013-06-05T11:09:04Z</time>
      </trkpt>
      <trkpt lat="42.9185" lon="-0.44171">
        <ele>811.009277</ele>
        <time>2013-06-05T11:09:15Z</time>
      </trkpt>
      <trkpt lat="42.91843" lon="-0.44183">
        <ele>811.009277</ele>
        <time>2013-06-05T11:09:20Z</time>
      </trkpt>
      <trkpt lat="42.91847" lon="-0.44189">
        <ele>810.528564</ele>
        <time>2013-06-05T11:09:28Z</time>
      </trkpt>
      <trkpt lat="42.91849" lon="-0.44199">
        <ele>810.047852</ele>
        <time>2013-06-05T11:09:38Z</time>
      </trkpt>
      <trkpt lat="42.9185" lon="-0.44212">
        <ele>810.047852</ele>
        <time>2013-06-05T11:09:50Z</time>
      </trkpt>
      <trkpt lat="42.91849" lon="-0.44224">
        <ele>810.528564</ele>
        <time>2013-06-05T11:10:00Z</time>
      </trkpt>
      <trkpt lat="42.9185" lon="-0.44227">
        <ele>810.047852</ele>
        <time>2013-06-05T11:10:04Z</time>
      </trkpt>
      <trkpt lat="42.91857" lon="-0.44231">
        <ele>809.567383</ele>
        <time>2013-06-05T11:10:10Z</time>
      </trkpt>
      <trkpt lat="42.91884" lon="-0.44224">
        <ele>807.644775</ele>
        <time>2013-06-05T11:10:24Z</time>
      </trkpt>
      <trkpt lat="42.91888" lon="-0.44217">
        <ele>809.567383</ele>
        <time>2013-06-05T11:10:30Z</time>
      </trkpt>
      <trkpt lat="42.91892" lon="-0.44214">
        <ele>807.644775</ele>
        <time>2013-06-05T11:10:32Z</time>
      </trkpt>
      <trkpt lat="42.9191" lon="-0.44204">
        <ele>808.125488</ele>
        <time>2013-06-05T11:10:52Z</time>
      </trkpt>
      <trkpt lat="42.91916" lon="-0.44199">
        <ele>808.605957</ele>
        <time>2013-06-05T11:11:02Z</time>
      </trkpt>
      <trkpt lat="42.91912" lon="-0.442">
        <ele>808.125488</ele>
        <time>2013-06-05T11:11:06Z</time>
      </trkpt>
      <trkpt lat="42.91907" lon="-0.44198">
        <ele>808.125488</ele>
        <time>2013-06-05T11:11:17Z</time>
      </trkpt>
      <trkpt lat="42.91907" lon="-0.44197">
        <ele>808.605957</ele>
        <time>2013-06-05T11:11:20Z</time>
      </trkpt>
      <trkpt lat="42.91924" lon="-0.44194">
        <ele>807.644775</ele>
        <time>2013-06-05T11:11:34Z</time>
      </trkpt>
      <trkpt lat="42.91944" lon="-0.4419">
        <ele>808.605957</ele>
        <time>2013-06-05T11:11:49Z</time>
      </trkpt>
      <trkpt lat="42.91954" lon="-0.44188">
        <ele>809.08667</ele>
        <time>2013-06-05T11:12:10Z</time>
      </trkpt>
      <trkpt lat="42.91956" lon="-0.44182">
        <ele>808.605957</ele>
        <time>2013-06-05T11:12:28Z</time>
      </trkpt>
      <trkpt lat="42.91946" lon="-0.44186">
        <ele>809.08667</ele>
        <time>2013-06-05T11:12:44Z</time>
      </trkpt>
      <trkpt lat="42.9192" lon="-0.44204">
        <ele>808.605957</ele>
        <time>2013-06-05T11:13:24Z</time>
      </trkpt>
      <trkpt lat="42.91918" lon="-0.44205">
        <ele>808.605957</ele>
        <time>2013-06-05T11:13:44Z</time>
      </trkpt>
      <trkpt lat="42.91929" lon="-0.44198">
        <ele>808.605957</ele>
        <time>2013-06-05T11:13:56Z</time>
      </trkpt>
      <trkpt lat="42.91932" lon="-0.44195">
        <ele>807.644775</ele>
        <time>2013-06-05T11:14:19Z</time>
      </trkpt>
      <trkpt lat="42.91934" lon="-0.44195">
        <ele>808.125488</ele>
        <time>2013-06-05T11:14:29Z</time>
      </trkpt>
      <trkpt lat="42.91943" lon="-0.44198">
        <ele>808.605957</ele>
        <time>2013-06-05T11:14:43Z</time>
      </trkpt>
      <trkpt lat="42.9194" lon="-0.44205">
        <ele>808.605957</ele>
        <time>2013-06-05T11:14:48Z</time>
      </trkpt>
      <trkpt lat="42.91926" lon="-0.44213">
        <ele>809.567383</ele>
        <time>2013-06-05T11:15:02Z</time>
      </trkpt>
      <trkpt lat="42.91927" lon="-0.44212">
        <ele>808.125488</ele>
        <time>2013-06-05T11:15:11Z</time>
      </trkpt>
      <trkpt lat="42.91921" lon="-0.44216">
        <ele>808.125488</ele>
        <time>2013-06-05T11:15:20Z</time>
      </trkpt>
      <trkpt lat="42.91925" lon="-0.4422">
        <ele>808.605957</ele>
        <time>2013-06-05T11:15:33Z</time>
      </trkpt>
      <trkpt lat="42.91943" lon="-0.44218">
        <ele>808.605957</ele>
        <time>2013-06-05T11:15:43Z</time>
      </trkpt>
      <trkpt lat="42.91966" lon="-0.4421">
        <ele>808.125488</ele>
        <time>2013-06-05T11:15:55Z</time>
      </trkpt>
      <trkpt lat="42.91978" lon="-0.44213">
        <ele>807.164063</ele>
        <time>2013-06-05T11:16:07Z</time>
      </trkpt>
      <trkpt lat="42.91995" lon="-0.44211">
        <ele>808.605957</ele>
        <time>2013-06-05T11:16:19Z</time>
      </trkpt>
      <trkpt lat="42.92018" lon="-0.44211">
        <ele>809.08667</ele>
        <time>2013-06-05T11:16:38Z</time>
      </trkpt>
      <trkpt lat="42.92018" lon="-0.44215">
        <ele>806.68335</ele>
        <time>2013-06-05T11:16:48Z</time>
      </trkpt>
      <trkpt lat="42.9202" lon="-0.4422">
        <ele>807.164063</ele>
        <time>2013-06-05T11:16:53Z</time>
      </trkpt>
      <trkpt lat="42.92021" lon="-0.44227">
        <ele>806.68335</ele>
        <time>2013-06-05T11:17:01Z</time>
      </trkpt>
      <trkpt lat="42.9203" lon="-0.44233">
        <ele>807.164063</ele>
        <time>2013-06-05T11:17:11Z</time>
      </trkpt>
      <trkpt lat="42.92029" lon="-0.44244">
        <ele>807.644775</ele>
        <time>2013-06-05T11:17:25Z</time>
      </trkpt>
      <trkpt lat="42.92034" lon="-0.44246">
        <ele>809.08667</ele>
        <time>2013-06-05T11:17:35Z</time>
      </trkpt>
      <trkpt lat="42.92035" lon="-0.44251">
        <ele>809.567383</ele>
        <time>2013-06-05T11:17:46Z</time>
      </trkpt>
      <trkpt lat="42.92047" lon="-0.44251">
        <ele>809.08667</ele>
        <time>2013-06-05T11:17:57Z</time>
      </trkpt>
      <trkpt lat="42.92061" lon="-0.44248">
        <ele>807.644775</ele>
        <time>2013-06-05T11:18:06Z</time>
      </trkpt>
      <trkpt lat="42.92076" lon="-0.44246">
        <ele>807.164063</ele>
        <time>2013-06-05T11:18:16Z</time>
      </trkpt>
      <trkpt lat="42.92082" lon="-0.44245">
        <ele>807.164063</ele>
        <time>2013-06-05T11:18:26Z</time>
      </trkpt>
      <trkpt lat="42.92091" lon="-0.4424">
        <ele>807.164063</ele>
        <time>2013-06-05T11:18:36Z</time>
      </trkpt>
      <trkpt lat="42.92087" lon="-0.44244">
        <ele>804.760742</ele>
        <time>2013-06-05T11:18:49Z</time>
      </trkpt>
      <trkpt lat="42.92061" lon="-0.4426">
        <ele>805.241455</ele>
        <time>2013-06-05T11:19:02Z</time>
      </trkpt>
      <trkpt lat="42.92034" lon="-0.44281">
        <ele>804.760742</ele>
        <time>2013-06-05T11:19:18Z</time>
      </trkpt>
      <trkpt lat="42.92045" lon="-0.44289">
        <ele>804.760742</ele>
        <time>2013-06-05T11:19:30Z</time>
      </trkpt>
      <trkpt lat="42.92046" lon="-0.44288">
        <ele>805.722168</ele>
        <time>2013-06-05T11:19:31Z</time>
      </trkpt>
      <trkpt lat="42.92053" lon="-0.44282">
        <ele>804.760742</ele>
        <time>2013-06-05T11:19:38Z</time>
      </trkpt>
      <trkpt lat="42.92046" lon="-0.44283">
        <ele>804.760742</ele>
        <time>2013-06-05T11:19:42Z</time>
      </trkpt>
      <trkpt lat="42.92024" lon="-0.44301">
        <ele>805.241455</ele>
        <time>2013-06-05T11:19:56Z</time>
      </trkpt>
      <trkpt lat="42.92003" lon="-0.44326">
        <ele>805.722168</ele>
        <time>2013-06-05T11:20:09Z</time>
      </trkpt>
      <trkpt lat="42.91966" lon="-0.44354">
        <ele>805.722168</ele>
        <time>2013-06-05T11:20:19Z</time>
      </trkpt>
      <trkpt lat="42.91975" lon="-0.44349">
        <ele>805.722168</ele>
        <time>2013-06-05T11:20:33Z</time>
      </trkpt>
      <trkpt lat="42.91995" lon="-0.44337">
        <ele>805.241455</ele>
        <time>2013-06-05T11:20:52Z</time>
      </trkpt>
      <trkpt lat="42.91984" lon="-0.4434">
        <ele>805.722168</ele>
        <time>2013-06-05T11:21:07Z</time>
      </trkpt>
      <trkpt lat="42.91974" lon="-0.44344">
        <ele>805.241455</ele>
        <time>2013-06-05T11:21:19Z</time>
      </trkpt>
      <trkpt lat="42.91968" lon="-0.44347">
        <ele>804.760742</ele>
        <time>2013-06-05T11:21:30Z</time>
      </trkpt>
      <trkpt lat="42.91973" lon="-0.44353">
        <ele>805.241455</ele>
        <time>2013-06-05T11:21:42Z</time>
      </trkpt>
      <trkpt lat="42.91972" lon="-0.44355">
        <ele>805.241455</ele>
        <time>2013-06-05T11:21:50Z</time>
      </trkpt>
      <trkpt lat="42.91976" lon="-0.4435">
        <ele>805.241455</ele>
        <time>2013-06-05T11:21:59Z</time>
      </trkpt>
      <trkpt lat="42.92007" lon="-0.4433">
        <ele>804.760742</ele>
        <time>2013-06-05T11:22:12Z</time>
      </trkpt>
      <trkpt lat="42.92008" lon="-0.44334">
        <ele>804.760742</ele>
        <time>2013-06-05T11:22:22Z</time>
      </trkpt>
      <trkpt lat="42.92017" lon="-0.44349">
        <ele>805.241455</ele>
        <time>2013-06-05T11:22:32Z</time>
      </trkpt>
      <trkpt lat="42.92027" lon="-0.44344">
        <ele>804.760742</ele>
        <time>2013-06-05T11:22:45Z</time>
      </trkpt>
      <trkpt lat="42.91809" lon="-0.44538">
        <ele>805.241455</ele>
        <time>2013-06-05T11:22:50Z</time>
      </trkpt>
      <trkpt lat="42.91819" lon="-0.44542">
        <ele>804.280273</ele>
        <time>2013-06-05T11:22:59Z</time>
      </trkpt>
      <trkpt lat="42.91865" lon="-0.4452">
        <ele>804.760742</ele>
        <time>2013-06-05T11:23:10Z</time>
      </trkpt>
      <trkpt lat="42.91847" lon="-0.44535">
        <ele>804.760742</ele>
        <time>2013-06-05T11:23:12Z</time>
      </trkpt>
      <trkpt lat="42.91867" lon="-0.44534">
        <ele>804.760742</ele>
        <time>2013-06-05T11:23:26Z</time>
      </trkpt>
      <trkpt lat="42.91868" lon="-0.44547">
        <ele>803.799561</ele>
        <time>2013-06-05T11:23:47Z</time>
      </trkpt>
      <trkpt lat="42.92081" lon="-0.44408">
        <ele>803.799561</ele>
        <time>2013-06-05T11:23:57Z</time>
      </trkpt>
      <trkpt lat="42.92074" lon="-0.44425">
        <ele>803.799561</ele>
        <time>2013-06-05T11:24:05Z</time>
      </trkpt>
      <trkpt lat="42.92081" lon="-0.44435">
        <ele>803.318848</ele>
        <time>2013-06-05T11:24:17Z</time>
      </trkpt>
      <trkpt lat="42.92088" lon="-0.44445">
        <ele>803.799561</ele>
        <time>2013-06-05T11:24:28Z</time>
      </trkpt>
      <trkpt lat="42.92122" lon="-0.4443">
        <ele>802.838135</ele>
        <time>2013-06-05T11:24:37Z</time>
      </trkpt>
      <trkpt lat="42.92131" lon="-0.44435">
        <ele>803.318848</ele>
        <time>2013-06-05T11:24:46Z</time>
      </trkpt>
      <trkpt lat="42.92108" lon="-0.44464">
        <ele>803.318848</ele>
        <time>2013-06-05T11:24:56Z</time>
      </trkpt>
      <trkpt lat="42.92082" lon="-0.44492">
        <ele>803.318848</ele>
        <time>2013-06-05T11:25:08Z</time>
      </trkpt>
      <trkpt lat="42.92078" lon="-0.44503">
        <ele>803.799561</ele>
        <time>2013-06-05T11:25:22Z</time>
      </trkpt>
      <trkpt lat="42.92104" lon="-0.44479">
        <ele>804.280273</ele>
        <time>2013-06-05T11:25:35Z</time>
      </trkpt>
      <trkpt lat="42.92092" lon="-0.44488">
        <ele>804.280273</ele>
        <time>2013-06-05T11:25:56Z</time>
      </trkpt>
      <trkpt lat="42.92126" lon="-0.44463">
        <ele>803.799561</ele>
        <time>2013-06-05T11:27:13Z</time>
      </trkpt>
      <trkpt lat="42.92124" lon="-0.44467">
        <ele>804.280273</ele>
        <time>2013-06-05T11:27:24Z</time>
      </trkpt>
      <trkpt lat="42.92129" lon="-0.44467">
        <ele>804.280273</ele>
        <time>2013-06-05T11:27:38Z</time>
      </trkpt>
      <trkpt lat="42.92123" lon="-0.44477">
        <ele>803.799561</ele>
        <time>2013-06-05T11:27:48Z</time>
      </trkpt>
      <trkpt lat="42.92133" lon="-0.44471">
        <ele>803.318848</ele>
        <time>2013-06-05T11:27:50Z</time>
      </trkpt>
      <trkpt lat="42.9217" lon="-0.44458">
        <ele>803.318848</ele>
        <time>2013-06-05T11:28:02Z</time>
      </trkpt>
      <trkpt lat="42.9218" lon="-0.44459">
        <ele>802.838135</ele>
        <time>2013-06-05T11:28:09Z</time>
      </trkpt>
      <trkpt lat="42.9219" lon="-0.44463">
        <ele>801.876953</ele>
        <time>2013-06-05T11:28:19Z</time>
      </trkpt>
      <trkpt lat="42.92191" lon="-0.44476">
        <ele>801.39624</ele>
        <time>2013-06-05T11:28:28Z</time>
      </trkpt>
      <trkpt lat="42.92185" lon="-0.44498">
        <ele>800.915527</ele>
        <time>2013-06-05T11:28:37Z</time>
      </trkpt>
      <trkpt lat="42.92191" lon="-0.44498">
        <ele>800.915527</ele>
        <time>2013-06-05T11:28:41Z</time>
      </trkpt>
      <trkpt lat="42.92203" lon="-0.445">
        <ele>800.915527</ele>
        <time>2013-06-05T11:28:48Z</time>
      </trkpt>
      <trkpt lat="42.92208" lon="-0.44503">
        <ele>800.915527</ele>
        <time>2013-06-05T11:28:51Z</time>
      </trkpt>
      <trkpt lat="42.92229" lon="-0.4449">
        <ele>800.915527</ele>
        <time>2013-06-05T11:28:55Z</time>
      </trkpt>
      <trkpt lat="42.92239" lon="-0.44489">
        <ele>801.876953</ele>
        <time>2013-06-05T11:29:05Z</time>
      </trkpt>
      <trkpt lat="42.9224" lon="-0.44492">
        <ele>801.876953</ele>
        <time>2013-06-05T11:29:08Z</time>
      </trkpt>
      <trkpt lat="42.9226" lon="-0.44483">
        <ele>802.357422</ele>
        <time>2013-06-05T11:29:17Z</time>
      </trkpt>
      <trkpt lat="42.9226" lon="-0.44496">
        <ele>801.876953</ele>
        <time>2013-06-05T11:29:27Z</time>
      </trkpt>
      <trkpt lat="42.92288" lon="-0.44485">
        <ele>803.799561</ele>
        <time>2013-06-05T11:29:41Z</time>
      </trkpt>
      <trkpt lat="42.92295" lon="-0.44489">
        <ele>803.799561</ele>
        <time>2013-06-05T11:29:49Z</time>
      </trkpt>
      <trkpt lat="42.92288" lon="-0.44501">
        <ele>802.838135</ele>
        <time>2013-06-05T11:29:55Z</time>
      </trkpt>
      <trkpt lat="42.92301" lon="-0.44495">
        <ele>800.915527</ele>
        <time>2013-06-05T11:30:06Z</time>
      </trkpt>
      <trkpt lat="42.92307" lon="-0.445">
        <ele>799.954346</ele>
        <time>2013-06-05T11:30:17Z</time>
      </trkpt>
      <trkpt lat="42.92316" lon="-0.44513">
        <ele>797.070313</ele>
        <time>2013-06-05T11:30:40Z</time>
      </trkpt>
      <trkpt lat="42.92319" lon="-0.44515">
        <ele>798.031738</ele>
        <time>2013-06-05T11:30:44Z</time>
      </trkpt>
      <trkpt lat="42.92334" lon="-0.44519">
        <ele>797.070313</ele>
        <time>2013-06-05T11:30:58Z</time>
      </trkpt>
      <trkpt lat="42.92338" lon="-0.44525">
        <ele>795.147461</ele>
        <time>2013-06-05T11:31:07Z</time>
      </trkpt>
      <trkpt lat="42.92347" lon="-0.44533">
        <ele>795.628174</ele>
        <time>2013-06-05T11:31:17Z</time>
      </trkpt>
      <trkpt lat="42.92352" lon="-0.44532">
        <ele>798.512207</ele>
        <time>2013-06-05T11:31:29Z</time>
      </trkpt>
      <trkpt lat="42.92355" lon="-0.44528">
        <ele>798.99292</ele>
        <time>2013-06-05T11:31:33Z</time>
      </trkpt>
      <trkpt lat="42.92362" lon="-0.4453">
        <ele>799.473633</ele>
        <time>2013-06-05T11:31:40Z</time>
      </trkpt>
      <trkpt lat="42.92366" lon="-0.44533">
        <ele>799.473633</ele>
        <time>2013-06-05T11:31:51Z</time>
      </trkpt>
      <trkpt lat="42.92374" lon="-0.44539">
        <ele>798.512207</ele>
        <time>2013-06-05T11:32:00Z</time>
      </trkpt>
      <trkpt lat="42.92381" lon="-0.44541">
        <ele>798.031738</ele>
        <time>2013-06-05T11:32:05Z</time>
      </trkpt>
      <trkpt lat="42.92388" lon="-0.44541">
        <ele>797.551025</ele>
        <time>2013-06-05T11:32:10Z</time>
      </trkpt>
      <trkpt lat="42.92401" lon="-0.44546">
        <ele>796.109131</ele>
        <time>2013-06-05T11:32:22Z</time>
      </trkpt>
      <trkpt lat="42.92412" lon="-0.44551">
        <ele>794.666748</ele>
        <time>2013-06-05T11:32:32Z</time>
      </trkpt>
      <trkpt lat="42.92415" lon="-0.44551">
        <ele>794.186279</ele>
        <time>2013-06-05T11:32:35Z</time>
      </trkpt>
      <trkpt lat="42.92428" lon="-0.44546">
        <ele>794.186279</ele>
        <time>2013-06-05T11:32:48Z</time>
      </trkpt>
      <trkpt lat="42.92439" lon="-0.4455">
        <ele>794.186279</ele>
        <time>2013-06-05T11:32:59Z</time>
      </trkpt>
      <trkpt lat="42.92447" lon="-0.44553">
        <ele>793.224854</ele>
        <time>2013-06-05T11:33:05Z</time>
      </trkpt>
      <trkpt lat="42.92457" lon="-0.44557">
        <ele>790.821533</ele>
        <time>2013-06-05T11:33:16Z</time>
      </trkpt>
      <trkpt lat="42.92457" lon="-0.44562">
        <ele>789.860352</ele>
        <time>2013-06-05T11:33:21Z</time>
      </trkpt>
      <trkpt lat="42.92462" lon="-0.44565">
        <ele>788.418457</ele>
        <time>2013-06-05T11:33:25Z</time>
      </trkpt>
      <trkpt lat="42.92465" lon="-0.44574">
        <ele>787.457031</ele>
        <time>2013-06-05T11:33:34Z</time>
      </trkpt>
      <trkpt lat="42.92468" lon="-0.44585">
        <ele>786.49585</ele>
        <time>2013-06-05T11:33:44Z</time>
      </trkpt>
      <trkpt lat="42.9247" lon="-0.44587">
        <ele>787.457031</ele>
        <time>2013-06-05T11:33:48Z</time>
      </trkpt>
      <trkpt lat="42.92475" lon="-0.44589">
        <ele>786.976318</ele>
        <time>2013-06-05T11:33:52Z</time>
      </trkpt>
      <trkpt lat="42.9248" lon="-0.44594">
        <ele>787.457031</ele>
        <time>2013-06-05T11:34:04Z</time>
      </trkpt>
      <trkpt lat="42.92496" lon="-0.44605">
        <ele>786.976318</ele>
        <time>2013-06-05T11:34:17Z</time>
      </trkpt>
      <trkpt lat="42.92504" lon="-0.44614">
        <ele>786.49585</ele>
        <time>2013-06-05T11:34:27Z</time>
      </trkpt>
      <trkpt lat="42.92514" lon="-0.44626">
        <ele>786.49585</ele>
        <time>2013-06-05T11:34:40Z</time>
      </trkpt>
      <trkpt lat="42.92518" lon="-0.44625">
        <ele>787.457031</ele>
        <time>2013-06-05T11:34:45Z</time>
      </trkpt>
      <trkpt lat="42.92524" lon="-0.44628">
        <ele>790.341064</ele>
        <time>2013-06-05T11:34:58Z</time>
      </trkpt>
      <trkpt lat="42.92523" lon="-0.44626">
        <ele>790.341064</ele>
        <time>2013-06-05T11:35:01Z</time>
      </trkpt>
      <trkpt lat="42.92531" lon="-0.44627">
        <ele>793.705566</ele>
        <time>2013-06-05T11:35:12Z</time>
      </trkpt>
      <trkpt lat="42.92533" lon="-0.44628">
        <ele>794.666748</ele>
        <time>2013-06-05T11:35:14Z</time>
      </trkpt>
      <trkpt lat="42.92547" lon="-0.44634">
        <ele>795.628174</ele>
        <time>2013-06-05T11:35:30Z</time>
      </trkpt>
      <trkpt lat="42.92553" lon="-0.44634">
        <ele>798.031738</ele>
        <time>2013-06-05T11:35:40Z</time>
      </trkpt>
      <trkpt lat="42.92558" lon="-0.44641">
        <ele>799.954346</ele>
        <time>2013-06-05T11:36:04Z</time>
      </trkpt>
      <trkpt lat="42.92554" lon="-0.44649">
        <ele>798.512207</ele>
        <time>2013-06-05T11:36:14Z</time>
      </trkpt>
      <trkpt lat="42.9256" lon="-0.44641">
        <ele>799.954346</ele>
        <time>2013-06-05T11:36:28Z</time>
      </trkpt>
      <trkpt lat="42.92564" lon="-0.44643">
        <ele>800.915527</ele>
        <time>2013-06-05T11:36:35Z</time>
      </trkpt>
      <trkpt lat="42.92571" lon="-0.44644">
        <ele>801.876953</ele>
        <time>2013-06-05T11:36:45Z</time>
      </trkpt>
      <trkpt lat="42.92581" lon="-0.44644">
        <ele>804.760742</ele>
        <time>2013-06-05T11:36:58Z</time>
      </trkpt>
      <trkpt lat="42.92584" lon="-0.44642">
        <ele>805.241455</ele>
        <time>2013-06-05T11:37:02Z</time>
      </trkpt>
      <trkpt lat="42.92591" lon="-0.44639">
        <ele>806.68335</ele>
        <time>2013-06-05T11:37:14Z</time>
      </trkpt>
      <trkpt lat="42.92598" lon="-0.44638">
        <ele>807.644775</ele>
        <time>2013-06-05T11:37:27Z</time>
      </trkpt>
      <trkpt lat="42.92606" lon="-0.44631">
        <ele>808.125488</ele>
        <time>2013-06-05T11:37:40Z</time>
      </trkpt>
      <trkpt lat="42.92608" lon="-0.44627">
        <ele>808.605957</ele>
        <time>2013-06-05T11:37:44Z</time>
      </trkpt>
      <trkpt lat="42.92612" lon="-0.44618">
        <ele>809.567383</ele>
        <time>2013-06-05T11:37:58Z</time>
      </trkpt>
      <trkpt lat="42.92616" lon="-0.44608">
        <ele>811.48999</ele>
        <time>2013-06-05T11:38:11Z</time>
      </trkpt>
      <trkpt lat="42.92617" lon="-0.44602">
        <ele>811.48999</ele>
        <time>2013-06-05T11:38:31Z</time>
      </trkpt>
      <trkpt lat="42.92617" lon="-0.44602">
        <ele>811.48999</ele>
        <time>2013-06-05T11:38:50Z</time>
      </trkpt>
      <trkpt lat="42.92617" lon="-0.44604">
        <ele>811.48999</ele>
        <time>2013-06-05T11:39:53Z</time>
      </trkpt>
      <trkpt lat="42.92617" lon="-0.44604">
        <ele>810.528564</ele>
        <time>2013-06-05T11:40:41Z</time>
      </trkpt>
      <trkpt lat="42.92621" lon="-0.44596">
        <ele>811.970703</ele>
        <time>2013-06-05T11:40:58Z</time>
      </trkpt>
      <trkpt lat="42.9262" lon="-0.44593">
        <ele>813.893311</ele>
        <time>2013-06-05T11:41:09Z</time>
      </trkpt>
      <trkpt lat="42.92625" lon="-0.44594">
        <ele>815.816162</ele>
        <time>2013-06-05T11:41:21Z</time>
      </trkpt>
      <trkpt lat="42.92632" lon="-0.44591">
        <ele>819.180664</ele>
        <time>2013-06-05T11:41:33Z</time>
      </trkpt>
      <trkpt lat="42.92633" lon="-0.4459">
        <ele>819.180664</ele>
        <time>2013-06-05T11:41:34Z</time>
      </trkpt>
      <trkpt lat="42.92641" lon="-0.44586">
        <ele>820.141846</ele>
        <time>2013-06-05T11:41:47Z</time>
      </trkpt>
      <trkpt lat="42.92651" lon="-0.4458">
        <ele>819.661377</ele>
        <time>2013-06-05T11:42:00Z</time>
      </trkpt>
      <trkpt lat="42.92658" lon="-0.4458">
        <ele>820.141846</ele>
        <time>2013-06-05T11:42:10Z</time>
      </trkpt>
      <trkpt lat="42.92661" lon="-0.44578">
        <ele>820.141846</ele>
        <time>2013-06-05T11:42:13Z</time>
      </trkpt>
      <trkpt lat="42.92674" lon="-0.44569">
        <ele>823.025879</ele>
        <time>2013-06-05T11:42:30Z</time>
      </trkpt>
      <trkpt lat="42.92684" lon="-0.44564">
        <ele>823.987061</ele>
        <time>2013-06-05T11:42:42Z</time>
      </trkpt>
      <trkpt lat="42.92691" lon="-0.44563">
        <ele>824.948486</ele>
        <time>2013-06-05T11:42:53Z</time>
      </trkpt>
      <trkpt lat="42.92702" lon="-0.4456">
        <ele>825.428955</ele>
        <time>2013-06-05T11:43:07Z</time>
      </trkpt>
      <trkpt lat="42.92709" lon="-0.44557">
        <ele>824.467773</ele>
        <time>2013-06-05T11:43:22Z</time>
      </trkpt>
      <trkpt lat="42.92711" lon="-0.44557">
        <ele>825.428955</ele>
        <time>2013-06-05T11:43:39Z</time>
      </trkpt>
      <trkpt lat="42.92713" lon="-0.44564">
        <ele>826.390381</ele>
        <time>2013-06-05T11:43:49Z</time>
      </trkpt>
      <trkpt lat="42.92721" lon="-0.44568">
        <ele>826.390381</ele>
        <time>2013-06-05T11:43:59Z</time>
      </trkpt>
      <trkpt lat="42.92729" lon="-0.44573">
        <ele>825.428955</ele>
        <time>2013-06-05T11:44:10Z</time>
      </trkpt>
      <trkpt lat="42.92739" lon="-0.44576">
        <ele>821.58374</ele>
        <time>2013-06-05T11:44:26Z</time>
      </trkpt>
      <trkpt lat="42.9275" lon="-0.44582">
        <ele>819.180664</ele>
        <time>2013-06-05T11:44:45Z</time>
      </trkpt>
      <trkpt lat="42.92757" lon="-0.44587">
        <ele>817.738525</ele>
        <time>2013-06-05T11:44:56Z</time>
      </trkpt>
      <trkpt lat="42.92766" lon="-0.44588">
        <ele>816.777344</ele>
        <time>2013-06-05T11:45:09Z</time>
      </trkpt>
      <trkpt lat="42.9277" lon="-0.44585">
        <ele>816.777344</ele>
        <time>2013-06-05T11:45:14Z</time>
      </trkpt>
      <trkpt lat="42.92777" lon="-0.44574">
        <ele>814.854736</ele>
        <time>2013-06-05T11:45:28Z</time>
      </trkpt>
      <trkpt lat="42.92782" lon="-0.44566">
        <ele>814.374023</ele>
        <time>2013-06-05T11:45:39Z</time>
      </trkpt>
      <trkpt lat="42.92783" lon="-0.44566">
        <ele>814.374023</ele>
        <time>2013-06-05T11:45:41Z</time>
      </trkpt>
      <trkpt lat="42.92795" lon="-0.44564">
        <ele>813.893311</ele>
        <time>2013-06-05T11:45:56Z</time>
      </trkpt>
      <trkpt lat="42.92814" lon="-0.44564">
        <ele>813.893311</ele>
        <time>2013-06-05T11:46:14Z</time>
      </trkpt>
      <trkpt lat="42.92827" lon="-0.44566">
        <ele>813.412842</ele>
        <time>2013-06-05T11:46:29Z</time>
      </trkpt>
      <trkpt lat="42.92836" lon="-0.44567">
        <ele>811.970703</ele>
        <time>2013-06-05T11:46:39Z</time>
      </trkpt>
      <trkpt lat="42.9285" lon="-0.44577">
        <ele>809.08667</ele>
        <time>2013-06-05T11:47:08Z</time>
      </trkpt>
      <trkpt lat="42.92853" lon="-0.44589">
        <ele>805.722168</ele>
        <time>2013-06-05T11:47:37Z</time>
      </trkpt>
      <trkpt lat="42.92857" lon="-0.44594">
        <ele>802.357422</ele>
        <time>2013-06-05T11:47:47Z</time>
      </trkpt>
      <trkpt lat="42.92868" lon="-0.446">
        <ele>798.99292</ele>
        <time>2013-06-05T11:48:02Z</time>
      </trkpt>
      <trkpt lat="42.92875" lon="-0.44608">
        <ele>798.99292</ele>
        <time>2013-06-05T11:48:14Z</time>
      </trkpt>
      <trkpt lat="42.92888" lon="-0.44613">
        <ele>801.876953</ele>
        <time>2013-06-05T11:48:53Z</time>
      </trkpt>
      <trkpt lat="42.92897" lon="-0.44615">
        <ele>803.318848</ele>
        <time>2013-06-05T11:49:05Z</time>
      </trkpt>
      <trkpt lat="42.92906" lon="-0.44613">
        <ele>803.318848</ele>
        <time>2013-06-05T11:49:15Z</time>
      </trkpt>
      <trkpt lat="42.92914" lon="-0.44618">
        <ele>803.318848</ele>
        <time>2013-06-05T11:49:24Z</time>
      </trkpt>
      <trkpt lat="42.92926" lon="-0.44623">
        <ele>801.39624</ele>
        <time>2013-06-05T11:49:40Z</time>
      </trkpt>
      <trkpt lat="42.92935" lon="-0.44623">
        <ele>799.473633</ele>
        <time>2013-06-05T11:50:00Z</time>
      </trkpt>
      <trkpt lat="42.92941" lon="-0.44628">
        <ele>796.109131</ele>
        <time>2013-06-05T11:50:14Z</time>
      </trkpt>
      <trkpt lat="42.92951" lon="-0.44632">
        <ele>796.589844</ele>
        <time>2013-06-05T11:50:26Z</time>
      </trkpt>
      <trkpt lat="42.92969" lon="-0.44633">
        <ele>797.070313</ele>
        <time>2013-06-05T11:50:43Z</time>
      </trkpt>
      <trkpt lat="42.92977" lon="-0.44635">
        <ele>794.666748</ele>
        <time>2013-06-05T11:50:59Z</time>
      </trkpt>
      <trkpt lat="42.92989" lon="-0.44634">
        <ele>795.628174</ele>
        <time>2013-06-05T11:51:14Z</time>
      </trkpt>
      <trkpt lat="42.92992" lon="-0.4462">
        <ele>794.666748</ele>
        <time>2013-06-05T11:53:42Z</time>
      </trkpt>
      <trkpt lat="42.92997" lon="-0.44608">
        <ele>791.782959</ele>
        <time>2013-06-05T11:54:09Z</time>
      </trkpt>
      <trkpt lat="42.93007" lon="-0.44604">
        <ele>788.418457</ele>
        <time>2013-06-05T11:56:01Z</time>
      </trkpt>
      <trkpt lat="42.93002" lon="-0.44619">
        <ele>785.053955</ele>
        <time>2013-06-05T11:56:22Z</time>
      </trkpt>
      <trkpt lat="42.93002" lon="-0.4462">
        <ele>785.534424</ele>
        <time>2013-06-05T11:56:23Z</time>
      </trkpt>
      <trkpt lat="42.93008" lon="-0.44623">
        <ele>782.169922</ele>
        <time>2013-06-05T11:56:37Z</time>
      </trkpt>
      <trkpt lat="42.93013" lon="-0.44623">
        <ele>778.805176</ele>
        <time>2013-06-05T11:56:49Z</time>
      </trkpt>
      <trkpt lat="42.93013" lon="-0.44637">
        <ele>775.44043</ele>
        <time>2013-06-05T11:57:05Z</time>
      </trkpt>
      <trkpt lat="42.93018" lon="-0.44645">
        <ele>771.595215</ele>
        <time>2013-06-05T11:57:17Z</time>
      </trkpt>
      <trkpt lat="42.93018" lon="-0.44646">
        <ele>771.595215</ele>
        <time>2013-06-05T11:57:18Z</time>
      </trkpt>
      <trkpt lat="42.93025" lon="-0.44654">
        <ele>770.634033</ele>
        <time>2013-06-05T11:57:33Z</time>
      </trkpt>
      <trkpt lat="42.93037" lon="-0.4465">
        <ele>766.788818</ele>
        <time>2013-06-05T11:57:57Z</time>
      </trkpt>
      <trkpt lat="42.93041" lon="-0.44648">
        <ele>763.904541</ele>
        <time>2013-06-05T11:58:24Z</time>
      </trkpt>
      <trkpt lat="42.93047" lon="-0.44648">
        <ele>760.540039</ele>
        <time>2013-06-05T11:58:40Z</time>
      </trkpt>
      <trkpt lat="42.93054" lon="-0.44652">
        <ele>757.65625</ele>
        <time>2013-06-05T11:58:58Z</time>
      </trkpt>
      <trkpt lat="42.9306" lon="-0.44657">
        <ele>754.291748</ele>
        <time>2013-06-05T11:59:11Z</time>
      </trkpt>
      <trkpt lat="42.93061" lon="-0.44657">
        <ele>755.25293</ele>
        <time>2013-06-05T11:59:12Z</time>
      </trkpt>
      <trkpt lat="42.93068" lon="-0.44655">
        <ele>752.849609</ele>
        <time>2013-06-05T11:59:22Z</time>
      </trkpt>
      <trkpt lat="42.93078" lon="-0.44671">
        <ele>751.407715</ele>
        <time>2013-06-05T12:01:36Z</time>
      </trkpt>
      <trkpt lat="42.93083" lon="-0.44664">
        <ele>752.849609</ele>
        <time>2013-06-05T12:01:52Z</time>
      </trkpt>
      <trkpt lat="42.9309" lon="-0.44659">
        <ele>751.407715</ele>
        <time>2013-06-05T12:02:02Z</time>
      </trkpt>
      <trkpt lat="42.93096" lon="-0.44658">
        <ele>751.407715</ele>
        <time>2013-06-05T12:02:10Z</time>
      </trkpt>
      <trkpt lat="42.93105" lon="-0.44653">
        <ele>749.96582</ele>
        <time>2013-06-05T12:02:21Z</time>
      </trkpt>
      <trkpt lat="42.93115" lon="-0.44643">
        <ele>751.888428</ele>
        <time>2013-06-05T12:02:40Z</time>
      </trkpt>
      <trkpt lat="42.93127" lon="-0.44632">
        <ele>752.849609</ele>
        <time>2013-06-05T12:02:52Z</time>
      </trkpt>
      <trkpt lat="42.93137" lon="-0.44626">
        <ele>753.330322</ele>
        <time>2013-06-05T12:03:02Z</time>
      </trkpt>
      <trkpt lat="42.93146" lon="-0.4462">
        <ele>752.368896</ele>
        <time>2013-06-05T12:03:19Z</time>
      </trkpt>
      <trkpt lat="42.93158" lon="-0.44616">
        <ele>749.004395</ele>
        <time>2013-06-05T12:03:44Z</time>
      </trkpt>
      <trkpt lat="42.93169" lon="-0.44608">
        <ele>752.368896</ele>
        <time>2013-06-05T12:04:19Z</time>
      </trkpt>
      <trkpt lat="42.93173" lon="-0.44599">
        <ele>755.25293</ele>
        <time>2013-06-05T12:04:35Z</time>
      </trkpt>
      <trkpt lat="42.93179" lon="-0.44598">
        <ele>758.617432</ele>
        <time>2013-06-05T12:04:51Z</time>
      </trkpt>
      <trkpt lat="42.9319" lon="-0.4459">
        <ele>760.540039</ele>
        <time>2013-06-05T12:05:12Z</time>
      </trkpt>
      <trkpt lat="42.93197" lon="-0.44574">
        <ele>759.098145</ele>
        <time>2013-06-05T12:05:43Z</time>
      </trkpt>
      <trkpt lat="42.9321" lon="-0.4457">
        <ele>759.578857</ele>
        <time>2013-06-05T12:05:59Z</time>
      </trkpt>
      <trkpt lat="42.93213" lon="-0.44569">
        <ele>758.136963</ele>
        <time>2013-06-05T12:06:05Z</time>
      </trkpt>
      <trkpt lat="42.9321" lon="-0.44576">
        <ele>754.291748</ele>
        <time>2013-06-05T12:06:25Z</time>
      </trkpt>
      <trkpt lat="42.93213" lon="-0.44578">
        <ele>753.330322</ele>
        <time>2013-06-05T12:06:31Z</time>
      </trkpt>
      <trkpt lat="42.9322" lon="-0.44577">
        <ele>750.927002</ele>
        <time>2013-06-05T12:06:40Z</time>
      </trkpt>
      <trkpt lat="42.93228" lon="-0.44576">
        <ele>749.96582</ele>
        <time>2013-06-05T12:06:49Z</time>
      </trkpt>
      <trkpt lat="42.93237" lon="-0.44578">
        <ele>750.446533</ele>
        <time>2013-06-05T12:06:59Z</time>
      </trkpt>
      <trkpt lat="42.93243" lon="-0.44582">
        <ele>749.004395</ele>
        <time>2013-06-05T12:07:11Z</time>
      </trkpt>
      <trkpt lat="42.93257" lon="-0.44585">
        <ele>749.485107</ele>
        <time>2013-06-05T12:07:25Z</time>
      </trkpt>
      <trkpt lat="42.93275" lon="-0.44585">
        <ele>750.446533</ele>
        <time>2013-06-05T12:07:41Z</time>
      </trkpt>
      <trkpt lat="42.93289" lon="-0.44583">
        <ele>750.927002</ele>
        <time>2013-06-05T12:07:54Z</time>
      </trkpt>
      <trkpt lat="42.93294" lon="-0.4458">
        <ele>750.927002</ele>
        <time>2013-06-05T12:07:58Z</time>
      </trkpt>
      <trkpt lat="42.93305" lon="-0.44579">
        <ele>750.446533</ele>
        <time>2013-06-05T12:08:08Z</time>
      </trkpt>
      <trkpt lat="42.9332" lon="-0.44575">
        <ele>750.927002</ele>
        <time>2013-06-05T12:08:21Z</time>
      </trkpt>
      <trkpt lat="42.93336" lon="-0.44571">
        <ele>751.407715</ele>
        <time>2013-06-05T12:08:34Z</time>
      </trkpt>
      <trkpt lat="42.93356" lon="-0.44562">
        <ele>751.888428</ele>
        <time>2013-06-05T12:08:52Z</time>
      </trkpt>
      <trkpt lat="42.9337" lon="-0.44559">
        <ele>751.407715</ele>
        <time>2013-06-05T12:09:04Z</time>
      </trkpt>
      <trkpt lat="42.93384" lon="-0.44538">
        <ele>751.888428</ele>
        <time>2013-06-05T12:09:22Z</time>
      </trkpt>
      <trkpt lat="42.93399" lon="-0.44523">
        <ele>753.811035</ele>
        <time>2013-06-05T12:15:01Z</time>
      </trkpt>
      <trkpt lat="42.93408" lon="-0.44516">
        <ele>753.811035</ele>
        <time>2013-06-05T12:15:14Z</time>
      </trkpt>
      <trkpt lat="42.93417" lon="-0.44516">
        <ele>750.446533</ele>
        <time>2013-06-05T12:15:28Z</time>
      </trkpt>
      <trkpt lat="42.93434" lon="-0.44514">
        <ele>749.004395</ele>
        <time>2013-06-05T12:15:44Z</time>
      </trkpt>
      <trkpt lat="42.9344" lon="-0.44512">
        <ele>747.562256</ele>
        <time>2013-06-05T12:15:51Z</time>
      </trkpt>
      <trkpt lat="42.93444" lon="-0.44513">
        <ele>748.043213</ele>
        <time>2013-06-05T12:15:56Z</time>
      </trkpt>
      <trkpt lat="42.93454" lon="-0.44509">
        <ele>748.043213</ele>
        <time>2013-06-05T12:16:07Z</time>
      </trkpt>
      <trkpt lat="42.93458" lon="-0.44509">
        <ele>748.523682</ele>
        <time>2013-06-05T12:16:10Z</time>
      </trkpt>
      <trkpt lat="42.93461" lon="-0.44508">
        <ele>748.043213</ele>
        <time>2013-06-05T12:16:13Z</time>
      </trkpt>
      <trkpt lat="42.93466" lon="-0.44505">
        <ele>747.562256</ele>
        <time>2013-06-05T12:16:18Z</time>
      </trkpt>
      <trkpt lat="42.93472" lon="-0.44495">
        <ele>747.562256</ele>
        <time>2013-06-05T12:16:28Z</time>
      </trkpt>
      <trkpt lat="42.93483" lon="-0.4449">
        <ele>748.523682</ele>
        <time>2013-06-05T12:16:40Z</time>
      </trkpt>
      <trkpt lat="42.93489" lon="-0.44486">
        <ele>748.043213</ele>
        <time>2013-06-05T12:16:51Z</time>
      </trkpt>
      <trkpt lat="42.93495" lon="-0.44477">
        <ele>748.043213</ele>
        <time>2013-06-05T12:17:01Z</time>
      </trkpt>
      <trkpt lat="42.93498" lon="-0.44466">
        <ele>749.004395</ele>
        <time>2013-06-05T12:17:13Z</time>
      </trkpt>
      <trkpt lat="42.93498" lon="-0.44464">
        <ele>749.004395</ele>
        <time>2013-06-05T12:17:15Z</time>
      </trkpt>
      <trkpt lat="42.93494" lon="-0.44455">
        <ele>749.96582</ele>
        <time>2013-06-05T12:17:27Z</time>
      </trkpt>
      <trkpt lat="42.935" lon="-0.44445">
        <ele>749.96582</ele>
        <time>2013-06-05T12:17:39Z</time>
      </trkpt>
      <trkpt lat="42.9352" lon="-0.44434">
        <ele>750.927002</ele>
        <time>2013-06-05T12:17:59Z</time>
      </trkpt>
      <trkpt lat="42.93535" lon="-0.44421">
        <ele>751.407715</ele>
        <time>2013-06-05T12:18:14Z</time>
      </trkpt>
      <trkpt lat="42.93545" lon="-0.44407">
        <ele>750.446533</ele>
        <time>2013-06-05T12:18:25Z</time>
      </trkpt>
      <trkpt lat="42.9355" lon="-0.444">
        <ele>751.407715</ele>
        <time>2013-06-05T12:18:36Z</time>
      </trkpt>
      <trkpt lat="42.93552" lon="-0.44385">
        <ele>751.407715</ele>
        <time>2013-06-05T12:18:47Z</time>
      </trkpt>
      <trkpt lat="42.93561" lon="-0.44369">
        <ele>747.562256</ele>
        <time>2013-06-05T12:19:07Z</time>
      </trkpt>
      <trkpt lat="42.93573" lon="-0.44355">
        <ele>744.678223</ele>
        <time>2013-06-05T12:19:33Z</time>
      </trkpt>
    </trkseg>
  </trk>
  <trk>
    <name><![CDATA[ACTIVE LOG 003]]></name>
    <trkseg>
      <trkpt lat="42.93578" lon="-0.44345">
        <ele>744.197754</ele>
        <time>2013-06-05T12:19:45Z</time>
      </trkpt>
    </trkseg>
  </trk>
  <trk>
    <name><![CDATA[ACTIVE LOG 004]]></name>
    <trkseg>
      <trkpt lat="42.93589" lon="-0.44401">
        <ele>744.678223</ele>
        <time>2013-06-05T12:20:23Z</time>
      </trkpt>
    </trkseg>
  </trk>
  <trk>
    <name><![CDATA[ACTIVE LOG 005]]></name>
    <trkseg>
      <trkpt lat="42.93589" lon="-0.44401">
        <ele>747.081543</ele>
        <time>2013-06-05T12:21:49Z</time>
      </trkpt>
    </trkseg>
  </trk>
  <trk>
    <name><![CDATA[ACTIVE LOG 006]]></name>
    <trkseg>
      <trkpt lat="42.93638" lon="-0.4437">
        <ele>746.601074</ele>
        <time>2013-06-05T12:23:50Z</time>
      </trkpt>
      <trkpt lat="42.93641" lon="-0.44371">
        <ele>743.717041</ele>
        <time>2013-06-05T12:24:50Z</time>
      </trkpt>
      <trkpt lat="42.93641" lon="-0.4437">
        <ele>740.352539</ele>
        <time>2013-06-05T12:33:27Z</time>
      </trkpt>
      <trkpt lat="42.93639" lon="-0.44373">
        <ele>737.468506</ele>
        <time>2013-06-05T12:42:38Z</time>
      </trkpt>
      <trkpt lat="42.93632" lon="-0.44372">
        <ele>740.833008</ele>
        <time>2013-06-05T12:46:48Z</time>
      </trkpt>
      <trkpt lat="42.93634" lon="-0.44371">
        <ele>740.352539</ele>
        <time>2013-06-05T12:47:12Z</time>
      </trkpt>
      <trkpt lat="42.9363" lon="-0.44367">
        <ele>740.833008</ele>
        <time>2013-06-05T12:51:15Z</time>
      </trkpt>
      <trkpt lat="42.93637" lon="-0.44376">
        <ele>741.794434</ele>
        <time>2013-06-05T12:51:34Z</time>
      </trkpt>
      <trkpt lat="42.9365" lon="-0.44376">
        <ele>742.275146</ele>
        <time>2013-06-05T12:52:21Z</time>
      </trkpt>
      <trkpt lat="42.93669" lon="-0.44363">
        <ele>742.275146</ele>
        <time>2013-06-05T12:52:40Z</time>
      </trkpt>
      <trkpt lat="42.93675" lon="-0.44356">
        <ele>742.275146</ele>
        <time>2013-06-05T12:52:47Z</time>
      </trkpt>
      <trkpt lat="42.93696" lon="-0.44345">
        <ele>741.313721</ele>
        <time>2013-06-05T12:53:04Z</time>
      </trkpt>
      <trkpt lat="42.93704" lon="-0.44336">
        <ele>738.910645</ele>
        <time>2013-06-05T12:53:15Z</time>
      </trkpt>
      <trkpt lat="42.93705" lon="-0.44335">
        <ele>738.910645</ele>
        <time>2013-06-05T12:53:16Z</time>
      </trkpt>
      <trkpt lat="42.93709" lon="-0.44325">
        <ele>737.949219</ele>
        <time>2013-06-05T12:53:25Z</time>
      </trkpt>
      <trkpt lat="42.93717" lon="-0.44314">
        <ele>736.987793</ele>
        <time>2013-06-05T12:53:37Z</time>
      </trkpt>
      <trkpt lat="42.93729" lon="-0.44312">
        <ele>735.545898</ele>
        <time>2013-06-05T12:53:44Z</time>
      </trkpt>
      <trkpt lat="42.93739" lon="-0.44298">
        <ele>734.584717</ele>
        <time>2013-06-05T12:53:59Z</time>
      </trkpt>
      <trkpt lat="42.93734" lon="-0.44285">
        <ele>735.06543</ele>
        <time>2013-06-05T12:54:18Z</time>
      </trkpt>
      <trkpt lat="42.93732" lon="-0.44283">
        <ele>735.06543</ele>
        <time>2013-06-05T12:54:28Z</time>
      </trkpt>
      <trkpt lat="42.93722" lon="-0.44284">
        <ele>737.468506</ele>
        <time>2013-06-05T12:54:56Z</time>
      </trkpt>
      <trkpt lat="42.93722" lon="-0.44286">
        <ele>738.910645</ele>
        <time>2013-06-05T12:54:59Z</time>
      </trkpt>
      <trkpt lat="42.93721" lon="-0.44289">
        <ele>739.871826</ele>
        <time>2013-06-05T12:55:06Z</time>
      </trkpt>
      <trkpt lat="42.93725" lon="-0.44293">
        <ele>742.755859</ele>
        <time>2013-06-05T12:55:18Z</time>
      </trkpt>
      <trkpt lat="42.93736" lon="-0.44292">
        <ele>743.717041</ele>
        <time>2013-06-05T12:55:30Z</time>
      </trkpt>
      <trkpt lat="42.93743" lon="-0.44294">
        <ele>744.197754</ele>
        <time>2013-06-05T12:55:36Z</time>
      </trkpt>
      <trkpt lat="42.93757" lon="-0.44296">
        <ele>744.197754</ele>
        <time>2013-06-05T12:55:50Z</time>
      </trkpt>
      <trkpt lat="42.93771" lon="-0.443">
        <ele>743.717041</ele>
        <time>2013-06-05T12:56:06Z</time>
      </trkpt>
      <trkpt lat="42.9378" lon="-0.44306">
        <ele>744.197754</ele>
        <time>2013-06-05T12:56:15Z</time>
      </trkpt>
      <trkpt lat="42.93792" lon="-0.44313">
        <ele>744.197754</ele>
        <time>2013-06-05T12:56:26Z</time>
      </trkpt>
      <trkpt lat="42.93794" lon="-0.44314">
        <ele>744.197754</ele>
        <time>2013-06-05T12:56:27Z</time>
      </trkpt>
      <trkpt lat="42.93814" lon="-0.44331">
        <ele>743.717041</ele>
        <time>2013-06-05T12:56:46Z</time>
      </trkpt>
      <trkpt lat="42.93837" lon="-0.44345">
        <ele>743.236328</ele>
        <time>2013-06-05T12:56:58Z</time>
      </trkpt>
      <trkpt lat="42.93858" lon="-0.44357">
        <ele>743.717041</ele>
        <time>2013-06-05T12:57:10Z</time>
      </trkpt>
      <trkpt lat="42.93883" lon="-0.44375">
        <ele>743.717041</ele>
        <time>2013-06-05T12:57:26Z</time>
      </trkpt>
      <trkpt lat="42.93897" lon="-0.4438">
        <ele>744.197754</ele>
        <time>2013-06-05T12:57:46Z</time>
      </trkpt>
      <trkpt lat="42.93907" lon="-0.44389">
        <ele>744.678223</ele>
        <time>2013-06-05T12:58:05Z</time>
      </trkpt>
      <trkpt lat="42.93917" lon="-0.44392">
        <ele>745.158936</ele>
        <time>2013-06-05T12:58:17Z</time>
      </trkpt>
      <trkpt lat="42.93927" lon="-0.44396">
        <ele>744.678223</ele>
        <time>2013-06-05T12:58:27Z</time>
      </trkpt>
      <trkpt lat="42.93933" lon="-0.444">
        <ele>746.120361</ele>
        <time>2013-06-05T12:58:35Z</time>
      </trkpt>
      <trkpt lat="42.93957" lon="-0.44405">
        <ele>746.120361</ele>
        <time>2013-06-05T12:59:09Z</time>
      </trkpt>
      <trkpt lat="42.93963" lon="-0.44401">
        <ele>745.639648</ele>
        <time>2013-06-05T12:59:18Z</time>
      </trkpt>
      <trkpt lat="42.93978" lon="-0.44403">
        <ele>744.197754</ele>
        <time>2013-06-05T12:59:36Z</time>
      </trkpt>
      <trkpt lat="42.93978" lon="-0.44401">
        <ele>747.081543</ele>
        <time>2013-06-05T13:00:23Z</time>
      </trkpt>
      <trkpt lat="42.93974" lon="-0.44389">
        <ele>747.081543</ele>
        <time>2013-06-05T13:01:39Z</time>
      </trkpt>
      <trkpt lat="42.93983" lon="-0.44391">
        <ele>747.562256</ele>
        <time>2013-06-05T13:01:49Z</time>
      </trkpt>
      <trkpt lat="42.9401" lon="-0.44386">
        <ele>748.043213</ele>
        <time>2013-06-05T13:02:24Z</time>
      </trkpt>
      <trkpt lat="42.94024" lon="-0.44385">
        <ele>748.043213</ele>
        <time>2013-06-05T13:02:37Z</time>
      </trkpt>
      <trkpt lat="42.9405" lon="-0.44377">
        <ele>746.601074</ele>
        <time>2013-06-05T13:03:00Z</time>
      </trkpt>
    </trkseg>
  </trk>
  <trk>
    <name><![CDATA[ACTIVE LOG 007]]></name>
    <trkseg>
      <trkpt lat="42.94083" lon="-0.44356">
        <ele>745.639648</ele>
        <time>2013-06-05T13:03:34Z</time>
      </trkpt>
    </trkseg>
  </trk>
  <trk>
    <name><![CDATA[ACTIVE LOG 008]]></name>
    <trkseg>
      <trkpt lat="42.94126" lon="-0.44391">
        <ele>745.158936</ele>
        <time>2013-06-05T13:04:25Z</time>
      </trkpt>
    </trkseg>
  </trk>
  <trk>
    <name><![CDATA[ACTIVE LOG 009]]></name>
    <trkseg>
      <trkpt lat="42.94152" lon="-0.44357">
        <ele>745.158936</ele>
        <time>2013-06-05T13:04:56Z</time>
      </trkpt>
    </trkseg>
  </trk>
  <trk>
    <name><![CDATA[ACTIVE LOG 010]]></name>
    <trkseg>
      <trkpt lat="42.94168" lon="-0.44384">
        <ele>744.678223</ele>
        <time>2013-06-05T13:05:22Z</time>
      </trkpt>
    </trkseg>
  </trk>
  <trk>
    <name><![CDATA[ACTIVE LOG 011]]></name>
    <trkseg>
      <trkpt lat="42.94167" lon="-0.44384">
        <ele>744.678223</ele>
        <time>2013-06-05T13:06:01Z</time>
      </trkpt>
    </trkseg>
  </trk>
  <trk>
    <name><![CDATA[ACTIVE LOG 012]]></name>
    <trkseg>
      <trkpt lat="42.94191" lon="-0.44393">
        <ele>744.197754</ele>
        <time>2013-06-05T13:10:02Z</time>
      </trkpt>
      <trkpt lat="42.94202" lon="-0.44388">
        <ele>745.158936</ele>
        <time>2013-06-05T13:12:07Z</time>
      </trkpt>
      <trkpt lat="42.9422" lon="-0.44382">
        <ele>746.601074</ele>
        <time>2013-06-05T13:12:30Z</time>
      </trkpt>
      <trkpt lat="42.94228" lon="-0.44384">
        <ele>746.601074</ele>
        <time>2013-06-05T13:13:07Z</time>
      </trkpt>
      <trkpt lat="42.94245" lon="-0.44381">
        <ele>746.601074</ele>
        <time>2013-06-05T13:15:55Z</time>
      </trkpt>
      <trkpt lat="42.94268" lon="-0.44381">
        <ele>749.485107</ele>
        <time>2013-06-05T13:16:15Z</time>
      </trkpt>
      <trkpt lat="42.94293" lon="-0.44382">
        <ele>751.888428</ele>
        <time>2013-06-05T13:16:37Z</time>
      </trkpt>
      <trkpt lat="42.94294" lon="-0.44383">
        <ele>751.407715</ele>
        <time>2013-06-05T13:16:38Z</time>
      </trkpt>
      <trkpt lat="42.94316" lon="-0.44387">
        <ele>753.330322</ele>
        <time>2013-06-05T13:16:57Z</time>
      </trkpt>
      <trkpt lat="42.9432" lon="-0.44387">
        <ele>755.25293</ele>
        <time>2013-06-05T13:17:00Z</time>
      </trkpt>
      <trkpt lat="42.94343" lon="-0.44391">
        <ele>756.694824</ele>
        <time>2013-06-05T13:17:19Z</time>
      </trkpt>
      <trkpt lat="42.94363" lon="-0.44392">
        <ele>759.578857</ele>
        <time>2013-06-05T13:17:36Z</time>
      </trkpt>
      <trkpt lat="42.94373" lon="-0.44393">
        <ele>760.059326</ele>
        <time>2013-06-05T13:17:45Z</time>
      </trkpt>
      <trkpt lat="42.94386" lon="-0.44393">
        <ele>761.501465</ele>
        <time>2013-06-05T13:17:55Z</time>
      </trkpt>
      <trkpt lat="42.94387" lon="-0.44393">
        <ele>760.540039</ele>
        <time>2013-06-05T13:17:56Z</time>
      </trkpt>
      <trkpt lat="42.94391" lon="-0.44391">
        <ele>761.982178</ele>
        <time>2013-06-05T13:17:59Z</time>
      </trkpt>
      <trkpt lat="42.94413" lon="-0.44388">
        <ele>764.385498</ele>
        <time>2013-06-05T13:18:16Z</time>
      </trkpt>
    </trkseg>
  </trk>
  <trk>
    <name><![CDATA[ACTIVE LOG 013]]></name>
    <trkseg>
      <trkpt lat="42.94444" lon="-0.44383">
        <ele>766.308105</ele>
        <time>2013-06-05T13:18:43Z</time>
      </trkpt>
      <trkpt lat="42.94444" lon="-0.44383">
        <ele>769.672852</ele>
        <time>2013-06-05T13:18:56Z</time>
      </trkpt>
    </trkseg>
  </trk>
  <trk>
    <name><![CDATA[ACTIVE LOG 014]]></name>
    <trkseg>
      <trkpt lat="42.94472" lon="-0.44398">
        <ele>770.15332</ele>
        <time>2013-06-05T13:19:01Z</time>
      </trkpt>
      <trkpt lat="42.94491" lon="-0.44398">
        <ele>772.075928</ele>
        <time>2013-06-05T13:19:16Z</time>
      </trkpt>
      <trkpt lat="42.94513" lon="-0.44398">
        <ele>772.075928</ele>
        <time>2013-06-05T13:19:33Z</time>
      </trkpt>
      <trkpt lat="42.94522" lon="-0.44401">
        <ele>773.037354</ele>
        <time>2013-06-05T13:19:40Z</time>
      </trkpt>
      <trkpt lat="42.94524" lon="-0.44402">
        <ele>774.479248</ele>
        <time>2013-06-05T13:19:42Z</time>
      </trkpt>
      <trkpt lat="42.94536" lon="-0.44411">
        <ele>775.44043</ele>
        <time>2013-06-05T13:19:53Z</time>
      </trkpt>
      <trkpt lat="42.94539" lon="-0.44411">
        <ele>775.921143</ele>
        <time>2013-06-05T13:19:55Z</time>
      </trkpt>
      <trkpt lat="42.94544" lon="-0.44416">
        <ele>776.401855</ele>
        <time>2013-06-05T13:20:00Z</time>
      </trkpt>
      <trkpt lat="42.94547" lon="-0.44416">
        <ele>776.401855</ele>
        <time>2013-06-05T13:20:02Z</time>
      </trkpt>
      <trkpt lat="42.94554" lon="-0.4442">
        <ele>777.363281</ele>
        <time>2013-06-05T13:20:08Z</time>
      </trkpt>
      <trkpt lat="42.94556" lon="-0.44422">
        <ele>778.324463</ele>
        <time>2013-06-05T13:20:10Z</time>
      </trkpt>
      <trkpt lat="42.9457" lon="-0.4443">
        <ele>779.766357</ele>
        <time>2013-06-05T13:20:24Z</time>
      </trkpt>
      <trkpt lat="42.94587" lon="-0.44437">
        <ele>779.766357</ele>
        <time>2013-06-05T13:20:36Z</time>
      </trkpt>
      <trkpt lat="42.94594" lon="-0.44439">
        <ele>781.20874</ele>
        <time>2013-06-05T13:20:43Z</time>
      </trkpt>
      <trkpt lat="42.94601" lon="-0.44445">
        <ele>781.689209</ele>
        <time>2013-06-05T13:20:48Z</time>
      </trkpt>
      <trkpt lat="42.94617" lon="-0.44451">
        <ele>782.650635</ele>
        <time>2013-06-05T13:21:02Z</time>
      </trkpt>
      <trkpt lat="42.94627" lon="-0.44457">
        <ele>784.092529</ele>
        <time>2013-06-05T13:21:09Z</time>
      </trkpt>
      <trkpt lat="42.94631" lon="-0.44461">
        <ele>784.573242</ele>
        <time>2013-06-05T13:21:14Z</time>
      </trkpt>
      <trkpt lat="42.94637" lon="-0.44464">
        <ele>784.573242</ele>
        <time>2013-06-05T13:21:19Z</time>
      </trkpt>
      <trkpt lat="42.94655" lon="-0.44475">
        <ele>786.49585</ele>
        <time>2013-06-05T13:21:34Z</time>
      </trkpt>
      <trkpt lat="42.94675" lon="-0.44489">
        <ele>788.418457</ele>
        <time>2013-06-05T13:21:48Z</time>
      </trkpt>
      <trkpt lat="42.947" lon="-0.44515">
        <ele>791.782959</ele>
        <time>2013-06-05T13:22:10Z</time>
      </trkpt>
    </trkseg>
  </trk>
  <trk>
    <name><![CDATA[ACTIVE LOG 015]]></name>
    <trkseg>
      <trkpt lat="42.94703" lon="-0.44518">
        <ele>792.263672</ele>
        <time>2013-06-05T13:22:14Z</time>
      </trkpt>
      <trkpt lat="42.94703" lon="-0.44518">
        <ele>792.263672</ele>
        <time>2013-06-05T13:22:17Z</time>
      </trkpt>
      <trkpt lat="42.94761" lon="-0.4455">
        <ele>793.224854</ele>
        <time>2013-06-05T13:22:33Z</time>
      </trkpt>
      <trkpt lat="42.94781" lon="-0.4456">
        <ele>794.186279</ele>
        <time>2013-06-05T13:22:45Z</time>
      </trkpt>
      <trkpt lat="42.94836" lon="-0.44583">
        <ele>795.147461</ele>
        <time>2013-06-05T13:22:56Z</time>
      </trkpt>
      <trkpt lat="42.94882" lon="-0.44602">
        <ele>798.512207</ele>
        <time>2013-06-05T13:23:05Z</time>
      </trkpt>
      <trkpt lat="42.94885" lon="-0.44616">
        <ele>799.954346</ele>
        <time>2013-06-05T13:23:20Z</time>
      </trkpt>
      <trkpt lat="42.94894" lon="-0.44626">
        <ele>801.39624</ele>
        <time>2013-06-05T13:23:25Z</time>
      </trkpt>
      <trkpt lat="42.94899" lon="-0.44651">
        <ele>802.357422</ele>
        <time>2013-06-05T13:23:37Z</time>
      </trkpt>
      <trkpt lat="42.94903" lon="-0.44671">
        <ele>803.799561</ele>
        <time>2013-06-05T13:23:49Z</time>
      </trkpt>
      <trkpt lat="42.94907" lon="-0.44684">
        <ele>804.760742</ele>
        <time>2013-06-05T13:24:03Z</time>
      </trkpt>
      <trkpt lat="42.94908" lon="-0.44683">
        <ele>804.280273</ele>
        <time>2013-06-05T13:24:07Z</time>
      </trkpt>
      <trkpt lat="42.94909" lon="-0.44679">
        <ele>803.799561</ele>
        <time>2013-06-05T13:24:10Z</time>
      </trkpt>
      <trkpt lat="42.94907" lon="-0.44673">
        <ele>804.280273</ele>
        <time>2013-06-05T13:24:14Z</time>
      </trkpt>
      <trkpt lat="42.94869" lon="-0.44652">
        <ele>804.280273</ele>
        <time>2013-06-05T13:24:29Z</time>
      </trkpt>
      <trkpt lat="42.9481" lon="-0.44645">
        <ele>800.915527</ele>
        <time>2013-06-05T13:25:22Z</time>
      </trkpt>
      <trkpt lat="42.94804" lon="-0.44634">
        <ele>801.39624</ele>
        <time>2013-06-05T13:25:53Z</time>
      </trkpt>
      <trkpt lat="42.94802" lon="-0.44613">
        <ele>802.357422</ele>
        <time>2013-06-05T13:26:06Z</time>
      </trkpt>
      <trkpt lat="42.94799" lon="-0.4459">
        <ele>804.280273</ele>
        <time>2013-06-05T13:26:21Z</time>
      </trkpt>
      <trkpt lat="42.94797" lon="-0.44575">
        <ele>804.760742</ele>
        <time>2013-06-05T13:26:29Z</time>
      </trkpt>
      <trkpt lat="42.94795" lon="-0.44562">
        <ele>805.722168</ele>
        <time>2013-06-05T13:26:36Z</time>
      </trkpt>
      <trkpt lat="42.94795" lon="-0.44532">
        <ele>808.125488</ele>
        <time>2013-06-05T13:26:52Z</time>
      </trkpt>
      <trkpt lat="42.94795" lon="-0.44523">
        <ele>807.644775</ele>
        <time>2013-06-05T13:26:57Z</time>
      </trkpt>
      <trkpt lat="42.94802" lon="-0.44498">
        <ele>811.48999</ele>
        <time>2013-06-05T13:27:13Z</time>
      </trkpt>
      <trkpt lat="42.94814" lon="-0.44482">
        <ele>812.451416</ele>
        <time>2013-06-05T13:27:27Z</time>
      </trkpt>
      <trkpt lat="42.94825" lon="-0.44482">
        <ele>812.932129</ele>
        <time>2013-06-05T13:27:37Z</time>
      </trkpt>
      <trkpt lat="42.94839" lon="-0.44491">
        <ele>814.854736</ele>
        <time>2013-06-05T13:27:49Z</time>
      </trkpt>
      <trkpt lat="42.94849" lon="-0.44503">
        <ele>817.258057</ele>
        <time>2013-06-05T13:28:01Z</time>
      </trkpt>
      <trkpt lat="42.94852" lon="-0.44507">
        <ele>817.738525</ele>
        <time>2013-06-05T13:28:05Z</time>
      </trkpt>
      <trkpt lat="42.94857" lon="-0.4452">
        <ele>819.661377</ele>
        <time>2013-06-05T13:28:17Z</time>
      </trkpt>
      <trkpt lat="42.94859" lon="-0.44525">
        <ele>820.141846</ele>
        <time>2013-06-05T13:28:26Z</time>
      </trkpt>
      <trkpt lat="42.9486" lon="-0.44522">
        <ele>819.180664</ele>
        <time>2013-06-05T13:28:30Z</time>
      </trkpt>
      <trkpt lat="42.94863" lon="-0.44512">
        <ele>818.219238</ele>
        <time>2013-06-05T13:28:46Z</time>
      </trkpt>
      <trkpt lat="42.94862" lon="-0.44506">
        <ele>815.816162</ele>
        <time>2013-06-05T13:29:00Z</time>
      </trkpt>
      <trkpt lat="42.94859" lon="-0.44503">
        <ele>814.374023</ele>
        <time>2013-06-05T13:29:05Z</time>
      </trkpt>
      <trkpt lat="42.94857" lon="-0.44496">
        <ele>812.451416</ele>
        <time>2013-06-05T13:29:15Z</time>
      </trkpt>
      <trkpt lat="42.94852" lon="-0.4449">
        <ele>810.047852</ele>
        <time>2013-06-05T13:29:25Z</time>
      </trkpt>
      <trkpt lat="42.9485" lon="-0.44489">
        <ele>809.567383</ele>
        <time>2013-06-05T13:29:27Z</time>
      </trkpt>
      <trkpt lat="42.94843" lon="-0.44482">
        <ele>809.08667</ele>
        <time>2013-06-05T13:29:37Z</time>
      </trkpt>
      <trkpt lat="42.94821" lon="-0.44471">
        <ele>805.722168</ele>
        <time>2013-06-05T13:30:01Z</time>
      </trkpt>
      <trkpt lat="42.94817" lon="-0.4447">
        <ele>805.241455</ele>
        <time>2013-06-05T13:30:05Z</time>
      </trkpt>
      <trkpt lat="42.948" lon="-0.44474">
        <ele>801.876953</ele>
        <time>2013-06-05T13:30:20Z</time>
      </trkpt>
      <trkpt lat="42.94788" lon="-0.44484">
        <ele>798.99292</ele>
        <time>2013-06-05T13:30:32Z</time>
      </trkpt>
      <trkpt lat="42.9478" lon="-0.44502">
        <ele>797.070313</ele>
        <time>2013-06-05T13:30:49Z</time>
      </trkpt>
      <trkpt lat="42.94776" lon="-0.44512">
        <ele>794.186279</ele>
        <time>2013-06-05T13:30:59Z</time>
      </trkpt>
      <trkpt lat="42.94776" lon="-0.44512">
        <ele>794.186279</ele>
        <time>2013-06-05T13:31:00Z</time>
      </trkpt>
      <trkpt lat="42.94776" lon="-0.44507">
        <ele>793.705566</ele>
        <time>2013-06-05T13:31:04Z</time>
      </trkpt>
      <trkpt lat="42.94775" lon="-0.44491">
        <ele>791.302246</ele>
        <time>2013-06-05T13:31:17Z</time>
      </trkpt>
      <trkpt lat="42.94777" lon="-0.44467">
        <ele>787.937744</ele>
        <time>2013-06-05T13:31:36Z</time>
      </trkpt>
      <trkpt lat="42.94786" lon="-0.44453">
        <ele>784.573242</ele>
        <time>2013-06-05T13:31:50Z</time>
      </trkpt>
      <trkpt lat="42.94797" lon="-0.44444">
        <ele>781.689209</ele>
        <time>2013-06-05T13:32:07Z</time>
      </trkpt>
      <trkpt lat="42.94803" lon="-0.44442">
        <ele>778.324463</ele>
        <time>2013-06-05T13:32:16Z</time>
      </trkpt>
      <trkpt lat="42.94805" lon="-0.44442">
        <ele>778.805176</ele>
        <time>2013-06-05T13:32:18Z</time>
      </trkpt>
      <trkpt lat="42.94814" lon="-0.44445">
        <ele>774.959961</ele>
        <time>2013-06-05T13:32:29Z</time>
      </trkpt>
      <trkpt lat="42.94817" lon="-0.44446">
        <ele>774.479248</ele>
        <time>2013-06-05T13:32:35Z</time>
      </trkpt>
      <trkpt lat="42.94824" lon="-0.4445">
        <ele>773.037354</ele>
        <time>2013-06-05T13:32:48Z</time>
      </trkpt>
      <trkpt lat="42.94829" lon="-0.44451">
        <ele>771.595215</ele>
        <time>2013-06-05T13:32:58Z</time>
      </trkpt>
      <trkpt lat="42.94835" lon="-0.44455">
        <ele>769.192139</ele>
        <time>2013-06-05T13:33:11Z</time>
      </trkpt>
      <trkpt lat="42.9484" lon="-0.44456">
        <ele>767.75</ele>
        <time>2013-06-05T13:33:20Z</time>
      </trkpt>
      <trkpt lat="42.94848" lon="-0.44458">
        <ele>764.866211</ele>
        <time>2013-06-05T13:33:32Z</time>
      </trkpt>
      <trkpt lat="42.94856" lon="-0.44458">
        <ele>763.904541</ele>
        <time>2013-06-05T13:33:42Z</time>
      </trkpt>
      <trkpt lat="42.94859" lon="-0.44458">
        <ele>763.424072</ele>
        <time>2013-06-05T13:33:44Z</time>
      </trkpt>
      <trkpt lat="42.94868" lon="-0.44463">
        <ele>761.501465</ele>
        <time>2013-06-05T13:33:56Z</time>
      </trkpt>
      <trkpt lat="42.94875" lon="-0.44459">
        <ele>758.617432</ele>
        <time>2013-06-05T13:34:07Z</time>
      </trkpt>
      <trkpt lat="42.94887" lon="-0.44453">
        <ele>755.25293</ele>
        <time>2013-06-05T13:34:30Z</time>
      </trkpt>
    </trkseg>
  </trk>
  <trk>
    <name><![CDATA[ACTIVE LOG 016]]></name>
    <trkseg>
      <trkpt lat="42.94887" lon="-0.44453">
        <ele>754.772217</ele>
        <time>2013-06-05T13:34:32Z</time>
      </trkpt>
      <trkpt lat="42.94887" lon="-0.44453">
        <ele>751.407715</ele>
        <time>2013-06-05T13:34:48Z</time>
      </trkpt>
    </trkseg>
  </trk>
  <trk>
    <name><![CDATA[ACTIVE LOG 017]]></name>
    <trkseg>
      <trkpt lat="42.94907" lon="-0.44443">
        <ele>748.523682</ele>
        <time>2013-06-05T13:34:57Z</time>
      </trkpt>
      <trkpt lat="42.94906" lon="-0.44438">
        <ele>747.562256</ele>
        <time>2013-06-05T13:35:07Z</time>
      </trkpt>
      <trkpt lat="42.94896" lon="-0.44432">
        <ele>744.197754</ele>
        <time>2013-06-05T13:35:22Z</time>
      </trkpt>
      <trkpt lat="42.94895" lon="-0.44432">
        <ele>744.197754</ele>
        <time>2013-06-05T13:35:23Z</time>
      </trkpt>
      <trkpt lat="42.94891" lon="-0.44427">
        <ele>740.833008</ele>
        <time>2013-06-05T13:35:35Z</time>
      </trkpt>
      <trkpt lat="42.94886" lon="-0.44434">
        <ele>738.429932</ele>
        <time>2013-06-05T13:35:52Z</time>
      </trkpt>
      <trkpt lat="42.94892" lon="-0.44432">
        <ele>736.026611</ele>
        <time>2013-06-05T13:36:03Z</time>
      </trkpt>
      <trkpt lat="42.94899" lon="-0.44427">
        <ele>734.584717</ele>
        <time>2013-06-05T13:36:13Z</time>
      </trkpt>
      <trkpt lat="42.94906" lon="-0.44421">
        <ele>732.662109</ele>
        <time>2013-06-05T13:36:25Z</time>
      </trkpt>
      <trkpt lat="42.94913" lon="-0.44415">
        <ele>729.777832</ele>
        <time>2013-06-05T13:36:35Z</time>
      </trkpt>
      <trkpt lat="42.94919" lon="-0.44412">
        <ele>728.335938</ele>
        <time>2013-06-05T13:36:44Z</time>
      </trkpt>
      <trkpt lat="42.94927" lon="-0.4441">
        <ele>725.451904</ele>
        <time>2013-06-05T13:36:56Z</time>
      </trkpt>
      <trkpt lat="42.9493" lon="-0.44407">
        <ele>724.971436</ele>
        <time>2013-06-05T13:37:00Z</time>
      </trkpt>
      <trkpt lat="42.94937" lon="-0.44393">
        <ele>721.126221</ele>
        <time>2013-06-05T13:37:17Z</time>
      </trkpt>
      <trkpt lat="42.94923" lon="-0.44395">
        <ele>718.242188</ele>
        <time>2013-06-05T13:37:30Z</time>
      </trkpt>
      <trkpt lat="42.9491" lon="-0.44394">
        <ele>716.31958</ele>
        <time>2013-06-05T13:37:45Z</time>
      </trkpt>
      <trkpt lat="42.94903" lon="-0.44393">
        <ele>714.396729</ele>
        <time>2013-06-05T13:37:56Z</time>
      </trkpt>
      <trkpt lat="42.9489" lon="-0.44383">
        <ele>713.435547</ele>
        <time>2013-06-05T13:38:08Z</time>
      </trkpt>
      <trkpt lat="42.94885" lon="-0.44381">
        <ele>713.435547</ele>
        <time>2013-06-05T13:38:13Z</time>
      </trkpt>
      <trkpt lat="42.94868" lon="-0.44381">
        <ele>710.070801</ele>
        <time>2013-06-05T13:38:30Z</time>
      </trkpt>
      <trkpt lat="42.94869" lon="-0.44378">
        <ele>709.590332</ele>
        <time>2013-06-05T13:38:32Z</time>
      </trkpt>
      <trkpt lat="42.94869" lon="-0.44363">
        <ele>707.187012</ele>
        <time>2013-06-05T13:38:44Z</time>
      </trkpt>
      <trkpt lat="42.94856" lon="-0.44353">
        <ele>704.303223</ele>
        <time>2013-06-05T13:38:57Z</time>
      </trkpt>
      <trkpt lat="42.94839" lon="-0.44348">
        <ele>702.380371</ele>
        <time>2013-06-05T13:39:11Z</time>
      </trkpt>
      <trkpt lat="42.94823" lon="-0.44347">
        <ele>700.458008</ele>
        <time>2013-06-05T13:39:23Z</time>
      </trkpt>
      <trkpt lat="42.94816" lon="-0.44346">
        <ele>699.496338</ele>
        <time>2013-06-05T13:39:27Z</time>
      </trkpt>
      <trkpt lat="42.94811" lon="-0.44343">
        <ele>699.496338</ele>
        <time>2013-06-05T13:39:32Z</time>
      </trkpt>
      <trkpt lat="42.9481" lon="-0.44348">
        <ele>695.17041</ele>
        <time>2013-06-05T13:39:46Z</time>
      </trkpt>
      <trkpt lat="42.9482" lon="-0.44347">
        <ele>691.805908</ele>
        <time>2013-06-05T13:40:01Z</time>
      </trkpt>
      <trkpt lat="42.9483" lon="-0.44342">
        <ele>688.441406</ele>
        <time>2013-06-05T13:40:13Z</time>
      </trkpt>
      <trkpt lat="42.94836" lon="-0.44337">
        <ele>687.960693</ele>
        <time>2013-06-05T13:40:23Z</time>
      </trkpt>
      <trkpt lat="42.94843" lon="-0.44335">
        <ele>687.47998</ele>
        <time>2013-06-05T13:40:35Z</time>
      </trkpt>
      <trkpt lat="42.94845" lon="-0.44335">
        <ele>687.960693</ele>
        <time>2013-06-05T13:40:38Z</time>
      </trkpt>
      <trkpt lat="42.94857" lon="-0.44336">
        <ele>686.038086</ele>
        <time>2013-06-05T13:40:48Z</time>
      </trkpt>
      <trkpt lat="42.94875" lon="-0.44335">
        <ele>683.634521</ele>
        <time>2013-06-05T13:41:04Z</time>
      </trkpt>
      <trkpt lat="42.94877" lon="-0.44348">
        <ele>685.557373</ele>
        <time>2013-06-05T13:41:17Z</time>
      </trkpt>
      <trkpt lat="42.94883" lon="-0.44341">
        <ele>684.115479</ele>
        <time>2013-06-05T13:41:35Z</time>
      </trkpt>
      <trkpt lat="42.94887" lon="-0.44341">
        <ele>682.192627</ele>
        <time>2013-06-05T13:42:05Z</time>
      </trkpt>
      <trkpt lat="42.94899" lon="-0.44337">
        <ele>683.634521</ele>
        <time>2013-06-05T13:43:34Z</time>
      </trkpt>
      <trkpt lat="42.94904" lon="-0.44336">
        <ele>683.153809</ele>
        <time>2013-06-05T13:43:39Z</time>
      </trkpt>
      <trkpt lat="42.9491" lon="-0.44343">
        <ele>684.115479</ele>
        <time>2013-06-05T13:43:45Z</time>
      </trkpt>
      <trkpt lat="42.94928" lon="-0.44349">
        <ele>685.557373</ele>
        <time>2013-06-05T13:43:57Z</time>
      </trkpt>
      <trkpt lat="42.9495" lon="-0.44351">
        <ele>686.038086</ele>
        <time>2013-06-05T13:44:12Z</time>
      </trkpt>
      <trkpt lat="42.94955" lon="-0.44348">
        <ele>685.557373</ele>
        <time>2013-06-05T13:44:15Z</time>
      </trkpt>
      <trkpt lat="42.94961" lon="-0.4435">
        <ele>686.038086</ele>
        <time>2013-06-05T13:44:34Z</time>
      </trkpt>
      <trkpt lat="42.94961" lon="-0.44353">
        <ele>688.922119</ele>
        <time>2013-06-05T13:48:03Z</time>
      </trkpt>
      <trkpt lat="42.94968" lon="-0.4435">
        <ele>687.960693</ele>
        <time>2013-06-05T13:48:28Z</time>
      </trkpt>
      <trkpt lat="42.94973" lon="-0.44349">
        <ele>688.441406</ele>
        <time>2013-06-05T13:48:32Z</time>
      </trkpt>
      <trkpt lat="42.94985" lon="-0.44338">
        <ele>687.960693</ele>
        <time>2013-06-05T13:48:47Z</time>
      </trkpt>
      <trkpt lat="42.94997" lon="-0.44335">
        <ele>688.922119</ele>
        <time>2013-06-05T13:49:01Z</time>
      </trkpt>
      <trkpt lat="42.95005" lon="-0.44331">
        <ele>687.47998</ele>
        <time>2013-06-05T13:49:11Z</time>
      </trkpt>
      <trkpt lat="42.9502" lon="-0.4431">
        <ele>685.557373</ele>
        <time>2013-06-05T13:49:51Z</time>
      </trkpt>
      <trkpt lat="42.95026" lon="-0.44298">
        <ele>685.076904</ele>
        <time>2013-06-05T13:50:08Z</time>
      </trkpt>
      <trkpt lat="42.95031" lon="-0.4429">
        <ele>685.076904</ele>
        <time>2013-06-05T13:50:23Z</time>
      </trkpt>
      <trkpt lat="42.95034" lon="-0.44285">
        <ele>686.038086</ele>
        <time>2013-06-05T13:50:32Z</time>
      </trkpt>
      <trkpt lat="42.95044" lon="-0.44273">
        <ele>686.518799</ele>
        <time>2013-06-05T13:50:43Z</time>
      </trkpt>
      <trkpt lat="42.95053" lon="-0.44255">
        <ele>685.076904</ele>
        <time>2013-06-05T13:51:00Z</time>
      </trkpt>
      <trkpt lat="42.9506" lon="-0.44242">
        <ele>682.67334</ele>
        <time>2013-06-05T13:51:11Z</time>
      </trkpt>
      <trkpt lat="42.9506" lon="-0.4424">
        <ele>682.67334</ele>
        <time>2013-06-05T13:51:13Z</time>
      </trkpt>
      <trkpt lat="42.9506" lon="-0.44232">
        <ele>681.711914</ele>
        <time>2013-06-05T13:51:23Z</time>
      </trkpt>
      <trkpt lat="42.95072" lon="-0.44196">
        <ele>681.711914</ele>
        <time>2013-06-05T13:51:52Z</time>
      </trkpt>
      <trkpt lat="42.95077" lon="-0.44185">
        <ele>682.67334</ele>
        <time>2013-06-05T13:52:01Z</time>
      </trkpt>
      <trkpt lat="42.95085" lon="-0.4417">
        <ele>684.115479</ele>
        <time>2013-06-05T13:52:15Z</time>
      </trkpt>
      <trkpt lat="42.95096" lon="-0.44169">
        <ele>684.115479</ele>
        <time>2013-06-05T13:52:23Z</time>
      </trkpt>
      <trkpt lat="42.95114" lon="-0.44166">
        <ele>684.596191</ele>
        <time>2013-06-05T13:52:33Z</time>
      </trkpt>
      <trkpt lat="42.95131" lon="-0.44165">
        <ele>685.557373</ele>
        <time>2013-06-05T13:52:42Z</time>
      </trkpt>
      <trkpt lat="42.95144" lon="-0.44154">
        <ele>683.634521</ele>
        <time>2013-06-05T13:52:56Z</time>
      </trkpt>
      <trkpt lat="42.95162" lon="-0.44144">
        <ele>681.711914</ele>
        <time>2013-06-05T13:53:10Z</time>
      </trkpt>
      <trkpt lat="42.95177" lon="-0.44135">
        <ele>681.231445</ele>
        <time>2013-06-05T13:53:24Z</time>
      </trkpt>
      <trkpt lat="42.9519" lon="-0.44125">
        <ele>680.27002</ele>
        <time>2013-06-05T13:53:38Z</time>
      </trkpt>
      <trkpt lat="42.95206" lon="-0.44111">
        <ele>679.789307</ele>
        <time>2013-06-05T13:53:53Z</time>
      </trkpt>
      <trkpt lat="42.9521" lon="-0.44109">
        <ele>679.789307</ele>
        <time>2013-06-05T13:53:56Z</time>
      </trkpt>
      <trkpt lat="42.95229" lon="-0.44108">
        <ele>681.231445</ele>
        <time>2013-06-05T13:54:11Z</time>
      </trkpt>
      <trkpt lat="42.95241" lon="-0.44103">
        <ele>682.192627</ele>
        <time>2013-06-05T13:54:23Z</time>
      </trkpt>
      <trkpt lat="42.95242" lon="-0.44102">
        <ele>682.192627</ele>
        <time>2013-06-05T13:54:24Z</time>
      </trkpt>
      <trkpt lat="42.95253" lon="-0.44095">
        <ele>680.750732</ele>
        <time>2013-06-05T13:54:38Z</time>
      </trkpt>
      <trkpt lat="42.95256" lon="-0.44092">
        <ele>679.789307</ele>
        <time>2013-06-05T13:54:43Z</time>
      </trkpt>
      <trkpt lat="42.9526" lon="-0.44084">
        <ele>678.828125</ele>
        <time>2013-06-05T13:54:49Z</time>
      </trkpt>
      <trkpt lat="42.95262" lon="-0.44082">
        <ele>679.308594</ele>
        <time>2013-06-05T13:54:51Z</time>
      </trkpt>
      <trkpt lat="42.95264" lon="-0.44075">
        <ele>677.38623</ele>
        <time>2013-06-05T13:54:58Z</time>
      </trkpt>
      <trkpt lat="42.95272" lon="-0.44067">
        <ele>676.424805</ele>
        <time>2013-06-05T13:55:08Z</time>
      </trkpt>
      <trkpt lat="42.95278" lon="-0.44061">
        <ele>675.944092</ele>
        <time>2013-06-05T13:55:15Z</time>
      </trkpt>
      <trkpt lat="42.95288" lon="-0.44049">
        <ele>674.98291</ele>
        <time>2013-06-05T13:55:27Z</time>
      </trkpt>
      <trkpt lat="42.95297" lon="-0.44046">
        <ele>674.502197</ele>
        <time>2013-06-05T13:55:35Z</time>
      </trkpt>
      <trkpt lat="42.95311" lon="-0.44039">
        <ele>674.98291</ele>
        <time>2013-06-05T13:55:47Z</time>
      </trkpt>
      <trkpt lat="42.95334" lon="-0.4403">
        <ele>674.502197</ele>
        <time>2013-06-05T13:56:02Z</time>
      </trkpt>
      <trkpt lat="42.9535" lon="-0.44024">
        <ele>672.57959</ele>
        <time>2013-06-05T13:56:15Z</time>
      </trkpt>
      <trkpt lat="42.95358" lon="-0.44023">
        <ele>670.656982</ele>
        <time>2013-06-05T13:56:26Z</time>
      </trkpt>
      <trkpt lat="42.9536" lon="-0.44023">
        <ele>668.734375</ele>
        <time>2013-06-05T13:56:29Z</time>
      </trkpt>
      <trkpt lat="42.95377" lon="-0.44025">
        <ele>668.734375</ele>
        <time>2013-06-05T13:56:44Z</time>
      </trkpt>
      <trkpt lat="42.95387" lon="-0.44025">
        <ele>668.734375</ele>
        <time>2013-06-05T13:56:57Z</time>
      </trkpt>
      <trkpt lat="42.95383" lon="-0.44024">
        <ele>669.215088</ele>
        <time>2013-06-05T13:57:11Z</time>
      </trkpt>
      <trkpt lat="42.95383" lon="-0.44022">
        <ele>668.734375</ele>
        <time>2013-06-05T13:57:14Z</time>
      </trkpt>
      <trkpt lat="42.95384" lon="-0.44013">
        <ele>669.215088</ele>
        <time>2013-06-05T13:57:23Z</time>
      </trkpt>
      <trkpt lat="42.95381" lon="-0.43996">
        <ele>669.695801</ele>
        <time>2013-06-05T13:57:37Z</time>
      </trkpt>
      <trkpt lat="42.95378" lon="-0.43978">
        <ele>669.215088</ele>
        <time>2013-06-05T13:57:51Z</time>
      </trkpt>
      <trkpt lat="42.95375" lon="-0.43959">
        <ele>668.734375</ele>
        <time>2013-06-05T13:58:04Z</time>
      </trkpt>
      <trkpt lat="42.95373" lon="-0.43945">
        <ele>669.695801</ele>
        <time>2013-06-05T13:58:15Z</time>
      </trkpt>
      <trkpt lat="42.95379" lon="-0.43938">
        <ele>670.17627</ele>
        <time>2013-06-05T13:58:27Z</time>
      </trkpt>
      <trkpt lat="42.95381" lon="-0.43932">
        <ele>669.695801</ele>
        <time>2013-06-05T13:58:42Z</time>
      </trkpt>
      <trkpt lat="42.95386" lon="-0.43931">
        <ele>670.656982</ele>
        <time>2013-06-05T13:58:50Z</time>
      </trkpt>
      <trkpt lat="42.95398" lon="-0.4393">
        <ele>671.137695</ele>
        <time>2013-06-05T13:59:02Z</time>
      </trkpt>
      <trkpt lat="42.95402" lon="-0.43928">
        <ele>671.137695</ele>
        <time>2013-06-05T13:59:06Z</time>
      </trkpt>
      <trkpt lat="42.95411" lon="-0.43923">
        <ele>672.098877</ele>
        <time>2013-06-05T13:59:20Z</time>
      </trkpt>
      <trkpt lat="42.95415" lon="-0.43925">
        <ele>673.541016</ele>
        <time>2013-06-05T13:59:25Z</time>
      </trkpt>
      <trkpt lat="42.95416" lon="-0.43924">
        <ele>672.57959</ele>
        <time>2013-06-05T13:59:26Z</time>
      </trkpt>
      <trkpt lat="42.95419" lon="-0.43921">
        <ele>673.060303</ele>
        <time>2013-06-05T13:59:31Z</time>
      </trkpt>
      <trkpt lat="42.95436" lon="-0.43917">
        <ele>675.463379</ele>
        <time>2013-06-05T13:59:49Z</time>
      </trkpt>
      <trkpt lat="42.95446" lon="-0.43914">
        <ele>675.463379</ele>
        <time>2013-06-05T14:00:07Z</time>
      </trkpt>
      <trkpt lat="42.95457" lon="-0.43916">
        <ele>674.502197</ele>
        <time>2013-06-05T14:03:35Z</time>
      </trkpt>
      <trkpt lat="42.95458" lon="-0.43916">
        <ele>674.021484</ele>
        <time>2013-06-05T14:03:57Z</time>
      </trkpt>
      <trkpt lat="42.95457" lon="-0.43915">
        <ele>674.021484</ele>
        <time>2013-06-05T14:04:43Z</time>
      </trkpt>
      <trkpt lat="42.95468" lon="-0.43917">
        <ele>673.060303</ele>
        <time>2013-06-05T14:07:06Z</time>
      </trkpt>
      <trkpt lat="42.9547" lon="-0.43916">
        <ele>672.57959</ele>
        <time>2013-06-05T14:07:08Z</time>
      </trkpt>
      <trkpt lat="42.95496" lon="-0.43907">
        <ele>672.098877</ele>
        <time>2013-06-05T14:07:31Z</time>
      </trkpt>
      <trkpt lat="42.955" lon="-0.43903">
        <ele>671.618164</ele>
        <time>2013-06-05T14:07:35Z</time>
      </trkpt>
      <trkpt lat="42.95501" lon="-0.43902">
        <ele>671.618164</ele>
        <time>2013-06-05T14:07:37Z</time>
      </trkpt>
      <trkpt lat="42.95519" lon="-0.43885">
        <ele>670.17627</ele>
        <time>2013-06-05T14:07:56Z</time>
      </trkpt>
      <trkpt lat="42.95543" lon="-0.43871">
        <ele>669.215088</ele>
        <time>2013-06-05T14:08:17Z</time>
      </trkpt>
      <trkpt lat="42.95547" lon="-0.4387">
        <ele>668.734375</ele>
        <time>2013-06-05T14:08:21Z</time>
      </trkpt>
      <trkpt lat="42.95566" lon="-0.43874">
        <ele>668.253662</ele>
        <time>2013-06-05T14:08:38Z</time>
      </trkpt>
      <trkpt lat="42.95591" lon="-0.43884">
        <ele>666.330811</ele>
        <time>2013-06-05T14:09:00Z</time>
      </trkpt>
      <trkpt lat="42.95596" lon="-0.43887">
        <ele>665.850342</ele>
        <time>2013-06-05T14:09:12Z</time>
      </trkpt>
      <trkpt lat="42.956" lon="-0.43889">
        <ele>665.369629</ele>
        <time>2013-06-05T14:09:24Z</time>
      </trkpt>
      <trkpt lat="42.95606" lon="-0.43891">
        <ele>664.408203</ele>
        <time>2013-06-05T14:09:36Z</time>
      </trkpt>
      <trkpt lat="42.95611" lon="-0.43893">
        <ele>664.408203</ele>
        <time>2013-06-05T14:09:45Z</time>
      </trkpt>
      <trkpt lat="42.9562" lon="-0.43895">
        <ele>662.485596</ele>
        <time>2013-06-05T14:10:01Z</time>
      </trkpt>
      <trkpt lat="42.95624" lon="-0.43899">
        <ele>660.082275</ele>
        <time>2013-06-05T14:10:10Z</time>
      </trkpt>
      <trkpt lat="42.9563" lon="-0.43905">
        <ele>658.159912</ele>
        <time>2013-06-05T14:10:18Z</time>
      </trkpt>
      <trkpt lat="42.95636" lon="-0.43915">
        <ele>656.237061</ele>
        <time>2013-06-05T14:10:31Z</time>
      </trkpt>
      <trkpt lat="42.95642" lon="-0.43922">
        <ele>653.353271</ele>
        <time>2013-06-05T14:10:42Z</time>
      </trkpt>
      <trkpt lat="42.95646" lon="-0.43926">
        <ele>652.391846</ele>
        <time>2013-06-05T14:10:49Z</time>
      </trkpt>
      <trkpt lat="42.95651" lon="-0.43934">
        <ele>649.988525</ele>
        <time>2013-06-05T14:11:01Z</time>
      </trkpt>
      <trkpt lat="42.95652" lon="-0.43938">
        <ele>646.624023</ele>
        <time>2013-06-05T14:11:21Z</time>
      </trkpt>
      <trkpt lat="42.9565" lon="-0.4394">
        <ele>646.143311</ele>
        <time>2013-06-05T14:11:33Z</time>
      </trkpt>
      <trkpt lat="42.95648" lon="-0.43946">
        <ele>645.181885</ele>
        <time>2013-06-05T14:11:43Z</time>
      </trkpt>
      <trkpt lat="42.95655" lon="-0.43946">
        <ele>645.181885</ele>
        <time>2013-06-05T14:12:04Z</time>
      </trkpt>
      <trkpt lat="42.95658" lon="-0.43948">
        <ele>645.181885</ele>
        <time>2013-06-05T14:12:15Z</time>
      </trkpt>
      <trkpt lat="42.9567" lon="-0.43956">
        <ele>644.220703</ele>
        <time>2013-06-05T14:12:34Z</time>
      </trkpt>
      <trkpt lat="42.95671" lon="-0.43956">
        <ele>644.701172</ele>
        <time>2013-06-05T14:12:42Z</time>
      </trkpt>
      <trkpt lat="42.9569" lon="-0.4397">
        <ele>644.220703</ele>
        <time>2013-06-05T14:13:00Z</time>
      </trkpt>
      <trkpt lat="42.95717" lon="-0.43995">
        <ele>644.220703</ele>
        <time>2013-06-05T14:13:24Z</time>
      </trkpt>
      <trkpt lat="42.95743" lon="-0.44021">
        <ele>644.220703</ele>
        <time>2013-06-05T14:13:47Z</time>
      </trkpt>
      <trkpt lat="42.9577" lon="-0.44041">
        <ele>643.259277</ele>
        <time>2013-06-05T14:14:08Z</time>
      </trkpt>
      <trkpt lat="42.9579" lon="-0.44045">
        <ele>641.817383</ele>
        <time>2013-06-05T14:14:22Z</time>
      </trkpt>
      <trkpt lat="42.95799" lon="-0.44048">
        <ele>641.33667</ele>
        <time>2013-06-05T14:14:33Z</time>
      </trkpt>
      <trkpt lat="42.95801" lon="-0.44048">
        <ele>640.375488</ele>
        <time>2013-06-05T14:14:34Z</time>
      </trkpt>
      <trkpt lat="42.95811" lon="-0.44045">
        <ele>640.375488</ele>
        <time>2013-06-05T14:14:44Z</time>
      </trkpt>
      <trkpt lat="42.9582" lon="-0.44042">
        <ele>639.894775</ele>
        <time>2013-06-05T14:14:50Z</time>
      </trkpt>
      <trkpt lat="42.95837" lon="-0.44043">
        <ele>640.375488</ele>
        <time>2013-06-05T14:15:02Z</time>
      </trkpt>
      <trkpt lat="42.95851" lon="-0.44032">
        <ele>639.414063</ele>
        <time>2013-06-05T14:15:15Z</time>
      </trkpt>
      <trkpt lat="42.95869" lon="-0.44032">
        <ele>639.414063</ele>
        <time>2013-06-05T14:15:31Z</time>
      </trkpt>
      <trkpt lat="42.9589" lon="-0.44028">
        <ele>639.414063</ele>
        <time>2013-06-05T14:15:49Z</time>
      </trkpt>
      <trkpt lat="42.95899" lon="-0.44026">
        <ele>638.933594</ele>
        <time>2013-06-05T14:16:03Z</time>
      </trkpt>
      <trkpt lat="42.95907" lon="-0.44031">
        <ele>637.491455</ele>
        <time>2013-06-05T14:16:14Z</time>
      </trkpt>
      <trkpt lat="42.95915" lon="-0.44035">
        <ele>637.010742</ele>
        <time>2013-06-05T14:16:22Z</time>
      </trkpt>
      <trkpt lat="42.95922" lon="-0.44035">
        <ele>636.049561</ele>
        <time>2013-06-05T14:16:31Z</time>
      </trkpt>
      <trkpt lat="42.95931" lon="-0.44031">
        <ele>636.049561</ele>
        <time>2013-06-05T14:16:41Z</time>
      </trkpt>
      <trkpt lat="42.95938" lon="-0.44031">
        <ele>635.088135</ele>
        <time>2013-06-05T14:16:50Z</time>
      </trkpt>
      <trkpt lat="42.95952" lon="-0.4402">
        <ele>635.088135</ele>
        <time>2013-06-05T14:17:05Z</time>
      </trkpt>
      <trkpt lat="42.95966" lon="-0.44014">
        <ele>637.491455</ele>
        <time>2013-06-05T14:17:18Z</time>
      </trkpt>
      <trkpt lat="42.95977" lon="-0.44012">
        <ele>636.530273</ele>
        <time>2013-06-05T14:17:28Z</time>
      </trkpt>
      <trkpt lat="42.95987" lon="-0.44011">
        <ele>636.530273</ele>
        <time>2013-06-05T14:17:40Z</time>
      </trkpt>
      <trkpt lat="42.95998" lon="-0.4401">
        <ele>634.607422</ele>
        <time>2013-06-05T14:17:51Z</time>
      </trkpt>
      <trkpt lat="42.96007" lon="-0.44012">
        <ele>633.645996</ele>
        <time>2013-06-05T14:18:01Z</time>
      </trkpt>
      <trkpt lat="42.96015" lon="-0.44017">
        <ele>632.684814</ele>
        <time>2013-06-05T14:18:11Z</time>
      </trkpt>
      <trkpt lat="42.96023" lon="-0.4402">
        <ele>632.204102</ele>
        <time>2013-06-05T14:18:23Z</time>
      </trkpt>
      <trkpt lat="42.96031" lon="-0.44025">
        <ele>631.723389</ele>
        <time>2013-06-05T14:18:32Z</time>
      </trkpt>
      <trkpt lat="42.96044" lon="-0.44035">
        <ele>631.24292</ele>
        <time>2013-06-05T14:18:47Z</time>
      </trkpt>
      <trkpt lat="42.96055" lon="-0.44039">
        <ele>629.800781</ele>
        <time>2013-06-05T14:18:58Z</time>
      </trkpt>
      <trkpt lat="42.96063" lon="-0.44033">
        <ele>630.281494</ele>
        <time>2013-06-05T14:19:46Z</time>
      </trkpt>
      <trkpt lat="42.96078" lon="-0.44033">
        <ele>630.762207</ele>
        <time>2013-06-05T14:19:59Z</time>
      </trkpt>
      <trkpt lat="42.96083" lon="-0.44033">
        <ele>630.762207</ele>
        <time>2013-06-05T14:20:04Z</time>
      </trkpt>
      <trkpt lat="42.96087" lon="-0.44035">
        <ele>630.762207</ele>
        <time>2013-06-05T14:20:07Z</time>
      </trkpt>
      <trkpt lat="42.96096" lon="-0.44044">
        <ele>630.762207</ele>
        <time>2013-06-05T14:20:18Z</time>
      </trkpt>
      <trkpt lat="42.96104" lon="-0.44047">
        <ele>630.762207</ele>
        <time>2013-06-05T14:20:27Z</time>
      </trkpt>
      <trkpt lat="42.96108" lon="-0.44052">
        <ele>629.800781</ele>
        <time>2013-06-05T14:20:32Z</time>
      </trkpt>
      <trkpt lat="42.96121" lon="-0.44055">
        <ele>630.281494</ele>
        <time>2013-06-05T14:20:41Z</time>
      </trkpt>
      <trkpt lat="42.96139" lon="-0.44056">
        <ele>631.723389</ele>
        <time>2013-06-05T14:20:55Z</time>
      </trkpt>
      <trkpt lat="42.96145" lon="-0.44057">
        <ele>631.723389</ele>
        <time>2013-06-05T14:21:00Z</time>
      </trkpt>
      <trkpt lat="42.96168" lon="-0.44063">
        <ele>631.723389</ele>
        <time>2013-06-05T14:21:17Z</time>
      </trkpt>
      <trkpt lat="42.96177" lon="-0.44067">
        <ele>630.762207</ele>
        <time>2013-06-05T14:21:30Z</time>
      </trkpt>
      <trkpt lat="42.96175" lon="-0.44069">
        <ele>631.723389</ele>
        <time>2013-06-05T14:21:52Z</time>
      </trkpt>
      <trkpt lat="42.96167" lon="-0.44067">
        <ele>630.762207</ele>
        <time>2013-06-05T14:22:25Z</time>
      </trkpt>
      <trkpt lat="42.96169" lon="-0.44067">
        <ele>630.281494</ele>
        <time>2013-06-05T14:22:56Z</time>
      </trkpt>
      <trkpt lat="42.96164" lon="-0.44069">
        <ele>629.800781</ele>
        <time>2013-06-05T14:23:38Z</time>
      </trkpt>
      <trkpt lat="42.96165" lon="-0.44067">
        <ele>629.800781</ele>
        <time>2013-06-05T14:24:12Z</time>
      </trkpt>
      <trkpt lat="42.96165" lon="-0.4407">
        <ele>629.320068</ele>
        <time>2013-06-05T14:24:29Z</time>
      </trkpt>
      <trkpt lat="42.9617" lon="-0.44071">
        <ele>629.800781</ele>
        <time>2013-06-05T14:24:35Z</time>
      </trkpt>
      <trkpt lat="42.96173" lon="-0.44072">
        <ele>629.800781</ele>
        <time>2013-06-05T14:24:39Z</time>
      </trkpt>
      <trkpt lat="42.96176" lon="-0.44072">
        <ele>629.320068</ele>
        <time>2013-06-05T14:24:41Z</time>
      </trkpt>
      <trkpt lat="42.9618" lon="-0.44069">
        <ele>629.800781</ele>
        <time>2013-06-05T14:24:56Z</time>
      </trkpt>
      <trkpt lat="42.96185" lon="-0.44068">
        <ele>629.320068</ele>
        <time>2013-06-05T14:25:15Z</time>
      </trkpt>
      <trkpt lat="42.96207" lon="-0.44056">
        <ele>628.358887</ele>
        <time>2013-06-05T14:25:34Z</time>
      </trkpt>
      <trkpt lat="42.96225" lon="-0.44049">
        <ele>628.358887</ele>
        <time>2013-06-05T14:25:47Z</time>
      </trkpt>
      <trkpt lat="42.9623" lon="-0.44047">
        <ele>628.358887</ele>
        <time>2013-06-05T14:25:51Z</time>
      </trkpt>
      <trkpt lat="42.96257" lon="-0.4404">
        <ele>628.358887</ele>
        <time>2013-06-05T14:26:12Z</time>
      </trkpt>
      <trkpt lat="42.9628" lon="-0.44035">
        <ele>627.397705</ele>
        <time>2013-06-05T14:26:30Z</time>
      </trkpt>
      <trkpt lat="42.96298" lon="-0.44032">
        <ele>628.8396</ele>
        <time>2013-06-05T14:26:45Z</time>
      </trkpt>
      <trkpt lat="42.96313" lon="-0.44029">
        <ele>630.762207</ele>
        <time>2013-06-05T14:27:00Z</time>
      </trkpt>
      <trkpt lat="42.96323" lon="-0.44027">
        <ele>634.126709</ele>
        <time>2013-06-05T14:27:10Z</time>
      </trkpt>
      <trkpt lat="42.96329" lon="-0.44029">
        <ele>632.684814</ele>
        <time>2013-06-05T14:27:28Z</time>
      </trkpt>
      <trkpt lat="42.96329" lon="-0.44028">
        <ele>633.165283</ele>
        <time>2013-06-05T14:28:02Z</time>
      </trkpt>
      <trkpt lat="42.96343" lon="-0.44022">
        <ele>633.645996</ele>
        <time>2013-06-05T14:28:16Z</time>
      </trkpt>
      <trkpt lat="42.96339" lon="-0.44012">
        <ele>637.010742</ele>
        <time>2013-06-05T14:28:35Z</time>
      </trkpt>
      <trkpt lat="42.96346" lon="-0.44012">
        <ele>638.933594</ele>
        <time>2013-06-05T14:28:48Z</time>
      </trkpt>
      <trkpt lat="42.96353" lon="-0.4401">
        <ele>640.855957</ele>
        <time>2013-06-05T14:28:58Z</time>
      </trkpt>
      <trkpt lat="42.96357" lon="-0.44004">
        <ele>642.778809</ele>
        <time>2013-06-05T14:29:47Z</time>
      </trkpt>
      <trkpt lat="42.96363" lon="-0.44">
        <ele>645.181885</ele>
        <time>2013-06-05T14:29:58Z</time>
      </trkpt>
      <trkpt lat="42.96374" lon="-0.44003">
        <ele>645.662598</ele>
        <time>2013-06-05T14:30:11Z</time>
      </trkpt>
      <trkpt lat="42.96382" lon="-0.44004">
        <ele>646.624023</ele>
        <time>2013-06-05T14:30:20Z</time>
      </trkpt>
      <trkpt lat="42.96394" lon="-0.44005">
        <ele>645.662598</ele>
        <time>2013-06-05T14:30:34Z</time>
      </trkpt>
      <trkpt lat="42.9641" lon="-0.44007">
        <ele>642.298096</ele>
        <time>2013-06-05T14:31:38Z</time>
      </trkpt>
      <trkpt lat="42.9641" lon="-0.44011">
        <ele>638.933594</ele>
        <time>2013-06-05T14:31:51Z</time>
      </trkpt>
      <trkpt lat="42.96417" lon="-0.44016">
        <ele>638.933594</ele>
        <time>2013-06-05T14:32:04Z</time>
      </trkpt>
      <trkpt lat="42.96425" lon="-0.44017">
        <ele>638.452881</ele>
        <time>2013-06-05T14:32:16Z</time>
      </trkpt>
      <trkpt lat="42.96435" lon="-0.44011">
        <ele>638.933594</ele>
        <time>2013-06-05T14:32:28Z</time>
      </trkpt>
      <trkpt lat="42.96451" lon="-0.44007">
        <ele>637.010742</ele>
        <time>2013-06-05T14:32:48Z</time>
      </trkpt>
      <trkpt lat="42.96463" lon="-0.43998">
        <ele>637.010742</ele>
        <time>2013-06-05T14:33:01Z</time>
      </trkpt>
      <trkpt lat="42.96474" lon="-0.43992">
        <ele>636.530273</ele>
        <time>2013-06-05T14:33:13Z</time>
      </trkpt>
      <trkpt lat="42.96478" lon="-0.43997">
        <ele>636.049561</ele>
        <time>2013-06-05T14:33:23Z</time>
      </trkpt>
      <trkpt lat="42.96494" lon="-0.4399">
        <ele>637.491455</ele>
        <time>2013-06-05T14:33:37Z</time>
      </trkpt>
      <trkpt lat="42.965" lon="-0.43987">
        <ele>637.972168</ele>
        <time>2013-06-05T14:33:42Z</time>
      </trkpt>
      <trkpt lat="42.96511" lon="-0.43983">
        <ele>637.972168</ele>
        <time>2013-06-05T14:33:56Z</time>
      </trkpt>
      <trkpt lat="42.96521" lon="-0.43982">
        <ele>636.049561</ele>
        <time>2013-06-05T14:34:12Z</time>
      </trkpt>
      <trkpt lat="42.96532" lon="-0.43976">
        <ele>637.010742</ele>
        <time>2013-06-05T14:34:24Z</time>
      </trkpt>
      <trkpt lat="42.96539" lon="-0.43974">
        <ele>637.972168</ele>
        <time>2013-06-05T14:34:35Z</time>
      </trkpt>
      <trkpt lat="42.96554" lon="-0.43968">
        <ele>638.452881</ele>
        <time>2013-06-05T14:34:50Z</time>
      </trkpt>
      <trkpt lat="42.96567" lon="-0.43963">
        <ele>638.933594</ele>
        <time>2013-06-05T14:35:03Z</time>
      </trkpt>
      <trkpt lat="42.96569" lon="-0.43964">
        <ele>638.933594</ele>
        <time>2013-06-05T14:35:08Z</time>
      </trkpt>
      <trkpt lat="42.96582" lon="-0.43957">
        <ele>640.375488</ele>
        <time>2013-06-05T14:35:19Z</time>
      </trkpt>
      <trkpt lat="42.96591" lon="-0.43946">
        <ele>640.855957</ele>
        <time>2013-06-05T14:35:29Z</time>
      </trkpt>
      <trkpt lat="42.96601" lon="-0.43942">
        <ele>640.375488</ele>
        <time>2013-06-05T14:35:43Z</time>
      </trkpt>
      <trkpt lat="42.96601" lon="-0.43947">
        <ele>637.491455</ele>
        <time>2013-06-05T14:35:55Z</time>
      </trkpt>
      <trkpt lat="42.96608" lon="-0.43944">
        <ele>634.607422</ele>
        <time>2013-06-05T14:36:05Z</time>
      </trkpt>
      <trkpt lat="42.96621" lon="-0.43936">
        <ele>634.607422</ele>
        <time>2013-06-05T14:36:16Z</time>
      </trkpt>
      <trkpt lat="42.96629" lon="-0.4393">
        <ele>634.607422</ele>
        <time>2013-06-05T14:36:27Z</time>
      </trkpt>
      <trkpt lat="42.96637" lon="-0.43924">
        <ele>634.607422</ele>
        <time>2013-06-05T14:36:38Z</time>
      </trkpt>
      <trkpt lat="42.96646" lon="-0.43916">
        <ele>636.049561</ele>
        <time>2013-06-05T14:36:46Z</time>
      </trkpt>
      <trkpt lat="42.96657" lon="-0.43904">
        <ele>638.933594</ele>
        <time>2013-06-05T14:37:02Z</time>
      </trkpt>
      <trkpt lat="42.9666" lon="-0.43895">
        <ele>639.894775</ele>
        <time>2013-06-05T14:37:12Z</time>
      </trkpt>
      <trkpt lat="42.96677" lon="-0.43885">
        <ele>639.894775</ele>
        <time>2013-06-05T14:37:25Z</time>
      </trkpt>
      <trkpt lat="42.96689" lon="-0.43869">
        <ele>642.298096</ele>
        <time>2013-06-05T14:37:39Z</time>
      </trkpt>
      <trkpt lat="42.96693" lon="-0.43865">
        <ele>642.778809</ele>
        <time>2013-06-05T14:38:07Z</time>
      </trkpt>
      <trkpt lat="42.96703" lon="-0.43851">
        <ele>644.220703</ele>
        <time>2013-06-05T14:39:02Z</time>
      </trkpt>
      <trkpt lat="42.96706" lon="-0.43837">
        <ele>645.662598</ele>
        <time>2013-06-05T14:39:13Z</time>
      </trkpt>
      <trkpt lat="42.96709" lon="-0.43824">
        <ele>647.104492</ele>
        <time>2013-06-05T14:39:25Z</time>
      </trkpt>
      <trkpt lat="42.96718" lon="-0.43813">
        <ele>647.585205</ele>
        <time>2013-06-05T14:39:37Z</time>
      </trkpt>
      <trkpt lat="42.96731" lon="-0.43802">
        <ele>647.585205</ele>
        <time>2013-06-05T14:39:50Z</time>
      </trkpt>
      <trkpt lat="42.96714" lon="-0.43819">
        <ele>647.585205</ele>
        <time>2013-06-05T14:40:06Z</time>
      </trkpt>
      <trkpt lat="42.96714" lon="-0.43823">
        <ele>647.104492</ele>
        <time>2013-06-05T14:40:10Z</time>
      </trkpt>
      <trkpt lat="42.9672" lon="-0.43815">
        <ele>648.065918</ele>
        <time>2013-06-05T14:40:26Z</time>
      </trkpt>
      <trkpt lat="42.96724" lon="-0.4382">
        <ele>648.546387</ele>
        <time>2013-06-05T14:40:48Z</time>
      </trkpt>
      <trkpt lat="42.96732" lon="-0.43817">
        <ele>649.0271</ele>
        <time>2013-06-05T14:41:00Z</time>
      </trkpt>
      <trkpt lat="42.96746" lon="-0.43812">
        <ele>649.988525</ele>
        <time>2013-06-05T14:41:15Z</time>
      </trkpt>
      <trkpt lat="42.96758" lon="-0.4381">
        <ele>650.949707</ele>
        <time>2013-06-05T14:41:27Z</time>
      </trkpt>
      <trkpt lat="42.96773" lon="-0.4381">
        <ele>651.43042</ele>
        <time>2013-06-05T14:41:40Z</time>
      </trkpt>
      <trkpt lat="42.96781" lon="-0.4381">
        <ele>650.949707</ele>
        <time>2013-06-05T14:41:48Z</time>
      </trkpt>
      <trkpt lat="42.9679" lon="-0.43807">
        <ele>650.949707</ele>
        <time>2013-06-05T14:42:11Z</time>
      </trkpt>
      <trkpt lat="42.96801" lon="-0.43812">
        <ele>654.314697</ele>
        <time>2013-06-05T14:42:47Z</time>
      </trkpt>
      <trkpt lat="42.96798" lon="-0.43836">
        <ele>653.833984</ele>
        <time>2013-06-05T14:43:41Z</time>
      </trkpt>
      <trkpt lat="42.96811" lon="-0.43826">
        <ele>650.469238</ele>
        <time>2013-06-05T14:44:08Z</time>
      </trkpt>
      <trkpt lat="42.96835" lon="-0.43804">
        <ele>649.988525</ele>
        <time>2013-06-05T14:44:49Z</time>
      </trkpt>
      <trkpt lat="42.96852" lon="-0.43781">
        <ele>650.469238</ele>
        <time>2013-06-05T14:46:00Z</time>
      </trkpt>
      <trkpt lat="42.96864" lon="-0.43769">
        <ele>650.949707</ele>
        <time>2013-06-05T14:48:31Z</time>
      </trkpt>
      <trkpt lat="42.96865" lon="-0.43769">
        <ele>650.949707</ele>
        <time>2013-06-05T14:48:32Z</time>
      </trkpt>
      <trkpt lat="42.96878" lon="-0.43763">
        <ele>653.353271</ele>
        <time>2013-06-05T14:48:46Z</time>
      </trkpt>
      <trkpt lat="42.96888" lon="-0.43762">
        <ele>654.314697</ele>
        <time>2013-06-05T14:48:59Z</time>
      </trkpt>
      <trkpt lat="42.969" lon="-0.43758">
        <ele>655.275879</ele>
        <time>2013-06-05T14:49:10Z</time>
      </trkpt>
      <trkpt lat="42.96916" lon="-0.43745">
        <ele>654.795166</ele>
        <time>2013-06-05T14:49:26Z</time>
      </trkpt>
      <trkpt lat="42.96928" lon="-0.43732">
        <ele>654.314697</ele>
        <time>2013-06-05T14:49:40Z</time>
      </trkpt>
      <trkpt lat="42.96938" lon="-0.43722">
        <ele>653.353271</ele>
        <time>2013-06-05T14:49:53Z</time>
      </trkpt>
      <trkpt lat="42.96946" lon="-0.43713">
        <ele>654.314697</ele>
        <time>2013-06-05T14:50:05Z</time>
      </trkpt>
      <trkpt lat="42.96955" lon="-0.43706">
        <ele>653.833984</ele>
        <time>2013-06-05T14:50:17Z</time>
      </trkpt>
      <trkpt lat="42.96963" lon="-0.43698">
        <ele>654.314697</ele>
        <time>2013-06-05T14:50:25Z</time>
      </trkpt>
      <trkpt lat="42.96973" lon="-0.43691">
        <ele>652.872559</ele>
        <time>2013-06-05T14:50:36Z</time>
      </trkpt>
      <trkpt lat="42.96977" lon="-0.43688">
        <ele>651.43042</ele>
        <time>2013-06-05T14:50:40Z</time>
      </trkpt>
      <trkpt lat="42.96983" lon="-0.43687">
        <ele>648.546387</ele>
        <time>2013-06-05T14:50:58Z</time>
      </trkpt>
      <trkpt lat="42.96977" lon="-0.43701">
        <ele>647.585205</ele>
        <time>2013-06-05T14:51:11Z</time>
      </trkpt>
      <trkpt lat="42.96975" lon="-0.43707">
        <ele>645.662598</ele>
        <time>2013-06-05T14:51:16Z</time>
      </trkpt>
      <trkpt lat="42.96972" lon="-0.43711">
        <ele>644.220703</ele>
        <time>2013-06-05T14:51:21Z</time>
      </trkpt>
      <trkpt lat="42.96967" lon="-0.43722">
        <ele>642.298096</ele>
        <time>2013-06-05T14:51:33Z</time>
      </trkpt>
      <trkpt lat="42.96964" lon="-0.43723">
        <ele>639.414063</ele>
        <time>2013-06-05T14:51:47Z</time>
      </trkpt>
      <trkpt lat="42.96967" lon="-0.43721">
        <ele>637.491455</ele>
        <time>2013-06-05T14:51:54Z</time>
      </trkpt>
      <trkpt lat="42.96968" lon="-0.43727">
        <ele>634.126709</ele>
        <time>2013-06-05T14:52:07Z</time>
      </trkpt>
      <trkpt lat="42.96962" lon="-0.43734">
        <ele>631.723389</ele>
        <time>2013-06-05T14:52:20Z</time>
      </trkpt>
      <trkpt lat="42.9696" lon="-0.43749">
        <ele>630.281494</ele>
        <time>2013-06-05T14:54:05Z</time>
      </trkpt>
      <trkpt lat="42.96955" lon="-0.4376">
        <ele>627.878174</ele>
        <time>2013-06-05T14:54:17Z</time>
      </trkpt>
      <trkpt lat="42.96952" lon="-0.43768">
        <ele>624.513672</ele>
        <time>2013-06-05T14:54:29Z</time>
      </trkpt>
      <trkpt lat="42.96953" lon="-0.43768">
        <ele>624.032959</ele>
        <time>2013-06-05T14:54:30Z</time>
      </trkpt>
      <trkpt lat="42.96959" lon="-0.4377">
        <ele>621.14917</ele>
        <time>2013-06-05T14:54:41Z</time>
      </trkpt>
      <trkpt lat="42.96961" lon="-0.43785">
        <ele>619.707031</ele>
        <time>2013-06-05T14:55:15Z</time>
      </trkpt>
      <trkpt lat="42.96964" lon="-0.43785">
        <ele>618.745605</ele>
        <time>2013-06-05T14:55:31Z</time>
      </trkpt>
      <trkpt lat="42.9696" lon="-0.43792">
        <ele>617.303711</ele>
        <time>2013-06-05T14:55:41Z</time>
      </trkpt>
      <trkpt lat="42.9696" lon="-0.4379">
        <ele>616.342285</ele>
        <time>2013-06-05T14:56:25Z</time>
      </trkpt>
      <trkpt lat="42.9696" lon="-0.43791">
        <ele>615.861816</ele>
        <time>2013-06-05T14:56:54Z</time>
      </trkpt>
      <trkpt lat="42.9696" lon="-0.43791">
        <ele>617.303711</ele>
        <time>2013-06-05T14:56:56Z</time>
      </trkpt>
      <trkpt lat="42.9696" lon="-0.43791">
        <ele>615.861816</ele>
        <time>2013-06-05T14:56:58Z</time>
      </trkpt>
      <trkpt lat="42.96961" lon="-0.43793">
        <ele>616.822998</ele>
        <time>2013-06-05T14:57:18Z</time>
      </trkpt>
      <trkpt lat="42.96951" lon="-0.43805">
        <ele>613.938965</ele>
        <time>2013-06-05T14:57:35Z</time>
      </trkpt>
      <trkpt lat="42.96948" lon="-0.43807">
        <ele>614.419678</ele>
        <time>2013-06-05T14:57:38Z</time>
      </trkpt>
      <trkpt lat="42.96942" lon="-0.43814">
        <ele>612.016602</ele>
        <time>2013-06-05T14:57:46Z</time>
      </trkpt>
      <trkpt lat="42.9694" lon="-0.43817">
        <ele>611.535889</ele>
        <time>2013-06-05T14:57:49Z</time>
      </trkpt>
      <trkpt lat="42.96937" lon="-0.43836">
        <ele>608.171387</ele>
        <time>2013-06-05T14:58:03Z</time>
      </trkpt>
      <trkpt lat="42.96947" lon="-0.4386">
        <ele>605.768066</ele>
        <time>2013-06-05T14:58:22Z</time>
      </trkpt>
      <trkpt lat="42.96958" lon="-0.4388">
        <ele>605.287354</ele>
        <time>2013-06-05T14:58:41Z</time>
      </trkpt>
      <trkpt lat="42.96962" lon="-0.43882">
        <ele>606.729248</ele>
        <time>2013-06-05T14:58:48Z</time>
      </trkpt>
      <trkpt lat="42.9697" lon="-0.43881">
        <ele>607.209961</ele>
        <time>2013-06-05T14:59:00Z</time>
      </trkpt>
      <trkpt lat="42.96964" lon="-0.43879">
        <ele>608.171387</ele>
        <time>2013-06-05T14:59:08Z</time>
      </trkpt>
      <trkpt lat="42.96961" lon="-0.43882">
        <ele>610.574463</ele>
        <time>2013-06-05T14:59:18Z</time>
      </trkpt>
      <trkpt lat="42.96959" lon="-0.43872">
        <ele>611.535889</ele>
        <time>2013-06-05T14:59:38Z</time>
      </trkpt>
      <trkpt lat="42.9696" lon="-0.43874">
        <ele>612.016602</ele>
        <time>2013-06-05T15:00:51Z</time>
      </trkpt>
      <trkpt lat="42.96963" lon="-0.43874">
        <ele>612.016602</ele>
        <time>2013-06-05T15:01:40Z</time>
      </trkpt>
      <trkpt lat="42.96975" lon="-0.43878">
        <ele>612.977783</ele>
        <time>2013-06-05T15:01:55Z</time>
      </trkpt>
      <trkpt lat="42.96983" lon="-0.43873">
        <ele>613.938965</ele>
        <time>2013-06-05T15:02:09Z</time>
      </trkpt>
      <trkpt lat="42.96988" lon="-0.43866">
        <ele>613.938965</ele>
        <time>2013-06-05T15:02:18Z</time>
      </trkpt>
      <trkpt lat="42.96992" lon="-0.43858">
        <ele>613.938965</ele>
        <time>2013-06-05T15:02:25Z</time>
      </trkpt>
      <trkpt lat="42.96996" lon="-0.43852">
        <ele>614.419678</ele>
        <time>2013-06-05T15:02:33Z</time>
      </trkpt>
      <trkpt lat="42.97009" lon="-0.43838">
        <ele>614.900391</ele>
        <time>2013-06-05T15:02:50Z</time>
      </trkpt>
      <trkpt lat="42.97015" lon="-0.43834">
        <ele>613.938965</ele>
        <time>2013-06-05T15:03:01Z</time>
      </trkpt>
      <trkpt lat="42.97016" lon="-0.43821">
        <ele>612.016602</ele>
        <time>2013-06-05T15:03:29Z</time>
      </trkpt>
      <trkpt lat="42.97018" lon="-0.43822">
        <ele>608.651855</ele>
        <time>2013-06-05T15:03:39Z</time>
      </trkpt>
      <trkpt lat="42.97022" lon="-0.43818">
        <ele>609.132568</ele>
        <time>2013-06-05T15:03:57Z</time>
      </trkpt>
      <trkpt lat="42.97026" lon="-0.43806">
        <ele>609.613281</ele>
        <time>2013-06-05T15:04:13Z</time>
      </trkpt>
      <trkpt lat="42.97031" lon="-0.43799">
        <ele>610.09375</ele>
        <time>2013-06-05T15:04:25Z</time>
      </trkpt>
      <trkpt lat="42.97036" lon="-0.43796">
        <ele>610.574463</ele>
        <time>2013-06-05T15:04:41Z</time>
      </trkpt>
      <trkpt lat="42.97041" lon="-0.43795">
        <ele>611.535889</ele>
        <time>2013-06-05T15:04:55Z</time>
      </trkpt>
      <trkpt lat="42.97043" lon="-0.43794">
        <ele>611.055176</ele>
        <time>2013-06-05T15:05:10Z</time>
      </trkpt>
      <trkpt lat="42.97044" lon="-0.43793">
        <ele>610.09375</ele>
        <time>2013-06-05T15:05:16Z</time>
      </trkpt>
      <trkpt lat="42.97043" lon="-0.43789">
        <ele>609.613281</ele>
        <time>2013-06-05T15:05:35Z</time>
      </trkpt>
      <trkpt lat="42.97042" lon="-0.43779">
        <ele>608.171387</ele>
        <time>2013-06-05T15:05:52Z</time>
      </trkpt>
      <trkpt lat="42.97045" lon="-0.43781">
        <ele>607.209961</ele>
        <time>2013-06-05T15:06:39Z</time>
      </trkpt>
      <trkpt lat="42.97046" lon="-0.43777">
        <ele>605.768066</ele>
        <time>2013-06-05T15:07:02Z</time>
      </trkpt>
      <trkpt lat="42.97051" lon="-0.43776">
        <ele>606.248535</ele>
        <time>2013-06-05T15:07:12Z</time>
      </trkpt>
      <trkpt lat="42.97055" lon="-0.4378">
        <ele>608.171387</ele>
        <time>2013-06-05T15:07:25Z</time>
      </trkpt>
      <trkpt lat="42.97061" lon="-0.43782">
        <ele>609.613281</ele>
        <time>2013-06-05T15:07:39Z</time>
      </trkpt>
      <trkpt lat="42.97066" lon="-0.43785">
        <ele>612.977783</ele>
        <time>2013-06-05T15:07:56Z</time>
      </trkpt>
      <trkpt lat="42.97069" lon="-0.43791">
        <ele>615.381104</ele>
        <time>2013-06-05T15:08:12Z</time>
      </trkpt>
      <trkpt lat="42.97071" lon="-0.43798">
        <ele>616.822998</ele>
        <time>2013-06-05T15:08:33Z</time>
      </trkpt>
      <trkpt lat="42.97074" lon="-0.43802">
        <ele>617.78418</ele>
        <time>2013-06-05T15:08:56Z</time>
      </trkpt>
      <trkpt lat="42.97075" lon="-0.43796">
        <ele>619.226318</ele>
        <time>2013-06-05T15:09:08Z</time>
      </trkpt>
      <trkpt lat="42.97072" lon="-0.43789">
        <ele>618.264893</ele>
        <time>2013-06-05T15:09:37Z</time>
      </trkpt>
      <trkpt lat="42.97067" lon="-0.43789">
        <ele>619.226318</ele>
        <time>2013-06-05T15:10:20Z</time>
      </trkpt>
      <trkpt lat="42.97071" lon="-0.43796">
        <ele>618.745605</ele>
        <time>2013-06-05T15:11:49Z</time>
      </trkpt>
      <trkpt lat="42.97077" lon="-0.43783">
        <ele>620.668457</ele>
        <time>2013-06-05T15:12:25Z</time>
      </trkpt>
      <trkpt lat="42.97081" lon="-0.43774">
        <ele>622.110352</ele>
        <time>2013-06-05T15:12:32Z</time>
      </trkpt>
      <trkpt lat="42.97086" lon="-0.43759">
        <ele>623.071777</ele>
        <time>2013-06-05T15:12:42Z</time>
      </trkpt>
      <trkpt lat="42.97096" lon="-0.43749">
        <ele>625.474854</ele>
        <time>2013-06-05T15:12:56Z</time>
      </trkpt>
      <trkpt lat="42.97096" lon="-0.43753">
        <ele>627.397705</ele>
        <time>2013-06-05T15:13:02Z</time>
      </trkpt>
      <trkpt lat="42.97091" lon="-0.43764">
        <ele>628.8396</ele>
        <time>2013-06-05T15:13:15Z</time>
      </trkpt>
      <trkpt lat="42.97093" lon="-0.43767">
        <ele>631.24292</ele>
        <time>2013-06-05T15:13:26Z</time>
      </trkpt>
      <trkpt lat="42.97101" lon="-0.43761">
        <ele>633.645996</ele>
        <time>2013-06-05T15:13:38Z</time>
      </trkpt>
      <trkpt lat="42.97102" lon="-0.4376">
        <ele>633.645996</ele>
        <time>2013-06-05T15:13:39Z</time>
      </trkpt>
      <trkpt lat="42.97109" lon="-0.43752">
        <ele>635.088135</ele>
        <time>2013-06-05T15:13:51Z</time>
      </trkpt>
      <trkpt lat="42.97117" lon="-0.43744">
        <ele>637.491455</ele>
        <time>2013-06-05T15:14:04Z</time>
      </trkpt>
      <trkpt lat="42.97119" lon="-0.43743">
        <ele>638.933594</ele>
        <time>2013-06-05T15:14:07Z</time>
      </trkpt>
      <trkpt lat="42.97122" lon="-0.43747">
        <ele>641.33667</ele>
        <time>2013-06-05T15:14:19Z</time>
      </trkpt>
      <trkpt lat="42.97129" lon="-0.43747">
        <ele>643.259277</ele>
        <time>2013-06-05T15:14:30Z</time>
      </trkpt>
      <trkpt lat="42.97134" lon="-0.43736">
        <ele>645.662598</ele>
        <time>2013-06-05T15:14:40Z</time>
      </trkpt>
      <trkpt lat="42.9714" lon="-0.43729">
        <ele>644.220703</ele>
        <time>2013-06-05T15:14:51Z</time>
      </trkpt>
      <trkpt lat="42.97152" lon="-0.43721">
        <ele>645.662598</ele>
        <time>2013-06-05T15:15:05Z</time>
      </trkpt>
      <trkpt lat="42.97155" lon="-0.43721">
        <ele>646.143311</ele>
        <time>2013-06-05T15:15:08Z</time>
      </trkpt>
      <trkpt lat="42.97168" lon="-0.43707">
        <ele>644.220703</ele>
        <time>2013-06-05T15:15:23Z</time>
      </trkpt>
      <trkpt lat="42.97174" lon="-0.43701">
        <ele>642.298096</ele>
        <time>2013-06-05T15:15:32Z</time>
      </trkpt>
      <trkpt lat="42.97175" lon="-0.437">
        <ele>642.298096</ele>
        <time>2013-06-05T15:15:34Z</time>
      </trkpt>
      <trkpt lat="42.9718" lon="-0.43695">
        <ele>641.817383</ele>
        <time>2013-06-05T15:15:40Z</time>
      </trkpt>
      <trkpt lat="42.9719" lon="-0.43687">
        <ele>639.414063</ele>
        <time>2013-06-05T15:15:51Z</time>
      </trkpt>
      <trkpt lat="42.9719" lon="-0.43685">
        <ele>638.933594</ele>
        <time>2013-06-05T15:15:52Z</time>
      </trkpt>
      <trkpt lat="42.97183" lon="-0.4368">
        <ele>637.491455</ele>
        <time>2013-06-05T15:16:08Z</time>
      </trkpt>
      <trkpt lat="42.97175" lon="-0.43678">
        <ele>635.568604</ele>
        <time>2013-06-05T15:16:17Z</time>
      </trkpt>
      <trkpt lat="42.97175" lon="-0.43679">
        <ele>635.568604</ele>
        <time>2013-06-05T15:16:19Z</time>
      </trkpt>
      <trkpt lat="42.97178" lon="-0.43679">
        <ele>634.126709</ele>
        <time>2013-06-05T15:16:22Z</time>
      </trkpt>
      <trkpt lat="42.97179" lon="-0.43678">
        <ele>632.204102</ele>
        <time>2013-06-05T15:16:27Z</time>
      </trkpt>
      <trkpt lat="42.97181" lon="-0.43677">
        <ele>631.723389</ele>
        <time>2013-06-05T15:16:30Z</time>
      </trkpt>
      <trkpt lat="42.9719" lon="-0.4367">
        <ele>630.762207</ele>
        <time>2013-06-05T15:16:41Z</time>
      </trkpt>
      <trkpt lat="42.97191" lon="-0.43658">
        <ele>628.358887</ele>
        <time>2013-06-05T15:16:51Z</time>
      </trkpt>
      <trkpt lat="42.97191" lon="-0.43649">
        <ele>625.474854</ele>
        <time>2013-06-05T15:17:10Z</time>
      </trkpt>
      <trkpt lat="42.97189" lon="-0.43645">
        <ele>621.629639</ele>
        <time>2013-06-05T15:17:28Z</time>
      </trkpt>
      <trkpt lat="42.97189" lon="-0.43644">
        <ele>621.629639</ele>
        <time>2013-06-05T15:17:29Z</time>
      </trkpt>
      <trkpt lat="42.97191" lon="-0.43637">
        <ele>618.264893</ele>
        <time>2013-06-05T15:17:40Z</time>
      </trkpt>
      <trkpt lat="42.97198" lon="-0.43632">
        <ele>616.822998</ele>
        <time>2013-06-05T15:17:54Z</time>
      </trkpt>
      <trkpt lat="42.972" lon="-0.4363">
        <ele>614.900391</ele>
        <time>2013-06-05T15:18:03Z</time>
      </trkpt>
      <trkpt lat="42.97209" lon="-0.43616">
        <ele>614.419678</ele>
        <time>2013-06-05T15:18:22Z</time>
      </trkpt>
      <trkpt lat="42.97218" lon="-0.43609">
        <ele>614.419678</ele>
        <time>2013-06-05T15:18:32Z</time>
      </trkpt>
      <trkpt lat="42.97227" lon="-0.43604">
        <ele>615.381104</ele>
        <time>2013-06-05T15:18:43Z</time>
      </trkpt>
      <trkpt lat="42.97235" lon="-0.43598">
        <ele>614.900391</ele>
        <time>2013-06-05T15:18:56Z</time>
      </trkpt>
      <trkpt lat="42.97242" lon="-0.43589">
        <ele>614.900391</ele>
        <time>2013-06-05T15:19:09Z</time>
      </trkpt>
      <trkpt lat="42.97248" lon="-0.43582">
        <ele>615.861816</ele>
        <time>2013-06-05T15:19:17Z</time>
      </trkpt>
      <trkpt lat="42.97257" lon="-0.43579">
        <ele>617.78418</ele>
        <time>2013-06-05T15:19:27Z</time>
      </trkpt>
      <trkpt lat="42.97265" lon="-0.43573">
        <ele>617.78418</ele>
        <time>2013-06-05T15:19:36Z</time>
      </trkpt>
      <trkpt lat="42.97269" lon="-0.43571">
        <ele>617.78418</ele>
        <time>2013-06-05T15:19:40Z</time>
      </trkpt>
      <trkpt lat="42.97278" lon="-0.43557">
        <ele>616.342285</ele>
        <time>2013-06-05T15:19:54Z</time>
      </trkpt>
      <trkpt lat="42.97281" lon="-0.43544">
        <ele>612.977783</ele>
        <time>2013-06-05T15:20:11Z</time>
      </trkpt>
      <trkpt lat="42.97288" lon="-0.43533">
        <ele>613.938965</ele>
        <time>2013-06-05T15:20:24Z</time>
      </trkpt>
      <trkpt lat="42.97296" lon="-0.43524">
        <ele>613.458496</ele>
        <time>2013-06-05T15:20:36Z</time>
      </trkpt>
      <trkpt lat="42.97303" lon="-0.43516">
        <ele>612.016602</ele>
        <time>2013-06-05T15:20:54Z</time>
      </trkpt>
      <trkpt lat="42.97308" lon="-0.43512">
        <ele>613.938965</ele>
        <time>2013-06-05T15:21:03Z</time>
      </trkpt>
      <trkpt lat="42.97313" lon="-0.43497">
        <ele>613.938965</ele>
        <time>2013-06-05T15:21:28Z</time>
      </trkpt>
      <trkpt lat="42.97318" lon="-0.43488">
        <ele>610.574463</ele>
        <time>2013-06-05T15:21:38Z</time>
      </trkpt>
      <trkpt lat="42.97323" lon="-0.4348">
        <ele>609.132568</ele>
        <time>2013-06-05T15:21:48Z</time>
      </trkpt>
      <trkpt lat="42.97332" lon="-0.43462">
        <ele>611.055176</ele>
        <time>2013-06-05T15:22:02Z</time>
      </trkpt>
      <trkpt lat="42.97335" lon="-0.43456">
        <ele>612.016602</ele>
        <time>2013-06-05T15:22:06Z</time>
      </trkpt>
      <trkpt lat="42.97344" lon="-0.43447">
        <ele>612.49707</ele>
        <time>2013-06-05T15:22:16Z</time>
      </trkpt>
      <trkpt lat="42.97353" lon="-0.43439">
        <ele>614.419678</ele>
        <time>2013-06-05T15:22:26Z</time>
      </trkpt>
      <trkpt lat="42.97361" lon="-0.43428">
        <ele>615.861816</ele>
        <time>2013-06-05T15:22:37Z</time>
      </trkpt>
      <trkpt lat="42.97365" lon="-0.43415">
        <ele>615.381104</ele>
        <time>2013-06-05T15:22:47Z</time>
      </trkpt>
      <trkpt lat="42.97371" lon="-0.43395">
        <ele>617.303711</ele>
        <time>2013-06-05T15:23:01Z</time>
      </trkpt>
      <trkpt lat="42.97377" lon="-0.43375">
        <ele>617.303711</ele>
        <time>2013-06-05T15:23:14Z</time>
      </trkpt>
      <trkpt lat="42.97382" lon="-0.43362">
        <ele>616.822998</ele>
        <time>2013-06-05T15:23:23Z</time>
      </trkpt>
      <trkpt lat="42.97384" lon="-0.43346">
        <ele>613.938965</ele>
        <time>2013-06-05T15:23:35Z</time>
      </trkpt>
      <trkpt lat="42.97384" lon="-0.43341">
        <ele>612.49707</ele>
        <time>2013-06-05T15:23:40Z</time>
      </trkpt>
      <trkpt lat="42.9738" lon="-0.43335">
        <ele>609.613281</ele>
        <time>2013-06-05T15:23:50Z</time>
      </trkpt>
      <trkpt lat="42.9738" lon="-0.43331">
        <ele>608.171387</ele>
        <time>2013-06-05T15:23:54Z</time>
      </trkpt>
      <trkpt lat="42.9738" lon="-0.43324">
        <ele>607.690674</ele>
        <time>2013-06-05T15:23:59Z</time>
      </trkpt>
      <trkpt lat="42.9738" lon="-0.43311">
        <ele>605.768066</ele>
        <time>2013-06-05T15:24:09Z</time>
      </trkpt>
      <trkpt lat="42.97383" lon="-0.43305">
        <ele>604.806641</ele>
        <time>2013-06-05T15:24:13Z</time>
      </trkpt>
      <trkpt lat="42.97388" lon="-0.43287">
        <ele>604.806641</ele>
        <time>2013-06-05T15:24:26Z</time>
      </trkpt>
      <trkpt lat="42.97391" lon="-0.43282">
        <ele>604.806641</ele>
        <time>2013-06-05T15:24:30Z</time>
      </trkpt>
      <trkpt lat="42.97405" lon="-0.43267">
        <ele>604.806641</ele>
        <time>2013-06-05T15:24:45Z</time>
      </trkpt>
      <trkpt lat="42.97411" lon="-0.43251">
        <ele>603.845215</ele>
        <time>2013-06-05T15:25:02Z</time>
      </trkpt>
      <trkpt lat="42.97411" lon="-0.4325">
        <ele>604.326172</ele>
        <time>2013-06-05T15:25:03Z</time>
      </trkpt>
      <trkpt lat="42.97415" lon="-0.43242">
        <ele>603.364502</ele>
        <time>2013-06-05T15:25:15Z</time>
      </trkpt>
      <trkpt lat="42.97417" lon="-0.43233">
        <ele>601.922607</ele>
        <time>2013-06-05T15:25:28Z</time>
      </trkpt>
      <trkpt lat="42.97417" lon="-0.43225">
        <ele>601.441895</ele>
        <time>2013-06-05T15:25:38Z</time>
      </trkpt>
      <trkpt lat="42.97414" lon="-0.43225">
        <ele>600</ele>
        <time>2013-06-05T15:25:50Z</time>
      </trkpt>
      <trkpt lat="42.97421" lon="-0.43229">
        <ele>600.480713</ele>
        <time>2013-06-05T15:26:27Z</time>
      </trkpt>
      <trkpt lat="42.97418" lon="-0.43227">
        <ele>597.59668</ele>
        <time>2013-06-05T15:29:09Z</time>
      </trkpt>
      <trkpt lat="42.97418" lon="-0.43227">
        <ele>598.557861</ele>
        <time>2013-06-05T15:29:12Z</time>
      </trkpt>
      <trkpt lat="42.97419" lon="-0.43222">
        <ele>599.038574</ele>
        <time>2013-06-05T15:29:17Z</time>
      </trkpt>
      <trkpt lat="42.97429" lon="-0.4321">
        <ele>600</ele>
        <time>2013-06-05T15:29:31Z</time>
      </trkpt>
      <trkpt lat="42.97436" lon="-0.43202">
        <ele>600.480713</ele>
        <time>2013-06-05T15:29:44Z</time>
      </trkpt>
      <trkpt lat="42.97437" lon="-0.43198">
        <ele>600</ele>
        <time>2013-06-05T15:30:00Z</time>
      </trkpt>
      <trkpt lat="42.97442" lon="-0.43194">
        <ele>600.480713</ele>
        <time>2013-06-05T15:30:05Z</time>
      </trkpt>
      <trkpt lat="42.97462" lon="-0.43159">
        <ele>600.961182</ele>
        <time>2013-06-05T15:30:30Z</time>
      </trkpt>
      <trkpt lat="42.97482" lon="-0.4313">
        <ele>601.922607</ele>
        <time>2013-06-05T15:30:53Z</time>
      </trkpt>
      <trkpt lat="42.97502" lon="-0.43111">
        <ele>602.403076</ele>
        <time>2013-06-05T15:31:11Z</time>
      </trkpt>
      <trkpt lat="42.9752" lon="-0.4308">
        <ele>602.883789</ele>
        <time>2013-06-05T15:31:32Z</time>
      </trkpt>
      <trkpt lat="42.97543" lon="-0.43056">
        <ele>604.806641</ele>
        <time>2013-06-05T15:31:52Z</time>
      </trkpt>
      <trkpt lat="42.97545" lon="-0.43053">
        <ele>604.806641</ele>
        <time>2013-06-05T15:31:54Z</time>
      </trkpt>
      <trkpt lat="42.97567" lon="-0.43031">
        <ele>606.729248</ele>
        <time>2013-06-05T15:32:13Z</time>
      </trkpt>
      <trkpt lat="42.97581" lon="-0.43008">
        <ele>607.690674</ele>
        <time>2013-06-05T15:32:30Z</time>
      </trkpt>
      <trkpt lat="42.97585" lon="-0.42999">
        <ele>607.690674</ele>
        <time>2013-06-05T15:32:37Z</time>
      </trkpt>
      <trkpt lat="42.97602" lon="-0.42976">
        <ele>608.651855</ele>
        <time>2013-06-05T15:32:53Z</time>
      </trkpt>
      <trkpt lat="42.97608" lon="-0.42972">
        <ele>608.651855</ele>
        <time>2013-06-05T15:32:58Z</time>
      </trkpt>
      <trkpt lat="42.97624" lon="-0.42957">
        <ele>609.132568</ele>
        <time>2013-06-05T15:33:12Z</time>
      </trkpt>
      <trkpt lat="42.97642" lon="-0.42939">
        <ele>609.613281</ele>
        <time>2013-06-05T15:33:28Z</time>
      </trkpt>
      <trkpt lat="42.97661" lon="-0.42916">
        <ele>610.574463</ele>
        <time>2013-06-05T15:33:45Z</time>
      </trkpt>
      <trkpt lat="42.97662" lon="-0.42915">
        <ele>609.613281</ele>
        <time>2013-06-05T15:33:46Z</time>
      </trkpt>
      <trkpt lat="42.97678" lon="-0.42892">
        <ele>611.055176</ele>
        <time>2013-06-05T15:34:02Z</time>
      </trkpt>
      <trkpt lat="42.9769" lon="-0.42869">
        <ele>611.055176</ele>
        <time>2013-06-05T15:34:14Z</time>
      </trkpt>
      <trkpt lat="42.9771" lon="-0.42851">
        <ele>612.016602</ele>
        <time>2013-06-05T15:34:32Z</time>
      </trkpt>
      <trkpt lat="42.97725" lon="-0.4282">
        <ele>612.977783</ele>
        <time>2013-06-05T15:34:51Z</time>
      </trkpt>
      <trkpt lat="42.97728" lon="-0.42809">
        <ele>613.458496</ele>
        <time>2013-06-05T15:34:57Z</time>
      </trkpt>
      <trkpt lat="42.97732" lon="-0.42794">
        <ele>613.938965</ele>
        <time>2013-06-05T15:35:05Z</time>
      </trkpt>
      <trkpt lat="42.97739" lon="-0.42778">
        <ele>614.900391</ele>
        <time>2013-06-05T15:35:15Z</time>
      </trkpt>
      <trkpt lat="42.97738" lon="-0.42764">
        <ele>614.900391</ele>
        <time>2013-06-05T15:35:22Z</time>
      </trkpt>
      <trkpt lat="42.97751" lon="-0.42732">
        <ele>617.303711</ele>
        <time>2013-06-05T15:35:41Z</time>
      </trkpt>
      <trkpt lat="42.9775" lon="-0.4273">
        <ele>618.264893</ele>
        <time>2013-06-05T15:35:42Z</time>
      </trkpt>
      <trkpt lat="42.97741" lon="-0.42717">
        <ele>617.78418</ele>
        <time>2013-06-05T15:35:47Z</time>
      </trkpt>
      <trkpt lat="42.97754" lon="-0.42691">
        <ele>620.187744</ele>
        <time>2013-06-05T15:36:03Z</time>
      </trkpt>
      <trkpt lat="42.97758" lon="-0.42691">
        <ele>620.187744</ele>
        <time>2013-06-05T15:36:05Z</time>
      </trkpt>
      <trkpt lat="42.97786" lon="-0.42683">
        <ele>618.264893</ele>
        <time>2013-06-05T15:36:20Z</time>
      </trkpt>
      <trkpt lat="42.9779" lon="-0.42677">
        <ele>618.264893</ele>
        <time>2013-06-05T15:36:23Z</time>
      </trkpt>
      <trkpt lat="42.97811" lon="-0.42669">
        <ele>614.900391</ele>
        <time>2013-06-05T15:36:38Z</time>
      </trkpt>
      <trkpt lat="42.97831" lon="-0.42662">
        <ele>612.016602</ele>
        <time>2013-06-05T15:36:52Z</time>
      </trkpt>
      <trkpt lat="42.97846" lon="-0.42656">
        <ele>608.171387</ele>
        <time>2013-06-05T15:37:03Z</time>
      </trkpt>
      <trkpt lat="42.97848" lon="-0.42654">
        <ele>608.171387</ele>
        <time>2013-06-05T15:37:05Z</time>
      </trkpt>
      <trkpt lat="42.97856" lon="-0.4265">
        <ele>606.248535</ele>
        <time>2013-06-05T15:37:12Z</time>
      </trkpt>
      <trkpt lat="42.97862" lon="-0.4265">
        <ele>604.806641</ele>
        <time>2013-06-05T15:37:16Z</time>
      </trkpt>
      <trkpt lat="42.97882" lon="-0.42655">
        <ele>603.364502</ele>
        <time>2013-06-05T15:37:28Z</time>
      </trkpt>
      <trkpt lat="42.97883" lon="-0.42655">
        <ele>603.364502</ele>
        <time>2013-06-05T15:37:29Z</time>
      </trkpt>
      <trkpt lat="42.97899" lon="-0.42654">
        <ele>600.961182</ele>
        <time>2013-06-05T15:37:39Z</time>
      </trkpt>
      <trkpt lat="42.97912" lon="-0.42647">
        <ele>597.59668</ele>
        <time>2013-06-05T15:37:50Z</time>
      </trkpt>
      <trkpt lat="42.97926" lon="-0.42631">
        <ele>594.712646</ele>
        <time>2013-06-05T15:38:04Z</time>
      </trkpt>
      <trkpt lat="42.97939" lon="-0.42622">
        <ele>591.348145</ele>
        <time>2013-06-05T15:38:15Z</time>
      </trkpt>
      <trkpt lat="42.97954" lon="-0.42599">
        <ele>587.502686</ele>
        <time>2013-06-05T15:38:29Z</time>
      </trkpt>
      <trkpt lat="42.97956" lon="-0.42596">
        <ele>587.021973</ele>
        <time>2013-06-05T15:38:31Z</time>
      </trkpt>
      <trkpt lat="42.9797" lon="-0.42587">
        <ele>584.138184</ele>
        <time>2013-06-05T15:38:42Z</time>
      </trkpt>
      <trkpt lat="42.97983" lon="-0.4259">
        <ele>582.215576</ele>
        <time>2013-06-05T15:38:52Z</time>
      </trkpt>
      <trkpt lat="42.98003" lon="-0.42568">
        <ele>579.812256</ele>
        <time>2013-06-05T15:39:09Z</time>
      </trkpt>
      <trkpt lat="42.98013" lon="-0.42566">
        <ele>577.40918</ele>
        <time>2013-06-05T15:39:17Z</time>
      </trkpt>
      <trkpt lat="42.98028" lon="-0.42564">
        <ele>574.044434</ele>
        <time>2013-06-05T15:39:28Z</time>
      </trkpt>
      <trkpt lat="42.98045" lon="-0.42562">
        <ele>571.1604</ele>
        <time>2013-06-05T15:39:42Z</time>
      </trkpt>
      <trkpt lat="42.98064" lon="-0.42566">
        <ele>568.276367</ele>
        <time>2013-06-05T15:39:56Z</time>
      </trkpt>
      <trkpt lat="42.98081" lon="-0.42569">
        <ele>564.431152</ele>
        <time>2013-06-05T15:40:10Z</time>
      </trkpt>
      <trkpt lat="42.98102" lon="-0.42577">
        <ele>561.547363</ele>
        <time>2013-06-05T15:40:25Z</time>
      </trkpt>
      <trkpt lat="42.98114" lon="-0.42583">
        <ele>558.66333</ele>
        <time>2013-06-05T15:40:34Z</time>
      </trkpt>
      <trkpt lat="42.98126" lon="-0.42588">
        <ele>557.221436</ele>
        <time>2013-06-05T15:40:44Z</time>
      </trkpt>
      <trkpt lat="42.98145" lon="-0.42594">
        <ele>553.856689</ele>
        <time>2013-06-05T15:40:56Z</time>
      </trkpt>
      <trkpt lat="42.98164" lon="-0.42604">
        <ele>550.972656</ele>
        <time>2013-06-05T15:41:09Z</time>
      </trkpt>
      <trkpt lat="42.98187" lon="-0.42618">
        <ele>547.608154</ele>
        <time>2013-06-05T15:41:26Z</time>
      </trkpt>
      <trkpt lat="42.98199" lon="-0.42647">
        <ele>545.685547</ele>
        <time>2013-06-05T15:41:42Z</time>
      </trkpt>
      <trkpt lat="42.98207" lon="-0.42674">
        <ele>542.320923</ele>
        <time>2013-06-05T15:41:56Z</time>
      </trkpt>
      <trkpt lat="42.9822" lon="-0.42701">
        <ele>540.398315</ele>
        <time>2013-06-05T15:42:11Z</time>
      </trkpt>
      <trkpt lat="42.98236" lon="-0.42717">
        <ele>539.917603</ele>
        <time>2013-06-05T15:42:25Z</time>
      </trkpt>
      <trkpt lat="42.98245" lon="-0.42726">
        <ele>537.033691</ele>
        <time>2013-06-05T15:42:33Z</time>
      </trkpt>
      <trkpt lat="42.98259" lon="-0.42754">
        <ele>534.630371</ele>
        <time>2013-06-05T15:42:49Z</time>
      </trkpt>
      <trkpt lat="42.98262" lon="-0.42762">
        <ele>533.668945</ele>
        <time>2013-06-05T15:42:53Z</time>
      </trkpt>
      <trkpt lat="42.98263" lon="-0.42769">
        <ele>532.707764</ele>
        <time>2013-06-05T15:42:57Z</time>
      </trkpt>
      <trkpt lat="42.9828" lon="-0.42804">
        <ele>530.785156</ele>
        <time>2013-06-05T15:43:17Z</time>
      </trkpt>
      <trkpt lat="42.98312" lon="-0.42809">
        <ele>529.82373</ele>
        <time>2013-06-05T15:43:37Z</time>
      </trkpt>
      <trkpt lat="42.98341" lon="-0.42803">
        <ele>528.862549</ele>
        <time>2013-06-05T15:43:56Z</time>
      </trkpt>
      <trkpt lat="42.9835" lon="-0.42798">
        <ele>529.34314</ele>
        <time>2013-06-05T15:44:04Z</time>
      </trkpt>
      <trkpt lat="42.98371" lon="-0.42801">
        <ele>529.34314</ele>
        <time>2013-06-05T15:44:19Z</time>
      </trkpt>
      <trkpt lat="42.98403" lon="-0.42795">
        <ele>530.304443</ele>
        <time>2013-06-05T15:44:39Z</time>
      </trkpt>
      <trkpt lat="42.98435" lon="-0.4278">
        <ele>530.304443</ele>
        <time>2013-06-05T15:45:01Z</time>
      </trkpt>
      <trkpt lat="42.98468" lon="-0.42767">
        <ele>529.82373</ele>
        <time>2013-06-05T15:45:23Z</time>
      </trkpt>
      <trkpt lat="42.98475" lon="-0.42764">
        <ele>529.34314</ele>
        <time>2013-06-05T15:45:28Z</time>
      </trkpt>
      <trkpt lat="42.9849" lon="-0.42794">
        <ele>530.304443</ele>
        <time>2013-06-05T15:45:46Z</time>
      </trkpt>
      <trkpt lat="42.98499" lon="-0.42802">
        <ele>530.785156</ele>
        <time>2013-06-05T15:46:01Z</time>
      </trkpt>
      <trkpt lat="42.98491" lon="-0.42794">
        <ele>538.956299</ele>
        <time>2013-06-05T15:46:51Z</time>
      </trkpt>
      <trkpt lat="42.98492" lon="-0.42797">
        <ele>535.591553</ele>
        <time>2013-06-05T15:46:54Z</time>
      </trkpt>
      <trkpt lat="42.98495" lon="-0.42799">
        <ele>532.227051</ele>
        <time>2013-06-05T15:46:57Z</time>
      </trkpt>
    </trkseg>
  </trk>
</gpx>